<?xml version="1.0" encoding="UTF-8" standalone="no" ?>
<gpx xmlns="http://www.topografix.com/GPX/1/1" xmlns:xsi="http://www.w3.org/2001/XMLSchema-instance" xsi:schemaLocation="http://www.topografix.com/GPX/1/1 http://www.topografix.com/GPX/1/1/gpx.xsd" version="1.1" creator="VisuGPX - https://www.visugpx.com">
  <metadata>
    <name>RANDO CHANTEUGES PRADES 26 KM</name>
    <desc><![CDATA[RANDO CHANTEUGES PRADES 26 KM.DEPART ARRIVEE ABBAYE DE CHANTEUGES.DARNE.CHARRAIX.PRADES.ST JULIEN DES CHAZES.BOURLEYRE]]></desc>
  </metadata>
  <trk>
    <name><![CDATA[AAAAAAAAAAA6:05:18]]></name>
    <trkseg>
      <trkpt lat="45.07363" lon="3.53383">
        <ele>429.85</ele>
        <time>2019-10-27T08:15:53Z</time>
      </trkpt>
      <trkpt lat="45.07358" lon="3.53369">
        <ele>465.9</ele>
        <time>2019-10-27T08:16:10Z</time>
      </trkpt>
      <trkpt lat="45.07355" lon="3.53367">
        <ele>478.87</ele>
        <time>2019-10-27T08:16:25Z</time>
      </trkpt>
      <trkpt lat="45.07357" lon="3.53361">
        <ele>479.84</ele>
        <time>2019-10-27T08:16:37Z</time>
      </trkpt>
      <trkpt lat="45.0736" lon="3.53351">
        <ele>480.8</ele>
        <time>2019-10-27T08:16:42Z</time>
      </trkpt>
      <trkpt lat="45.07358" lon="3.53347">
        <ele>481.28</ele>
        <time>2019-10-27T08:16:44Z</time>
      </trkpt>
      <trkpt lat="45.07354" lon="3.53341">
        <ele>483.68</ele>
        <time>2019-10-27T08:16:48Z</time>
      </trkpt>
      <trkpt lat="45.07346" lon="3.53325">
        <ele>492.81</ele>
        <time>2019-10-27T08:16:58Z</time>
      </trkpt>
      <trkpt lat="45.0734" lon="3.53316">
        <ele>513</ele>
        <time>2019-10-27T08:17:10Z</time>
      </trkpt>
      <trkpt lat="45.07337" lon="3.53315">
        <ele>516.85</ele>
        <time>2019-10-27T08:17:16Z</time>
      </trkpt>
      <trkpt lat="45.07327" lon="3.53325">
        <ele>525.98</ele>
        <time>2019-10-27T08:17:28Z</time>
      </trkpt>
      <trkpt lat="45.07317" lon="3.53333">
        <ele>534.15</ele>
        <time>2019-10-27T08:17:40Z</time>
      </trkpt>
      <trkpt lat="45.07304" lon="3.53345">
        <ele>538.48</ele>
        <time>2019-10-27T08:17:56Z</time>
      </trkpt>
      <trkpt lat="45.07297" lon="3.53349">
        <ele>539.92</ele>
        <time>2019-10-27T08:18:06Z</time>
      </trkpt>
      <trkpt lat="45.07288" lon="3.53353">
        <ele>541.36</ele>
        <time>2019-10-27T08:18:22Z</time>
      </trkpt>
      <trkpt lat="45.0728" lon="3.53351">
        <ele>545.69</ele>
        <time>2019-10-27T08:18:33Z</time>
      </trkpt>
      <trkpt lat="45.07284" lon="3.53349">
        <ele>544.72</ele>
        <time>2019-10-27T08:18:38Z</time>
      </trkpt>
      <trkpt lat="45.07289" lon="3.53345">
        <ele>545.2</ele>
        <time>2019-10-27T08:18:44Z</time>
      </trkpt>
      <trkpt lat="45.07291" lon="3.53353">
        <ele>545.2</ele>
        <time>2019-10-27T08:18:48Z</time>
      </trkpt>
      <trkpt lat="45.07282" lon="3.53356">
        <ele>548.09</ele>
        <time>2019-10-27T08:19:00Z</time>
      </trkpt>
      <trkpt lat="45.07277" lon="3.53357">
        <ele>548.57</ele>
        <time>2019-10-27T08:19:06Z</time>
      </trkpt>
      <trkpt lat="45.07271" lon="3.53355">
        <ele>549.05</ele>
        <time>2019-10-27T08:19:10Z</time>
      </trkpt>
      <trkpt lat="45.07264" lon="3.53352">
        <ele>548.09</ele>
        <time>2019-10-27T08:19:15Z</time>
      </trkpt>
      <trkpt lat="45.07259" lon="3.53356">
        <ele>545.69</ele>
        <time>2019-10-27T08:19:20Z</time>
      </trkpt>
      <trkpt lat="45.07252" lon="3.53358">
        <ele>547.61</ele>
        <time>2019-10-27T08:19:25Z</time>
      </trkpt>
      <trkpt lat="45.07237" lon="3.5335">
        <ele>546.65</ele>
        <time>2019-10-27T08:19:35Z</time>
      </trkpt>
      <trkpt lat="45.07237" lon="3.53339">
        <ele>546.65</ele>
        <time>2019-10-27T08:19:42Z</time>
      </trkpt>
      <trkpt lat="45.0724" lon="3.53326">
        <ele>537.51</ele>
        <time>2019-10-27T08:19:55Z</time>
      </trkpt>
      <trkpt lat="45.07221" lon="3.53295">
        <ele>535.11</ele>
        <time>2019-10-27T08:20:13Z</time>
      </trkpt>
      <trkpt lat="45.07211" lon="3.53276">
        <ele>534.15</ele>
        <time>2019-10-27T08:20:24Z</time>
      </trkpt>
      <trkpt lat="45.07209" lon="3.53266">
        <ele>534.15</ele>
        <time>2019-10-27T08:20:29Z</time>
      </trkpt>
      <trkpt lat="45.07209" lon="3.53262">
        <ele>534.15</ele>
        <time>2019-10-27T08:20:31Z</time>
      </trkpt>
      <trkpt lat="45.0721" lon="3.53236">
        <ele>533.19</ele>
        <time>2019-10-27T08:20:45Z</time>
      </trkpt>
      <trkpt lat="45.07207" lon="3.53228">
        <ele>531.75</ele>
        <time>2019-10-27T08:20:50Z</time>
      </trkpt>
      <trkpt lat="45.07185" lon="3.53198">
        <ele>534.63</ele>
        <time>2019-10-27T08:21:11Z</time>
      </trkpt>
      <trkpt lat="45.07169" lon="3.53173">
        <ele>534.63</ele>
        <time>2019-10-27T08:21:29Z</time>
      </trkpt>
      <trkpt lat="45.07159" lon="3.53157">
        <ele>533.19</ele>
        <time>2019-10-27T08:21:42Z</time>
      </trkpt>
      <trkpt lat="45.07144" lon="3.53134">
        <ele>535.59</ele>
        <time>2019-10-27T08:21:58Z</time>
      </trkpt>
      <trkpt lat="45.07129" lon="3.53119">
        <ele>535.59</ele>
        <time>2019-10-27T08:22:14Z</time>
      </trkpt>
      <trkpt lat="45.07125" lon="3.53125">
        <ele>534.15</ele>
        <time>2019-10-27T08:22:20Z</time>
      </trkpt>
      <trkpt lat="45.07123" lon="3.53129">
        <ele>534.15</ele>
        <time>2019-10-27T08:22:25Z</time>
      </trkpt>
      <trkpt lat="45.0712" lon="3.53137">
        <ele>534.63</ele>
        <time>2019-10-27T08:22:31Z</time>
      </trkpt>
      <trkpt lat="45.07115" lon="3.5315">
        <ele>535.59</ele>
        <time>2019-10-27T08:22:40Z</time>
      </trkpt>
      <trkpt lat="45.07107" lon="3.53169">
        <ele>534.63</ele>
        <time>2019-10-27T08:22:52Z</time>
      </trkpt>
      <trkpt lat="45.07103" lon="3.53175">
        <ele>535.11</ele>
        <time>2019-10-27T08:22:57Z</time>
      </trkpt>
      <trkpt lat="45.07092" lon="3.53199">
        <ele>533.67</ele>
        <time>2019-10-27T08:23:12Z</time>
      </trkpt>
      <trkpt lat="45.07077" lon="3.53212">
        <ele>536.07</ele>
        <time>2019-10-27T08:23:26Z</time>
      </trkpt>
      <trkpt lat="45.07069" lon="3.53217">
        <ele>539.44</ele>
        <time>2019-10-27T08:23:34Z</time>
      </trkpt>
      <trkpt lat="45.0706" lon="3.53229">
        <ele>542.32</ele>
        <time>2019-10-27T08:23:43Z</time>
      </trkpt>
      <trkpt lat="45.07056" lon="3.53233">
        <ele>543.76</ele>
        <time>2019-10-27T08:23:47Z</time>
      </trkpt>
      <trkpt lat="45.07043" lon="3.5324">
        <ele>545.69</ele>
        <time>2019-10-27T08:23:58Z</time>
      </trkpt>
      <trkpt lat="45.07033" lon="3.53249">
        <ele>548.57</ele>
        <time>2019-10-27T08:24:05Z</time>
      </trkpt>
      <trkpt lat="45.07026" lon="3.53268">
        <ele>546.65</ele>
        <time>2019-10-27T08:24:13Z</time>
      </trkpt>
      <trkpt lat="45.07023" lon="3.53271">
        <ele>547.13</ele>
        <time>2019-10-27T08:24:16Z</time>
      </trkpt>
      <trkpt lat="45.07016" lon="3.53306">
        <ele>544.72</ele>
        <time>2019-10-27T08:24:30Z</time>
      </trkpt>
      <trkpt lat="45.07004" lon="3.53328">
        <ele>546.65</ele>
        <time>2019-10-27T08:24:43Z</time>
      </trkpt>
      <trkpt lat="45.06991" lon="3.53347">
        <ele>547.13</ele>
        <time>2019-10-27T08:24:57Z</time>
      </trkpt>
      <trkpt lat="45.06969" lon="3.53368">
        <ele>544.24</ele>
        <time>2019-10-27T08:25:14Z</time>
      </trkpt>
      <trkpt lat="45.06953" lon="3.53386">
        <ele>541.36</ele>
        <time>2019-10-27T08:25:29Z</time>
      </trkpt>
      <trkpt lat="45.06942" lon="3.53404">
        <ele>538.96</ele>
        <time>2019-10-27T08:25:40Z</time>
      </trkpt>
      <trkpt lat="45.06927" lon="3.53432">
        <ele>538.96</ele>
        <time>2019-10-27T08:25:58Z</time>
      </trkpt>
      <trkpt lat="45.06915" lon="3.53455">
        <ele>537.99</ele>
        <time>2019-10-27T08:26:13Z</time>
      </trkpt>
      <trkpt lat="45.06907" lon="3.53468">
        <ele>537.99</ele>
        <time>2019-10-27T08:26:22Z</time>
      </trkpt>
      <trkpt lat="45.06905" lon="3.53475">
        <ele>538.48</ele>
        <time>2019-10-27T08:26:26Z</time>
      </trkpt>
      <trkpt lat="45.06894" lon="3.53494">
        <ele>540.4</ele>
        <time>2019-10-27T08:26:39Z</time>
      </trkpt>
      <trkpt lat="45.0689" lon="3.53501">
        <ele>540.88</ele>
        <time>2019-10-27T08:26:44Z</time>
      </trkpt>
      <trkpt lat="45.0688" lon="3.5351">
        <ele>544.72</ele>
        <time>2019-10-27T08:26:54Z</time>
      </trkpt>
      <trkpt lat="45.06875" lon="3.53512">
        <ele>546.17</ele>
        <time>2019-10-27T08:26:59Z</time>
      </trkpt>
      <trkpt lat="45.06867" lon="3.53517">
        <ele>547.13</ele>
        <time>2019-10-27T08:27:06Z</time>
      </trkpt>
      <trkpt lat="45.06855" lon="3.53538">
        <ele>549.53</ele>
        <time>2019-10-27T08:27:18Z</time>
      </trkpt>
      <trkpt lat="45.06853" lon="3.53544">
        <ele>550.01</ele>
        <time>2019-10-27T08:27:21Z</time>
      </trkpt>
      <trkpt lat="45.06842" lon="3.53566">
        <ele>550.97</ele>
        <time>2019-10-27T08:27:32Z</time>
      </trkpt>
      <trkpt lat="45.06831" lon="3.53595">
        <ele>546.65</ele>
        <time>2019-10-27T08:27:47Z</time>
      </trkpt>
      <trkpt lat="45.06818" lon="3.53614">
        <ele>543.76</ele>
        <time>2019-10-27T08:28:00Z</time>
      </trkpt>
      <trkpt lat="45.06812" lon="3.53622">
        <ele>543.28</ele>
        <time>2019-10-27T08:28:06Z</time>
      </trkpt>
      <trkpt lat="45.06799" lon="3.53641">
        <ele>540.88</ele>
        <time>2019-10-27T08:28:21Z</time>
      </trkpt>
      <trkpt lat="45.06798" lon="3.53642">
        <ele>540.88</ele>
        <time>2019-10-27T08:28:22Z</time>
      </trkpt>
      <trkpt lat="45.06793" lon="3.53646">
        <ele>539.44</ele>
        <time>2019-10-27T08:28:26Z</time>
      </trkpt>
      <trkpt lat="45.0678" lon="3.53664">
        <ele>541.36</ele>
        <time>2019-10-27T08:28:40Z</time>
      </trkpt>
      <trkpt lat="45.06774" lon="3.53673">
        <ele>543.28</ele>
        <time>2019-10-27T08:28:47Z</time>
      </trkpt>
      <trkpt lat="45.06764" lon="3.53693">
        <ele>545.69</ele>
        <time>2019-10-27T08:29:00Z</time>
      </trkpt>
      <trkpt lat="45.06759" lon="3.53708">
        <ele>546.65</ele>
        <time>2019-10-27T08:29:09Z</time>
      </trkpt>
      <trkpt lat="45.06756" lon="3.53713">
        <ele>549.53</ele>
        <time>2019-10-27T08:29:21Z</time>
      </trkpt>
      <trkpt lat="45.06754" lon="3.53719">
        <ele>550.49</ele>
        <time>2019-10-27T08:29:34Z</time>
      </trkpt>
      <trkpt lat="45.06748" lon="3.5373">
        <ele>553.38</ele>
        <time>2019-10-27T08:29:46Z</time>
      </trkpt>
      <trkpt lat="45.06738" lon="3.5375">
        <ele>560.11</ele>
        <time>2019-10-27T08:29:59Z</time>
      </trkpt>
      <trkpt lat="45.06731" lon="3.53773">
        <ele>562.99</ele>
        <time>2019-10-27T08:30:16Z</time>
      </trkpt>
      <trkpt lat="45.06729" lon="3.5378">
        <ele>564.43</ele>
        <time>2019-10-27T08:30:21Z</time>
      </trkpt>
      <trkpt lat="45.06724" lon="3.53801">
        <ele>566.83</ele>
        <time>2019-10-27T08:30:33Z</time>
      </trkpt>
      <trkpt lat="45.06718" lon="3.53815">
        <ele>568.76</ele>
        <time>2019-10-27T08:30:45Z</time>
      </trkpt>
      <trkpt lat="45.0671" lon="3.53833">
        <ele>571.64</ele>
        <time>2019-10-27T08:30:58Z</time>
      </trkpt>
      <trkpt lat="45.0671" lon="3.53834">
        <ele>571.16</ele>
        <time>2019-10-27T08:30:59Z</time>
      </trkpt>
      <trkpt lat="45.06703" lon="3.53852">
        <ele>571.64</ele>
        <time>2019-10-27T08:31:11Z</time>
      </trkpt>
      <trkpt lat="45.06691" lon="3.53867">
        <ele>574.53</ele>
        <time>2019-10-27T08:31:24Z</time>
      </trkpt>
      <trkpt lat="45.06688" lon="3.53877">
        <ele>575.01</ele>
        <time>2019-10-27T08:31:33Z</time>
      </trkpt>
      <trkpt lat="45.06685" lon="3.53888">
        <ele>577.41</ele>
        <time>2019-10-27T08:31:44Z</time>
      </trkpt>
      <trkpt lat="45.06678" lon="3.53898">
        <ele>580.29</ele>
        <time>2019-10-27T08:31:55Z</time>
      </trkpt>
      <trkpt lat="45.06673" lon="3.53906">
        <ele>581.25</ele>
        <time>2019-10-27T08:32:04Z</time>
      </trkpt>
      <trkpt lat="45.06666" lon="3.53917">
        <ele>583.66</ele>
        <time>2019-10-27T08:32:17Z</time>
      </trkpt>
      <trkpt lat="45.06659" lon="3.53921">
        <ele>587.5</ele>
        <time>2019-10-27T08:32:27Z</time>
      </trkpt>
      <trkpt lat="45.06643" lon="3.53926">
        <ele>593.27</ele>
        <time>2019-10-27T08:32:40Z</time>
      </trkpt>
      <trkpt lat="45.06641" lon="3.53938">
        <ele>598.56</ele>
        <time>2019-10-27T08:32:54Z</time>
      </trkpt>
      <trkpt lat="45.06643" lon="3.53947">
        <ele>600</ele>
        <time>2019-10-27T08:33:05Z</time>
      </trkpt>
      <trkpt lat="45.06641" lon="3.53958">
        <ele>600</ele>
        <time>2019-10-27T08:33:18Z</time>
      </trkpt>
      <trkpt lat="45.06638" lon="3.5398">
        <ele>600.96</ele>
        <time>2019-10-27T08:33:30Z</time>
      </trkpt>
      <trkpt lat="45.06638" lon="3.53982">
        <ele>600.48</ele>
        <time>2019-10-27T08:33:31Z</time>
      </trkpt>
      <trkpt lat="45.06639" lon="3.54013">
        <ele>594.23</ele>
        <time>2019-10-27T08:33:40Z</time>
      </trkpt>
      <trkpt lat="45.06632" lon="3.54039">
        <ele>594.23</ele>
        <time>2019-10-27T08:33:54Z</time>
      </trkpt>
      <trkpt lat="45.06627" lon="3.54055">
        <ele>593.27</ele>
        <time>2019-10-27T08:34:09Z</time>
      </trkpt>
      <trkpt lat="45.06626" lon="3.54056">
        <ele>592.31</ele>
        <time>2019-10-27T08:34:10Z</time>
      </trkpt>
      <trkpt lat="45.06626" lon="3.54073">
        <ele>591.83</ele>
        <time>2019-10-27T08:34:23Z</time>
      </trkpt>
      <trkpt lat="45.06632" lon="3.54085">
        <ele>590.87</ele>
        <time>2019-10-27T08:34:34Z</time>
      </trkpt>
      <trkpt lat="45.06635" lon="3.54097">
        <ele>590.87</ele>
        <time>2019-10-27T08:34:44Z</time>
      </trkpt>
      <trkpt lat="45.06636" lon="3.54102">
        <ele>590.87</ele>
        <time>2019-10-27T08:34:47Z</time>
      </trkpt>
      <trkpt lat="45.06636" lon="3.54119">
        <ele>590.39</ele>
        <time>2019-10-27T08:35:01Z</time>
      </trkpt>
      <trkpt lat="45.06635" lon="3.54136">
        <ele>594.71</ele>
        <time>2019-10-27T08:35:15Z</time>
      </trkpt>
      <trkpt lat="45.06632" lon="3.54152">
        <ele>597.12</ele>
        <time>2019-10-27T08:35:28Z</time>
      </trkpt>
      <trkpt lat="45.06632" lon="3.54169">
        <ele>601.44</ele>
        <time>2019-10-27T08:35:42Z</time>
      </trkpt>
      <trkpt lat="45.0663" lon="3.54182">
        <ele>602.88</ele>
        <time>2019-10-27T08:35:52Z</time>
      </trkpt>
      <trkpt lat="45.06633" lon="3.54199">
        <ele>603.85</ele>
        <time>2019-10-27T08:36:03Z</time>
      </trkpt>
      <trkpt lat="45.06631" lon="3.54214">
        <ele>603.85</ele>
        <time>2019-10-27T08:36:14Z</time>
      </trkpt>
      <trkpt lat="45.06633" lon="3.54229">
        <ele>604.81</ele>
        <time>2019-10-27T08:36:23Z</time>
      </trkpt>
      <trkpt lat="45.0664" lon="3.54249">
        <ele>604.81</ele>
        <time>2019-10-27T08:36:36Z</time>
      </trkpt>
      <trkpt lat="45.06653" lon="3.54277">
        <ele>600.48</ele>
        <time>2019-10-27T08:36:52Z</time>
      </trkpt>
      <trkpt lat="45.06664" lon="3.54304">
        <ele>597.12</ele>
        <time>2019-10-27T08:37:05Z</time>
      </trkpt>
      <trkpt lat="45.06667" lon="3.54325">
        <ele>594.71</ele>
        <time>2019-10-27T08:37:17Z</time>
      </trkpt>
      <trkpt lat="45.06664" lon="3.5434">
        <ele>596.64</ele>
        <time>2019-10-27T08:37:27Z</time>
      </trkpt>
      <trkpt lat="45.06661" lon="3.54355">
        <ele>597.12</ele>
        <time>2019-10-27T08:37:36Z</time>
      </trkpt>
      <trkpt lat="45.06657" lon="3.54377">
        <ele>595.19</ele>
        <time>2019-10-27T08:37:46Z</time>
      </trkpt>
      <trkpt lat="45.06657" lon="3.54388">
        <ele>594.23</ele>
        <time>2019-10-27T08:37:51Z</time>
      </trkpt>
      <trkpt lat="45.06653" lon="3.544">
        <ele>595.67</ele>
        <time>2019-10-27T08:37:58Z</time>
      </trkpt>
      <trkpt lat="45.0665" lon="3.54424">
        <ele>596.64</ele>
        <time>2019-10-27T08:38:11Z</time>
      </trkpt>
      <trkpt lat="45.06649" lon="3.54441">
        <ele>598.56</ele>
        <time>2019-10-27T08:38:23Z</time>
      </trkpt>
      <trkpt lat="45.06647" lon="3.54455">
        <ele>599.04</ele>
        <time>2019-10-27T08:38:31Z</time>
      </trkpt>
      <trkpt lat="45.06643" lon="3.54474">
        <ele>598.56</ele>
        <time>2019-10-27T08:38:43Z</time>
      </trkpt>
      <trkpt lat="45.06639" lon="3.54483">
        <ele>597.6</ele>
        <time>2019-10-27T08:38:48Z</time>
      </trkpt>
      <trkpt lat="45.06639" lon="3.54495">
        <ele>596.15</ele>
        <time>2019-10-27T08:38:52Z</time>
      </trkpt>
      <trkpt lat="45.0663" lon="3.5452">
        <ele>589.43</ele>
        <time>2019-10-27T08:39:07Z</time>
      </trkpt>
      <trkpt lat="45.06611" lon="3.54523">
        <ele>585.1</ele>
        <time>2019-10-27T08:39:22Z</time>
      </trkpt>
      <trkpt lat="45.06599" lon="3.54526">
        <ele>587.02</ele>
        <time>2019-10-27T08:39:36Z</time>
      </trkpt>
      <trkpt lat="45.06598" lon="3.54525">
        <ele>587.98</ele>
        <time>2019-10-27T08:39:40Z</time>
      </trkpt>
      <trkpt lat="45.0659" lon="3.54527">
        <ele>589.43</ele>
        <time>2019-10-27T08:39:46Z</time>
      </trkpt>
      <trkpt lat="45.06573" lon="3.54534">
        <ele>592.31</ele>
        <time>2019-10-27T08:40:00Z</time>
      </trkpt>
      <trkpt lat="45.06563" lon="3.54536">
        <ele>592.79</ele>
        <time>2019-10-27T08:40:09Z</time>
      </trkpt>
      <trkpt lat="45.06557" lon="3.54537">
        <ele>594.23</ele>
        <time>2019-10-27T08:40:14Z</time>
      </trkpt>
      <trkpt lat="45.06556" lon="3.54536">
        <ele>595.19</ele>
        <time>2019-10-27T08:40:16Z</time>
      </trkpt>
      <trkpt lat="45.06554" lon="3.54536">
        <ele>596.64</ele>
        <time>2019-10-27T08:40:18Z</time>
      </trkpt>
      <trkpt lat="45.06544" lon="3.54532">
        <ele>600.96</ele>
        <time>2019-10-27T08:40:28Z</time>
      </trkpt>
      <trkpt lat="45.06533" lon="3.5452">
        <ele>604.81</ele>
        <time>2019-10-27T08:40:41Z</time>
      </trkpt>
      <trkpt lat="45.06524" lon="3.54514">
        <ele>611.54</ele>
        <time>2019-10-27T08:40:52Z</time>
      </trkpt>
      <trkpt lat="45.06509" lon="3.54509">
        <ele>619.23</ele>
        <time>2019-10-27T08:41:05Z</time>
      </trkpt>
      <trkpt lat="45.06495" lon="3.54503">
        <ele>624.51</ele>
        <time>2019-10-27T08:41:17Z</time>
      </trkpt>
      <trkpt lat="45.06483" lon="3.54501">
        <ele>628.36</ele>
        <time>2019-10-27T08:41:26Z</time>
      </trkpt>
      <trkpt lat="45.06464" lon="3.54496">
        <ele>629.32</ele>
        <time>2019-10-27T08:41:38Z</time>
      </trkpt>
      <trkpt lat="45.06445" lon="3.54488">
        <ele>633.17</ele>
        <time>2019-10-27T08:41:54Z</time>
      </trkpt>
      <trkpt lat="45.06438" lon="3.54482">
        <ele>631.72</ele>
        <time>2019-10-27T08:42:00Z</time>
      </trkpt>
      <trkpt lat="45.06419" lon="3.54469">
        <ele>632.2</ele>
        <time>2019-10-27T08:42:15Z</time>
      </trkpt>
      <trkpt lat="45.06417" lon="3.54466">
        <ele>631.72</ele>
        <time>2019-10-27T08:42:17Z</time>
      </trkpt>
      <trkpt lat="45.06406" lon="3.54453">
        <ele>631.72</ele>
        <time>2019-10-27T08:42:29Z</time>
      </trkpt>
      <trkpt lat="45.06379" lon="3.54447">
        <ele>620.19</ele>
        <time>2019-10-27T08:42:43Z</time>
      </trkpt>
      <trkpt lat="45.06364" lon="3.54448">
        <ele>621.15</ele>
        <time>2019-10-27T08:42:55Z</time>
      </trkpt>
      <trkpt lat="45.06348" lon="3.5444">
        <ele>611.06</ele>
        <time>2019-10-27T08:43:06Z</time>
      </trkpt>
      <trkpt lat="45.06328" lon="3.54441">
        <ele>607.21</ele>
        <time>2019-10-27T08:43:21Z</time>
      </trkpt>
      <trkpt lat="45.06311" lon="3.54451">
        <ele>610.09</ele>
        <time>2019-10-27T08:43:35Z</time>
      </trkpt>
      <trkpt lat="45.06299" lon="3.5446">
        <ele>606.25</ele>
        <time>2019-10-27T08:43:46Z</time>
      </trkpt>
      <trkpt lat="45.06283" lon="3.54471">
        <ele>604.33</ele>
        <time>2019-10-27T08:43:59Z</time>
      </trkpt>
      <trkpt lat="45.06266" lon="3.54484">
        <ele>606.25</ele>
        <time>2019-10-27T08:44:13Z</time>
      </trkpt>
      <trkpt lat="45.06254" lon="3.54494">
        <ele>607.21</ele>
        <time>2019-10-27T08:44:23Z</time>
      </trkpt>
      <trkpt lat="45.06239" lon="3.54505">
        <ele>605.77</ele>
        <time>2019-10-27T08:44:37Z</time>
      </trkpt>
      <trkpt lat="45.06227" lon="3.54513">
        <ele>605.77</ele>
        <time>2019-10-27T08:44:49Z</time>
      </trkpt>
      <trkpt lat="45.06219" lon="3.54517">
        <ele>607.69</ele>
        <time>2019-10-27T08:44:56Z</time>
      </trkpt>
      <trkpt lat="45.06214" lon="3.54519">
        <ele>608.17</ele>
        <time>2019-10-27T08:45:00Z</time>
      </trkpt>
      <trkpt lat="45.06203" lon="3.54523">
        <ele>611.06</ele>
        <time>2019-10-27T08:45:08Z</time>
      </trkpt>
      <trkpt lat="45.06184" lon="3.54528">
        <ele>611.06</ele>
        <time>2019-10-27T08:45:23Z</time>
      </trkpt>
      <trkpt lat="45.06165" lon="3.54531">
        <ele>612.5</ele>
        <time>2019-10-27T08:45:37Z</time>
      </trkpt>
      <trkpt lat="45.06145" lon="3.54525">
        <ele>608.17</ele>
        <time>2019-10-27T08:45:52Z</time>
      </trkpt>
      <trkpt lat="45.06126" lon="3.5452">
        <ele>609.61</ele>
        <time>2019-10-27T08:46:06Z</time>
      </trkpt>
      <trkpt lat="45.06121" lon="3.54518">
        <ele>610.09</ele>
        <time>2019-10-27T08:46:10Z</time>
      </trkpt>
      <trkpt lat="45.06117" lon="3.54517">
        <ele>609.61</ele>
        <time>2019-10-27T08:46:13Z</time>
      </trkpt>
      <trkpt lat="45.06108" lon="3.54511">
        <ele>609.61</ele>
        <time>2019-10-27T08:46:21Z</time>
      </trkpt>
      <trkpt lat="45.06097" lon="3.54501">
        <ele>610.09</ele>
        <time>2019-10-27T08:46:32Z</time>
      </trkpt>
      <trkpt lat="45.06091" lon="3.54493">
        <ele>611.06</ele>
        <time>2019-10-27T08:46:39Z</time>
      </trkpt>
      <trkpt lat="45.06087" lon="3.54485">
        <ele>611.54</ele>
        <time>2019-10-27T08:46:45Z</time>
      </trkpt>
      <trkpt lat="45.06079" lon="3.54467">
        <ele>612.02</ele>
        <time>2019-10-27T08:46:57Z</time>
      </trkpt>
      <trkpt lat="45.06078" lon="3.54463">
        <ele>612.02</ele>
        <time>2019-10-27T08:46:59Z</time>
      </trkpt>
      <trkpt lat="45.06076" lon="3.5446">
        <ele>612.5</ele>
        <time>2019-10-27T08:47:03Z</time>
      </trkpt>
      <trkpt lat="45.06068" lon="3.54437">
        <ele>611.06</ele>
        <time>2019-10-27T08:47:17Z</time>
      </trkpt>
      <trkpt lat="45.06067" lon="3.5443">
        <ele>610.09</ele>
        <time>2019-10-27T08:47:21Z</time>
      </trkpt>
      <trkpt lat="45.06058" lon="3.5441">
        <ele>608.17</ele>
        <time>2019-10-27T08:47:34Z</time>
      </trkpt>
      <trkpt lat="45.06052" lon="3.54408">
        <ele>607.21</ele>
        <time>2019-10-27T08:47:39Z</time>
      </trkpt>
      <trkpt lat="45.06031" lon="3.5441">
        <ele>606.25</ele>
        <time>2019-10-27T08:47:54Z</time>
      </trkpt>
      <trkpt lat="45.06011" lon="3.54415">
        <ele>605.77</ele>
        <time>2019-10-27T08:48:10Z</time>
      </trkpt>
      <trkpt lat="45.06004" lon="3.54416">
        <ele>605.77</ele>
        <time>2019-10-27T08:48:16Z</time>
      </trkpt>
      <trkpt lat="45.05998" lon="3.54414">
        <ele>605.29</ele>
        <time>2019-10-27T08:48:21Z</time>
      </trkpt>
      <trkpt lat="45.05985" lon="3.5441">
        <ele>604.81</ele>
        <time>2019-10-27T08:48:31Z</time>
      </trkpt>
      <trkpt lat="45.05984" lon="3.54408">
        <ele>604.33</ele>
        <time>2019-10-27T08:48:34Z</time>
      </trkpt>
      <trkpt lat="45.05971" lon="3.54404">
        <ele>605.29</ele>
        <time>2019-10-27T08:48:45Z</time>
      </trkpt>
      <trkpt lat="45.0595" lon="3.54406">
        <ele>606.25</ele>
        <time>2019-10-27T08:49:01Z</time>
      </trkpt>
      <trkpt lat="45.05929" lon="3.54418">
        <ele>605.77</ele>
        <time>2019-10-27T08:49:20Z</time>
      </trkpt>
      <trkpt lat="45.05917" lon="3.5442">
        <ele>603.36</ele>
        <time>2019-10-27T08:49:31Z</time>
      </trkpt>
      <trkpt lat="45.05914" lon="3.5442">
        <ele>602.88</ele>
        <time>2019-10-27T08:49:34Z</time>
      </trkpt>
      <trkpt lat="45.05898" lon="3.54434">
        <ele>600</ele>
        <time>2019-10-27T08:49:51Z</time>
      </trkpt>
      <trkpt lat="45.05896" lon="3.54436">
        <ele>599.52</ele>
        <time>2019-10-27T08:49:54Z</time>
      </trkpt>
      <trkpt lat="45.05892" lon="3.54429">
        <ele>596.64</ele>
        <time>2019-10-27T08:50:05Z</time>
      </trkpt>
      <trkpt lat="45.05894" lon="3.54425">
        <ele>594.71</ele>
        <time>2019-10-27T08:50:15Z</time>
      </trkpt>
      <trkpt lat="45.05887" lon="3.54413">
        <ele>592.31</ele>
        <time>2019-10-27T08:50:25Z</time>
      </trkpt>
      <trkpt lat="45.05882" lon="3.54416">
        <ele>591.83</ele>
        <time>2019-10-27T08:50:30Z</time>
      </trkpt>
      <trkpt lat="45.05863" lon="3.54442">
        <ele>587.5</ele>
        <time>2019-10-27T08:50:50Z</time>
      </trkpt>
      <trkpt lat="45.05848" lon="3.54478">
        <ele>583.66</ele>
        <time>2019-10-27T08:51:11Z</time>
      </trkpt>
      <trkpt lat="45.05839" lon="3.54511">
        <ele>581.25</ele>
        <time>2019-10-27T08:51:29Z</time>
      </trkpt>
      <trkpt lat="45.05834" lon="3.54555">
        <ele>577.41</ele>
        <time>2019-10-27T08:51:51Z</time>
      </trkpt>
      <trkpt lat="45.05831" lon="3.54575">
        <ele>575.97</ele>
        <time>2019-10-27T08:52:05Z</time>
      </trkpt>
      <trkpt lat="45.05826" lon="3.54577">
        <ele>575.01</ele>
        <time>2019-10-27T08:52:09Z</time>
      </trkpt>
      <trkpt lat="45.05807" lon="3.54572">
        <ele>572.6</ele>
        <time>2019-10-27T08:52:25Z</time>
      </trkpt>
      <trkpt lat="45.05785" lon="3.54561">
        <ele>569.72</ele>
        <time>2019-10-27T08:52:43Z</time>
      </trkpt>
      <trkpt lat="45.05784" lon="3.54561">
        <ele>569.72</ele>
        <time>2019-10-27T08:52:44Z</time>
      </trkpt>
      <trkpt lat="45.05774" lon="3.54584">
        <ele>566.83</ele>
        <time>2019-10-27T08:53:01Z</time>
      </trkpt>
      <trkpt lat="45.05772" lon="3.54599">
        <ele>562.99</ele>
        <time>2019-10-27T08:53:15Z</time>
      </trkpt>
      <trkpt lat="45.05763" lon="3.54582">
        <ele>562.03</ele>
        <time>2019-10-27T08:53:27Z</time>
      </trkpt>
      <trkpt lat="45.05758" lon="3.54582">
        <ele>561.07</ele>
        <time>2019-10-27T08:53:33Z</time>
      </trkpt>
      <trkpt lat="45.05754" lon="3.54577">
        <ele>560.59</ele>
        <time>2019-10-27T08:53:38Z</time>
      </trkpt>
      <trkpt lat="45.05749" lon="3.54565">
        <ele>559.14</ele>
        <time>2019-10-27T08:53:46Z</time>
      </trkpt>
      <trkpt lat="45.05742" lon="3.54565">
        <ele>556.74</ele>
        <time>2019-10-27T08:53:52Z</time>
      </trkpt>
      <trkpt lat="45.05723" lon="3.54583">
        <ele>552.41</ele>
        <time>2019-10-27T08:54:10Z</time>
      </trkpt>
      <trkpt lat="45.05701" lon="3.54597">
        <ele>551.93</ele>
        <time>2019-10-27T08:54:26Z</time>
      </trkpt>
      <trkpt lat="45.05683" lon="3.54616">
        <ele>555.3</ele>
        <time>2019-10-27T08:54:43Z</time>
      </trkpt>
      <trkpt lat="45.05677" lon="3.5465">
        <ele>557.7</ele>
        <time>2019-10-27T08:55:01Z</time>
      </trkpt>
      <trkpt lat="45.05671" lon="3.54677">
        <ele>559.14</ele>
        <time>2019-10-27T08:55:16Z</time>
      </trkpt>
      <trkpt lat="45.05662" lon="3.54708">
        <ele>559.14</ele>
        <time>2019-10-27T08:55:34Z</time>
      </trkpt>
      <trkpt lat="45.05658" lon="3.54729">
        <ele>561.07</ele>
        <time>2019-10-27T08:55:47Z</time>
      </trkpt>
      <trkpt lat="45.05651" lon="3.54742">
        <ele>565.87</ele>
        <time>2019-10-27T08:55:58Z</time>
      </trkpt>
      <trkpt lat="45.0565" lon="3.54768">
        <ele>570.2</ele>
        <time>2019-10-27T08:56:14Z</time>
      </trkpt>
      <trkpt lat="45.05652" lon="3.54774">
        <ele>570.68</ele>
        <time>2019-10-27T08:56:18Z</time>
      </trkpt>
      <trkpt lat="45.05654" lon="3.54788">
        <ele>573.08</ele>
        <time>2019-10-27T08:56:26Z</time>
      </trkpt>
      <trkpt lat="45.05653" lon="3.54791">
        <ele>573.56</ele>
        <time>2019-10-27T08:56:28Z</time>
      </trkpt>
      <trkpt lat="45.05656" lon="3.5481">
        <ele>577.41</ele>
        <time>2019-10-27T08:56:41Z</time>
      </trkpt>
      <trkpt lat="45.05653" lon="3.54827">
        <ele>579.81</ele>
        <time>2019-10-27T08:56:53Z</time>
      </trkpt>
      <trkpt lat="45.05651" lon="3.54843">
        <ele>584.62</ele>
        <time>2019-10-27T08:57:06Z</time>
      </trkpt>
      <trkpt lat="45.05645" lon="3.54859">
        <ele>589.91</ele>
        <time>2019-10-27T08:57:17Z</time>
      </trkpt>
      <trkpt lat="45.05637" lon="3.54867">
        <ele>596.15</ele>
        <time>2019-10-27T08:57:28Z</time>
      </trkpt>
      <trkpt lat="45.05632" lon="3.54879">
        <ele>597.6</ele>
        <time>2019-10-27T08:57:35Z</time>
      </trkpt>
      <trkpt lat="45.05626" lon="3.54891">
        <ele>602.4</ele>
        <time>2019-10-27T08:57:43Z</time>
      </trkpt>
      <trkpt lat="45.05624" lon="3.54896">
        <ele>604.33</ele>
        <time>2019-10-27T08:57:47Z</time>
      </trkpt>
      <trkpt lat="45.05622" lon="3.549">
        <ele>604.81</ele>
        <time>2019-10-27T08:57:50Z</time>
      </trkpt>
      <trkpt lat="45.05616" lon="3.54911">
        <ele>608.17</ele>
        <time>2019-10-27T08:58:00Z</time>
      </trkpt>
      <trkpt lat="45.05608" lon="3.54947">
        <ele>598.56</ele>
        <time>2019-10-27T08:58:14Z</time>
      </trkpt>
      <trkpt lat="45.05599" lon="3.54962">
        <ele>600.96</ele>
        <time>2019-10-27T08:58:27Z</time>
      </trkpt>
      <trkpt lat="45.05592" lon="3.54985">
        <ele>603.36</ele>
        <time>2019-10-27T08:58:41Z</time>
      </trkpt>
      <trkpt lat="45.05589" lon="3.54988">
        <ele>605.29</ele>
        <time>2019-10-27T08:58:45Z</time>
      </trkpt>
      <trkpt lat="45.05587" lon="3.54999">
        <ele>603.85</ele>
        <time>2019-10-27T08:58:50Z</time>
      </trkpt>
      <trkpt lat="45.05583" lon="3.55008">
        <ele>602.4</ele>
        <time>2019-10-27T08:58:54Z</time>
      </trkpt>
      <trkpt lat="45.05582" lon="3.55011">
        <ele>602.88</ele>
        <time>2019-10-27T08:58:56Z</time>
      </trkpt>
      <trkpt lat="45.05569" lon="3.55025">
        <ele>606.73</ele>
        <time>2019-10-27T08:59:10Z</time>
      </trkpt>
      <trkpt lat="45.05566" lon="3.55027">
        <ele>608.65</ele>
        <time>2019-10-27T08:59:13Z</time>
      </trkpt>
      <trkpt lat="45.05551" lon="3.55054">
        <ele>607.21</ele>
        <time>2019-10-27T08:59:27Z</time>
      </trkpt>
      <trkpt lat="45.05535" lon="3.55073">
        <ele>601.44</ele>
        <time>2019-10-27T08:59:38Z</time>
      </trkpt>
      <trkpt lat="45.05519" lon="3.55085">
        <ele>601.92</ele>
        <time>2019-10-27T08:59:50Z</time>
      </trkpt>
      <trkpt lat="45.05508" lon="3.55093">
        <ele>603.85</ele>
        <time>2019-10-27T08:59:58Z</time>
      </trkpt>
      <trkpt lat="45.05495" lon="3.55107">
        <ele>603.36</ele>
        <time>2019-10-27T09:00:10Z</time>
      </trkpt>
      <trkpt lat="45.05478" lon="3.5512">
        <ele>606.25</ele>
        <time>2019-10-27T09:00:24Z</time>
      </trkpt>
      <trkpt lat="45.05467" lon="3.55132">
        <ele>609.13</ele>
        <time>2019-10-27T09:00:36Z</time>
      </trkpt>
      <trkpt lat="45.05466" lon="3.55132">
        <ele>609.13</ele>
        <time>2019-10-27T09:00:37Z</time>
      </trkpt>
      <trkpt lat="45.05457" lon="3.55141">
        <ele>609.61</ele>
        <time>2019-10-27T09:00:50Z</time>
      </trkpt>
      <trkpt lat="45.05451" lon="3.55142">
        <ele>611.06</ele>
        <time>2019-10-27T09:01:04Z</time>
      </trkpt>
      <trkpt lat="45.05442" lon="3.55142">
        <ele>612.5</ele>
        <time>2019-10-27T09:01:15Z</time>
      </trkpt>
      <trkpt lat="45.05429" lon="3.55138">
        <ele>616.34</ele>
        <time>2019-10-27T09:01:29Z</time>
      </trkpt>
      <trkpt lat="45.05423" lon="3.5514">
        <ele>616.82</ele>
        <time>2019-10-27T09:01:40Z</time>
      </trkpt>
      <trkpt lat="45.05414" lon="3.5514">
        <ele>614.9</ele>
        <time>2019-10-27T09:01:52Z</time>
      </trkpt>
      <trkpt lat="45.05413" lon="3.5514">
        <ele>615.38</ele>
        <time>2019-10-27T09:01:53Z</time>
      </trkpt>
      <trkpt lat="45.05408" lon="3.55145">
        <ele>618.26</ele>
        <time>2019-10-27T09:02:01Z</time>
      </trkpt>
      <trkpt lat="45.05406" lon="3.55144">
        <ele>619.71</ele>
        <time>2019-10-27T09:02:03Z</time>
      </trkpt>
      <trkpt lat="45.05403" lon="3.55144">
        <ele>621.63</ele>
        <time>2019-10-27T09:02:05Z</time>
      </trkpt>
      <trkpt lat="45.05387" lon="3.55141">
        <ele>628.84</ele>
        <time>2019-10-27T09:02:17Z</time>
      </trkpt>
      <trkpt lat="45.05374" lon="3.55135">
        <ele>627.4</ele>
        <time>2019-10-27T09:02:28Z</time>
      </trkpt>
      <trkpt lat="45.0537" lon="3.55131">
        <ele>628.36</ele>
        <time>2019-10-27T09:02:32Z</time>
      </trkpt>
      <trkpt lat="45.05362" lon="3.55129">
        <ele>628.84</ele>
        <time>2019-10-27T09:02:37Z</time>
      </trkpt>
      <trkpt lat="45.05355" lon="3.55127">
        <ele>629.8</ele>
        <time>2019-10-27T09:02:43Z</time>
      </trkpt>
      <trkpt lat="45.0534" lon="3.55126">
        <ele>635.57</ele>
        <time>2019-10-27T09:02:54Z</time>
      </trkpt>
      <trkpt lat="45.05336" lon="3.55125">
        <ele>636.53</ele>
        <time>2019-10-27T09:02:58Z</time>
      </trkpt>
      <trkpt lat="45.05322" lon="3.55118">
        <ele>642.3</ele>
        <time>2019-10-27T09:03:10Z</time>
      </trkpt>
      <trkpt lat="45.05314" lon="3.55116">
        <ele>644.7</ele>
        <time>2019-10-27T09:03:22Z</time>
      </trkpt>
      <trkpt lat="45.053" lon="3.55112">
        <ele>645.18</ele>
        <time>2019-10-27T09:03:35Z</time>
      </trkpt>
      <trkpt lat="45.0529" lon="3.55113">
        <ele>645.18</ele>
        <time>2019-10-27T09:03:48Z</time>
      </trkpt>
      <trkpt lat="45.05288" lon="3.55113">
        <ele>646.14</ele>
        <time>2019-10-27T09:03:52Z</time>
      </trkpt>
      <trkpt lat="45.05279" lon="3.55117">
        <ele>649.03</ele>
        <time>2019-10-27T09:04:02Z</time>
      </trkpt>
      <trkpt lat="45.0527" lon="3.55122">
        <ele>655.76</ele>
        <time>2019-10-27T09:04:14Z</time>
      </trkpt>
      <trkpt lat="45.05266" lon="3.55126">
        <ele>660.08</ele>
        <time>2019-10-27T09:04:25Z</time>
      </trkpt>
      <trkpt lat="45.05264" lon="3.55131">
        <ele>662.01</ele>
        <time>2019-10-27T09:04:32Z</time>
      </trkpt>
      <trkpt lat="45.05262" lon="3.55152">
        <ele>660.56</ele>
        <time>2019-10-27T09:04:44Z</time>
      </trkpt>
      <trkpt lat="45.05268" lon="3.55158">
        <ele>656.24</ele>
        <time>2019-10-27T09:04:54Z</time>
      </trkpt>
      <trkpt lat="45.05277" lon="3.55171">
        <ele>652.87</ele>
        <time>2019-10-27T09:05:05Z</time>
      </trkpt>
      <trkpt lat="45.05281" lon="3.55176">
        <ele>653.83</ele>
        <time>2019-10-27T09:05:19Z</time>
      </trkpt>
      <trkpt lat="45.05291" lon="3.55198">
        <ele>652.87</ele>
        <time>2019-10-27T09:05:35Z</time>
      </trkpt>
      <trkpt lat="45.05294" lon="3.55205">
        <ele>654.31</ele>
        <time>2019-10-27T09:05:41Z</time>
      </trkpt>
      <trkpt lat="45.053" lon="3.5523">
        <ele>658.16</ele>
        <time>2019-10-27T09:05:57Z</time>
      </trkpt>
      <trkpt lat="45.05301" lon="3.55246">
        <ele>664.41</ele>
        <time>2019-10-27T09:06:10Z</time>
      </trkpt>
      <trkpt lat="45.05301" lon="3.55247">
        <ele>665.37</ele>
        <time>2019-10-27T09:06:11Z</time>
      </trkpt>
      <trkpt lat="45.05299" lon="3.55251">
        <ele>666.81</ele>
        <time>2019-10-27T09:06:15Z</time>
      </trkpt>
      <trkpt lat="45.05294" lon="3.55269">
        <ele>670.18</ele>
        <time>2019-10-27T09:06:28Z</time>
      </trkpt>
      <trkpt lat="45.05285" lon="3.55293">
        <ele>664.89</ele>
        <time>2019-10-27T09:06:39Z</time>
      </trkpt>
      <trkpt lat="45.05278" lon="3.55305">
        <ele>670.18</ele>
        <time>2019-10-27T09:06:54Z</time>
      </trkpt>
      <trkpt lat="45.05272" lon="3.5532">
        <ele>674.5</ele>
        <time>2019-10-27T09:07:06Z</time>
      </trkpt>
      <trkpt lat="45.05269" lon="3.55339">
        <ele>670.18</ele>
        <time>2019-10-27T09:07:13Z</time>
      </trkpt>
      <trkpt lat="45.05265" lon="3.5535">
        <ele>667.29</ele>
        <time>2019-10-27T09:07:18Z</time>
      </trkpt>
      <trkpt lat="45.05261" lon="3.55369">
        <ele>666.81</ele>
        <time>2019-10-27T09:07:29Z</time>
      </trkpt>
      <trkpt lat="45.05261" lon="3.55371">
        <ele>667.29</ele>
        <time>2019-10-27T09:07:31Z</time>
      </trkpt>
      <trkpt lat="45.05259" lon="3.55377">
        <ele>668.73</ele>
        <time>2019-10-27T09:07:35Z</time>
      </trkpt>
      <trkpt lat="45.05258" lon="3.55379">
        <ele>669.22</ele>
        <time>2019-10-27T09:07:37Z</time>
      </trkpt>
      <trkpt lat="45.0525" lon="3.55393">
        <ele>666.33</ele>
        <time>2019-10-27T09:07:47Z</time>
      </trkpt>
      <trkpt lat="45.05256" lon="3.55402">
        <ele>666.33</ele>
        <time>2019-10-27T09:08:01Z</time>
      </trkpt>
      <trkpt lat="45.05262" lon="3.55415">
        <ele>668.73</ele>
        <time>2019-10-27T09:08:12Z</time>
      </trkpt>
      <trkpt lat="45.05265" lon="3.55418">
        <ele>669.7</ele>
        <time>2019-10-27T09:08:25Z</time>
      </trkpt>
      <trkpt lat="45.05265" lon="3.55419">
        <ele>669.7</ele>
        <time>2019-10-27T09:08:27Z</time>
      </trkpt>
      <trkpt lat="45.05266" lon="3.55438">
        <ele>674.98</ele>
        <time>2019-10-27T09:08:39Z</time>
      </trkpt>
      <trkpt lat="45.05266" lon="3.5545">
        <ele>678.83</ele>
        <time>2019-10-27T09:08:50Z</time>
      </trkpt>
      <trkpt lat="45.0526" lon="3.55459">
        <ele>684.12</ele>
        <time>2019-10-27T09:09:01Z</time>
      </trkpt>
      <trkpt lat="45.05259" lon="3.55464">
        <ele>686.04</ele>
        <time>2019-10-27T09:09:05Z</time>
      </trkpt>
      <trkpt lat="45.05257" lon="3.55475">
        <ele>691.33</ele>
        <time>2019-10-27T09:09:14Z</time>
      </trkpt>
      <trkpt lat="45.05249" lon="3.55491">
        <ele>695.17</ele>
        <time>2019-10-27T09:09:26Z</time>
      </trkpt>
      <trkpt lat="45.05238" lon="3.55496">
        <ele>703.34</ele>
        <time>2019-10-27T09:09:40Z</time>
      </trkpt>
      <trkpt lat="45.05232" lon="3.55498">
        <ele>705.75</ele>
        <time>2019-10-27T09:09:49Z</time>
      </trkpt>
      <trkpt lat="45.05222" lon="3.55497">
        <ele>710.55</ele>
        <time>2019-10-27T09:10:01Z</time>
      </trkpt>
      <trkpt lat="45.05211" lon="3.55495">
        <ele>712.47</ele>
        <time>2019-10-27T09:10:11Z</time>
      </trkpt>
      <trkpt lat="45.052" lon="3.55496">
        <ele>713.44</ele>
        <time>2019-10-27T09:10:20Z</time>
      </trkpt>
      <trkpt lat="45.0519" lon="3.55497">
        <ele>715.36</ele>
        <time>2019-10-27T09:10:30Z</time>
      </trkpt>
      <trkpt lat="45.05182" lon="3.55498">
        <ele>718.72</ele>
        <time>2019-10-27T09:10:42Z</time>
      </trkpt>
      <trkpt lat="45.05178" lon="3.55497">
        <ele>719.2</ele>
        <time>2019-10-27T09:10:52Z</time>
      </trkpt>
      <trkpt lat="45.05175" lon="3.55498">
        <ele>718.72</ele>
        <time>2019-10-27T09:11:02Z</time>
      </trkpt>
      <trkpt lat="45.0517" lon="3.55501">
        <ele>719.2</ele>
        <time>2019-10-27T09:11:15Z</time>
      </trkpt>
      <trkpt lat="45.05168" lon="3.55503">
        <ele>719.2</ele>
        <time>2019-10-27T09:11:23Z</time>
      </trkpt>
      <trkpt lat="45.05164" lon="3.55505">
        <ele>718.24</ele>
        <time>2019-10-27T09:11:32Z</time>
      </trkpt>
      <trkpt lat="45.05146" lon="3.55512">
        <ele>721.61</ele>
        <time>2019-10-27T09:11:47Z</time>
      </trkpt>
      <trkpt lat="45.05136" lon="3.55516">
        <ele>722.09</ele>
        <time>2019-10-27T09:11:58Z</time>
      </trkpt>
      <trkpt lat="45.05135" lon="3.55516">
        <ele>722.09</ele>
        <time>2019-10-27T09:12:03Z</time>
      </trkpt>
      <trkpt lat="45.05133" lon="3.5552">
        <ele>722.57</ele>
        <time>2019-10-27T09:12:11Z</time>
      </trkpt>
      <trkpt lat="45.05121" lon="3.55528">
        <ele>728.34</ele>
        <time>2019-10-27T09:12:20Z</time>
      </trkpt>
      <trkpt lat="45.0511" lon="3.5553">
        <ele>735.55</ele>
        <time>2019-10-27T09:12:32Z</time>
      </trkpt>
      <trkpt lat="45.05103" lon="3.55531">
        <ele>739.87</ele>
        <time>2019-10-27T09:12:42Z</time>
      </trkpt>
      <trkpt lat="45.051" lon="3.5553">
        <ele>740.83</ele>
        <time>2019-10-27T09:12:56Z</time>
      </trkpt>
      <trkpt lat="45.05088" lon="3.55529">
        <ele>744.68</ele>
        <time>2019-10-27T09:13:09Z</time>
      </trkpt>
      <trkpt lat="45.05084" lon="3.55528">
        <ele>746.6</ele>
        <time>2019-10-27T09:13:13Z</time>
      </trkpt>
      <trkpt lat="45.05072" lon="3.55528">
        <ele>748.04</ele>
        <time>2019-10-27T09:13:25Z</time>
      </trkpt>
      <trkpt lat="45.05061" lon="3.5553">
        <ele>749.49</ele>
        <time>2019-10-27T09:13:37Z</time>
      </trkpt>
      <trkpt lat="45.05058" lon="3.5553">
        <ele>748.52</ele>
        <time>2019-10-27T09:13:46Z</time>
      </trkpt>
      <trkpt lat="45.05054" lon="3.55532">
        <ele>745.64</ele>
        <time>2019-10-27T09:14:04Z</time>
      </trkpt>
      <trkpt lat="45.05052" lon="3.55534">
        <ele>744.2</ele>
        <time>2019-10-27T09:14:21Z</time>
      </trkpt>
      <trkpt lat="45.05049" lon="3.55528">
        <ele>745.16</ele>
        <time>2019-10-27T09:14:30Z</time>
      </trkpt>
      <trkpt lat="45.05045" lon="3.55522">
        <ele>746.6</ele>
        <time>2019-10-27T09:14:36Z</time>
      </trkpt>
      <trkpt lat="45.0503" lon="3.55508">
        <ele>751.89</ele>
        <time>2019-10-27T09:14:48Z</time>
      </trkpt>
      <trkpt lat="45.05025" lon="3.55501">
        <ele>755.25</ele>
        <time>2019-10-27T09:15:01Z</time>
      </trkpt>
      <trkpt lat="45.05017" lon="3.55497">
        <ele>758.62</ele>
        <time>2019-10-27T09:15:12Z</time>
      </trkpt>
      <trkpt lat="45.05016" lon="3.55495">
        <ele>760.06</ele>
        <time>2019-10-27T09:15:14Z</time>
      </trkpt>
      <trkpt lat="45.05008" lon="3.55484">
        <ele>769.67</ele>
        <time>2019-10-27T09:15:25Z</time>
      </trkpt>
      <trkpt lat="45.05003" lon="3.55478">
        <ele>770.15</ele>
        <time>2019-10-27T09:15:30Z</time>
      </trkpt>
      <trkpt lat="45.05001" lon="3.55471">
        <ele>772.56</ele>
        <time>2019-10-27T09:15:35Z</time>
      </trkpt>
      <trkpt lat="45.04999" lon="3.55468">
        <ele>773.04</ele>
        <time>2019-10-27T09:15:37Z</time>
      </trkpt>
      <trkpt lat="45.04996" lon="3.55451">
        <ele>774.96</ele>
        <time>2019-10-27T09:15:45Z</time>
      </trkpt>
      <trkpt lat="45.04994" lon="3.55448">
        <ele>775.44</ele>
        <time>2019-10-27T09:15:47Z</time>
      </trkpt>
      <trkpt lat="45.04984" lon="3.55428">
        <ele>776.4</ele>
        <time>2019-10-27T09:15:59Z</time>
      </trkpt>
      <trkpt lat="45.0497" lon="3.55409">
        <ele>776.88</ele>
        <time>2019-10-27T09:16:11Z</time>
      </trkpt>
      <trkpt lat="45.04958" lon="3.55392">
        <ele>776.88</ele>
        <time>2019-10-27T09:16:24Z</time>
      </trkpt>
      <trkpt lat="45.04945" lon="3.55386">
        <ele>775.44</ele>
        <time>2019-10-27T09:16:35Z</time>
      </trkpt>
      <trkpt lat="45.04932" lon="3.5539">
        <ele>777.36</ele>
        <time>2019-10-27T09:16:47Z</time>
      </trkpt>
      <trkpt lat="45.04926" lon="3.55393">
        <ele>779.29</ele>
        <time>2019-10-27T09:16:52Z</time>
      </trkpt>
      <trkpt lat="45.0492" lon="3.554">
        <ele>781.21</ele>
        <time>2019-10-27T09:17:01Z</time>
      </trkpt>
      <trkpt lat="45.04916" lon="3.55404">
        <ele>782.65</ele>
        <time>2019-10-27T09:17:06Z</time>
      </trkpt>
      <trkpt lat="45.0491" lon="3.55416">
        <ele>786.98</ele>
        <time>2019-10-27T09:17:18Z</time>
      </trkpt>
      <trkpt lat="45.04905" lon="3.5543">
        <ele>790.82</ele>
        <time>2019-10-27T09:17:29Z</time>
      </trkpt>
      <trkpt lat="45.04905" lon="3.55432">
        <ele>791.3</ele>
        <time>2019-10-27T09:17:30Z</time>
      </trkpt>
      <trkpt lat="45.049" lon="3.55444">
        <ele>798.03</ele>
        <time>2019-10-27T09:17:40Z</time>
      </trkpt>
      <trkpt lat="45.04896" lon="3.5546">
        <ele>807.16</ele>
        <time>2019-10-27T09:17:52Z</time>
      </trkpt>
      <trkpt lat="45.04894" lon="3.55464">
        <ele>808.61</ele>
        <time>2019-10-27T09:17:58Z</time>
      </trkpt>
      <trkpt lat="45.0489" lon="3.55474">
        <ele>809.57</ele>
        <time>2019-10-27T09:18:05Z</time>
      </trkpt>
      <trkpt lat="45.0489" lon="3.55483">
        <ele>811.01</ele>
        <time>2019-10-27T09:18:10Z</time>
      </trkpt>
      <trkpt lat="45.04884" lon="3.55496">
        <ele>812.45</ele>
        <time>2019-10-27T09:18:19Z</time>
      </trkpt>
      <trkpt lat="45.04876" lon="3.555">
        <ele>813.41</ele>
        <time>2019-10-27T09:18:27Z</time>
      </trkpt>
      <trkpt lat="45.04869" lon="3.55501">
        <ele>812.93</ele>
        <time>2019-10-27T09:18:33Z</time>
      </trkpt>
      <trkpt lat="45.04865" lon="3.55501">
        <ele>812.93</ele>
        <time>2019-10-27T09:18:37Z</time>
      </trkpt>
      <trkpt lat="45.04855" lon="3.55496">
        <ele>813.41</ele>
        <time>2019-10-27T09:18:48Z</time>
      </trkpt>
      <trkpt lat="45.04848" lon="3.55491">
        <ele>814.85</ele>
        <time>2019-10-27T09:18:55Z</time>
      </trkpt>
      <trkpt lat="45.04839" lon="3.55486">
        <ele>815.82</ele>
        <time>2019-10-27T09:19:03Z</time>
      </trkpt>
      <trkpt lat="45.04827" lon="3.55488">
        <ele>816.78</ele>
        <time>2019-10-27T09:19:14Z</time>
      </trkpt>
      <trkpt lat="45.04822" lon="3.55497">
        <ele>819.18</ele>
        <time>2019-10-27T09:19:22Z</time>
      </trkpt>
      <trkpt lat="45.04818" lon="3.55514">
        <ele>820.62</ele>
        <time>2019-10-27T09:19:33Z</time>
      </trkpt>
      <trkpt lat="45.04817" lon="3.55518">
        <ele>821.58</ele>
        <time>2019-10-27T09:19:36Z</time>
      </trkpt>
      <trkpt lat="45.04806" lon="3.55526">
        <ele>825.43</ele>
        <time>2019-10-27T09:19:49Z</time>
      </trkpt>
      <trkpt lat="45.04801" lon="3.55527">
        <ele>829.76</ele>
        <time>2019-10-27T09:20:01Z</time>
      </trkpt>
      <trkpt lat="45.048" lon="3.55534">
        <ele>827.83</ele>
        <time>2019-10-27T09:20:13Z</time>
      </trkpt>
      <trkpt lat="45.04797" lon="3.55535">
        <ele>826.39</ele>
        <time>2019-10-27T09:20:22Z</time>
      </trkpt>
      <trkpt lat="45.04797" lon="3.55535">
        <ele>825.91</ele>
        <time>2019-10-27T09:20:37Z</time>
      </trkpt>
      <trkpt lat="45.04797" lon="3.55536">
        <ele>825.43</ele>
        <time>2019-10-27T09:20:55Z</time>
      </trkpt>
      <trkpt lat="45.04797" lon="3.55536">
        <ele>824.95</ele>
        <time>2019-10-27T09:21:01Z</time>
      </trkpt>
      <trkpt lat="45.04793" lon="3.55538">
        <ele>821.58</ele>
        <time>2019-10-27T09:21:10Z</time>
      </trkpt>
      <trkpt lat="45.04791" lon="3.5554">
        <ele>819.18</ele>
        <time>2019-10-27T09:21:29Z</time>
      </trkpt>
      <trkpt lat="45.04791" lon="3.55541">
        <ele>817.74</ele>
        <time>2019-10-27T09:21:53Z</time>
      </trkpt>
      <trkpt lat="45.04791" lon="3.55541">
        <ele>817.74</ele>
        <time>2019-10-27T09:21:55Z</time>
      </trkpt>
      <trkpt lat="45.04791" lon="3.55561">
        <ele>818.7</ele>
        <time>2019-10-27T09:22:09Z</time>
      </trkpt>
      <trkpt lat="45.04798" lon="3.55584">
        <ele>817.26</ele>
        <time>2019-10-27T09:22:25Z</time>
      </trkpt>
      <trkpt lat="45.04806" lon="3.5561">
        <ele>820.14</ele>
        <time>2019-10-27T09:22:43Z</time>
      </trkpt>
      <trkpt lat="45.04816" lon="3.55634">
        <ele>822.55</ele>
        <time>2019-10-27T09:22:59Z</time>
      </trkpt>
      <trkpt lat="45.04826" lon="3.5566">
        <ele>824.47</ele>
        <time>2019-10-27T09:23:15Z</time>
      </trkpt>
      <trkpt lat="45.04835" lon="3.55684">
        <ele>827.83</ele>
        <time>2019-10-27T09:23:30Z</time>
      </trkpt>
      <trkpt lat="45.04844" lon="3.55706">
        <ele>826.87</ele>
        <time>2019-10-27T09:23:44Z</time>
      </trkpt>
      <trkpt lat="45.04856" lon="3.55729">
        <ele>825.43</ele>
        <time>2019-10-27T09:24:00Z</time>
      </trkpt>
      <trkpt lat="45.04863" lon="3.55745">
        <ele>828.79</ele>
        <time>2019-10-27T09:24:12Z</time>
      </trkpt>
      <trkpt lat="45.04866" lon="3.55762">
        <ele>838.41</ele>
        <time>2019-10-27T09:24:26Z</time>
      </trkpt>
      <trkpt lat="45.04866" lon="3.55766">
        <ele>840.81</ele>
        <time>2019-10-27T09:24:29Z</time>
      </trkpt>
      <trkpt lat="45.0487" lon="3.55779">
        <ele>848.98</ele>
        <time>2019-10-27T09:24:39Z</time>
      </trkpt>
      <trkpt lat="45.04874" lon="3.55797">
        <ele>852.83</ele>
        <time>2019-10-27T09:24:53Z</time>
      </trkpt>
      <trkpt lat="45.04875" lon="3.5582">
        <ele>853.79</ele>
        <time>2019-10-27T09:25:06Z</time>
      </trkpt>
      <trkpt lat="45.04875" lon="3.5583">
        <ele>851.38</ele>
        <time>2019-10-27T09:25:10Z</time>
      </trkpt>
      <trkpt lat="45.04874" lon="3.55845">
        <ele>846.1</ele>
        <time>2019-10-27T09:25:17Z</time>
      </trkpt>
      <trkpt lat="45.04869" lon="3.55862">
        <ele>839.85</ele>
        <time>2019-10-27T09:25:25Z</time>
      </trkpt>
      <trkpt lat="45.04851" lon="3.55872">
        <ele>834.08</ele>
        <time>2019-10-27T09:25:40Z</time>
      </trkpt>
      <trkpt lat="45.04835" lon="3.55871">
        <ele>831.2</ele>
        <time>2019-10-27T09:25:53Z</time>
      </trkpt>
      <trkpt lat="45.04822" lon="3.55864">
        <ele>831.2</ele>
        <time>2019-10-27T09:26:05Z</time>
      </trkpt>
      <trkpt lat="45.04816" lon="3.55861">
        <ele>831.68</ele>
        <time>2019-10-27T09:26:12Z</time>
      </trkpt>
      <trkpt lat="45.04802" lon="3.5585">
        <ele>832.16</ele>
        <time>2019-10-27T09:26:25Z</time>
      </trkpt>
      <trkpt lat="45.04788" lon="3.5584">
        <ele>833.12</ele>
        <time>2019-10-27T09:26:39Z</time>
      </trkpt>
      <trkpt lat="45.04778" lon="3.55831">
        <ele>837.93</ele>
        <time>2019-10-27T09:26:53Z</time>
      </trkpt>
      <trkpt lat="45.04764" lon="3.55817">
        <ele>840.33</ele>
        <time>2019-10-27T09:27:06Z</time>
      </trkpt>
      <trkpt lat="45.04752" lon="3.55801">
        <ele>842.25</ele>
        <time>2019-10-27T09:27:21Z</time>
      </trkpt>
      <trkpt lat="45.04751" lon="3.55801">
        <ele>842.73</ele>
        <time>2019-10-27T09:27:22Z</time>
      </trkpt>
      <trkpt lat="45.0474" lon="3.55786">
        <ele>845.14</ele>
        <time>2019-10-27T09:27:36Z</time>
      </trkpt>
      <trkpt lat="45.0473" lon="3.55771">
        <ele>849.94</ele>
        <time>2019-10-27T09:27:51Z</time>
      </trkpt>
      <trkpt lat="45.04725" lon="3.55764">
        <ele>851.87</ele>
        <time>2019-10-27T09:27:58Z</time>
      </trkpt>
      <trkpt lat="45.04718" lon="3.55749">
        <ele>857.63</ele>
        <time>2019-10-27T09:28:11Z</time>
      </trkpt>
      <trkpt lat="45.0471" lon="3.55729">
        <ele>862.92</ele>
        <time>2019-10-27T09:28:24Z</time>
      </trkpt>
      <trkpt lat="45.04701" lon="3.5571">
        <ele>862.92</ele>
        <time>2019-10-27T09:28:35Z</time>
      </trkpt>
      <trkpt lat="45.04696" lon="3.55701">
        <ele>861</ele>
        <time>2019-10-27T09:28:40Z</time>
      </trkpt>
      <trkpt lat="45.04685" lon="3.55682">
        <ele>857.63</ele>
        <time>2019-10-27T09:28:54Z</time>
      </trkpt>
      <trkpt lat="45.04683" lon="3.55677">
        <ele>857.15</ele>
        <time>2019-10-27T09:28:57Z</time>
      </trkpt>
      <trkpt lat="45.04677" lon="3.55659">
        <ele>859.08</ele>
        <time>2019-10-27T09:29:08Z</time>
      </trkpt>
      <trkpt lat="45.0467" lon="3.55636">
        <ele>863.4</ele>
        <time>2019-10-27T09:29:23Z</time>
      </trkpt>
      <trkpt lat="45.04669" lon="3.55635">
        <ele>863.4</ele>
        <time>2019-10-27T09:29:24Z</time>
      </trkpt>
      <trkpt lat="45.04668" lon="3.55619">
        <ele>867.25</ele>
        <time>2019-10-27T09:29:39Z</time>
      </trkpt>
      <trkpt lat="45.0467" lon="3.55608">
        <ele>871.09</ele>
        <time>2019-10-27T09:29:52Z</time>
      </trkpt>
      <trkpt lat="45.04672" lon="3.55591">
        <ele>872.53</ele>
        <time>2019-10-27T09:30:06Z</time>
      </trkpt>
      <trkpt lat="45.04673" lon="3.55576">
        <ele>875.9</ele>
        <time>2019-10-27T09:30:12Z</time>
      </trkpt>
      <trkpt lat="45.04672" lon="3.55567">
        <ele>878.78</ele>
        <time>2019-10-27T09:30:17Z</time>
      </trkpt>
      <trkpt lat="45.04666" lon="3.55552">
        <ele>879.74</ele>
        <time>2019-10-27T09:30:27Z</time>
      </trkpt>
      <trkpt lat="45.04667" lon="3.55549">
        <ele>880.22</ele>
        <time>2019-10-27T09:30:29Z</time>
      </trkpt>
      <trkpt lat="45.04661" lon="3.55528">
        <ele>880.71</ele>
        <time>2019-10-27T09:30:42Z</time>
      </trkpt>
      <trkpt lat="45.04657" lon="3.5551">
        <ele>881.67</ele>
        <time>2019-10-27T09:30:54Z</time>
      </trkpt>
      <trkpt lat="45.04652" lon="3.55492">
        <ele>886.47</ele>
        <time>2019-10-27T09:31:06Z</time>
      </trkpt>
      <trkpt lat="45.04643" lon="3.5547">
        <ele>886.95</ele>
        <time>2019-10-27T09:31:17Z</time>
      </trkpt>
      <trkpt lat="45.04627" lon="3.55455">
        <ele>886.47</ele>
        <time>2019-10-27T09:31:29Z</time>
      </trkpt>
      <trkpt lat="45.04607" lon="3.55439">
        <ele>880.22</ele>
        <time>2019-10-27T09:31:41Z</time>
      </trkpt>
      <trkpt lat="45.04601" lon="3.55434">
        <ele>880.71</ele>
        <time>2019-10-27T09:31:45Z</time>
      </trkpt>
      <trkpt lat="45.04593" lon="3.55432">
        <ele>880.22</ele>
        <time>2019-10-27T09:31:50Z</time>
      </trkpt>
      <trkpt lat="45.04569" lon="3.55442">
        <ele>869.65</ele>
        <time>2019-10-27T09:32:05Z</time>
      </trkpt>
      <trkpt lat="45.04543" lon="3.55455">
        <ele>867.25</ele>
        <time>2019-10-27T09:32:22Z</time>
      </trkpt>
      <trkpt lat="45.04531" lon="3.55456">
        <ele>868.21</ele>
        <time>2019-10-27T09:32:34Z</time>
      </trkpt>
      <trkpt lat="45.0453" lon="3.55456">
        <ele>869.17</ele>
        <time>2019-10-27T09:32:36Z</time>
      </trkpt>
      <trkpt lat="45.04525" lon="3.55448">
        <ele>871.57</ele>
        <time>2019-10-27T09:32:43Z</time>
      </trkpt>
      <trkpt lat="45.04521" lon="3.55443">
        <ele>874.46</ele>
        <time>2019-10-27T09:32:50Z</time>
      </trkpt>
      <trkpt lat="45.04512" lon="3.55425">
        <ele>875.9</ele>
        <time>2019-10-27T09:33:03Z</time>
      </trkpt>
      <trkpt lat="45.04503" lon="3.55406">
        <ele>878.3</ele>
        <time>2019-10-27T09:33:16Z</time>
      </trkpt>
      <trkpt lat="45.04503" lon="3.55405">
        <ele>878.78</ele>
        <time>2019-10-27T09:33:17Z</time>
      </trkpt>
      <trkpt lat="45.04496" lon="3.5539">
        <ele>879.26</ele>
        <time>2019-10-27T09:33:25Z</time>
      </trkpt>
      <trkpt lat="45.04478" lon="3.55365">
        <ele>879.74</ele>
        <time>2019-10-27T09:33:40Z</time>
      </trkpt>
      <trkpt lat="45.04462" lon="3.55354">
        <ele>878.78</ele>
        <time>2019-10-27T09:33:55Z</time>
      </trkpt>
      <trkpt lat="45.04451" lon="3.55351">
        <ele>884.55</ele>
        <time>2019-10-27T09:34:07Z</time>
      </trkpt>
      <trkpt lat="45.04439" lon="3.55346">
        <ele>893.2</ele>
        <time>2019-10-27T09:34:20Z</time>
      </trkpt>
      <trkpt lat="45.0443" lon="3.55339">
        <ele>898.01</ele>
        <time>2019-10-27T09:34:30Z</time>
      </trkpt>
      <trkpt lat="45.04412" lon="3.55327">
        <ele>903.3</ele>
        <time>2019-10-27T09:34:43Z</time>
      </trkpt>
      <trkpt lat="45.04411" lon="3.55326">
        <ele>904.26</ele>
        <time>2019-10-27T09:34:44Z</time>
      </trkpt>
      <trkpt lat="45.04408" lon="3.55324">
        <ele>904.74</ele>
        <time>2019-10-27T09:34:47Z</time>
      </trkpt>
      <trkpt lat="45.04399" lon="3.55319">
        <ele>908.1</ele>
        <time>2019-10-27T09:35:02Z</time>
      </trkpt>
      <trkpt lat="45.04395" lon="3.55316">
        <ele>910.51</ele>
        <time>2019-10-27T09:35:07Z</time>
      </trkpt>
      <trkpt lat="45.04391" lon="3.55314">
        <ele>911.95</ele>
        <time>2019-10-27T09:35:10Z</time>
      </trkpt>
      <trkpt lat="45.04375" lon="3.55308">
        <ele>914.35</ele>
        <time>2019-10-27T09:35:18Z</time>
      </trkpt>
      <trkpt lat="45.04359" lon="3.55306">
        <ele>913.87</ele>
        <time>2019-10-27T09:35:29Z</time>
      </trkpt>
      <trkpt lat="45.04349" lon="3.55305">
        <ele>916.27</ele>
        <time>2019-10-27T09:35:38Z</time>
      </trkpt>
      <trkpt lat="45.04347" lon="3.55306">
        <ele>916.27</ele>
        <time>2019-10-27T09:35:40Z</time>
      </trkpt>
      <trkpt lat="45.04342" lon="3.55309">
        <ele>917.24</ele>
        <time>2019-10-27T09:35:45Z</time>
      </trkpt>
      <trkpt lat="45.04328" lon="3.55308">
        <ele>917.72</ele>
        <time>2019-10-27T09:35:58Z</time>
      </trkpt>
      <trkpt lat="45.04318" lon="3.55305">
        <ele>924.45</ele>
        <time>2019-10-27T09:36:11Z</time>
      </trkpt>
      <trkpt lat="45.04313" lon="3.55304">
        <ele>930.69</ele>
        <time>2019-10-27T09:36:22Z</time>
      </trkpt>
      <trkpt lat="45.04306" lon="3.55302">
        <ele>934.54</ele>
        <time>2019-10-27T09:36:28Z</time>
      </trkpt>
      <trkpt lat="45.04281" lon="3.55296">
        <ele>934.06</ele>
        <time>2019-10-27T09:36:42Z</time>
      </trkpt>
      <trkpt lat="45.04274" lon="3.55296">
        <ele>934.54</ele>
        <time>2019-10-27T09:36:49Z</time>
      </trkpt>
      <trkpt lat="45.04258" lon="3.55289">
        <ele>934.06</ele>
        <time>2019-10-27T09:36:57Z</time>
      </trkpt>
      <trkpt lat="45.04253" lon="3.55287">
        <ele>934.54</ele>
        <time>2019-10-27T09:37:00Z</time>
      </trkpt>
      <trkpt lat="45.04234" lon="3.55285">
        <ele>929.73</ele>
        <time>2019-10-27T09:37:09Z</time>
      </trkpt>
      <trkpt lat="45.04225" lon="3.5529">
        <ele>928.77</ele>
        <time>2019-10-27T09:37:15Z</time>
      </trkpt>
      <trkpt lat="45.04214" lon="3.55299">
        <ele>929.73</ele>
        <time>2019-10-27T09:37:25Z</time>
      </trkpt>
      <trkpt lat="45.04203" lon="3.553">
        <ele>933.1</ele>
        <time>2019-10-27T09:37:36Z</time>
      </trkpt>
      <trkpt lat="45.04195" lon="3.55304">
        <ele>934.06</ele>
        <time>2019-10-27T09:37:43Z</time>
      </trkpt>
      <trkpt lat="45.04177" lon="3.55305">
        <ele>933.58</ele>
        <time>2019-10-27T09:37:59Z</time>
      </trkpt>
      <trkpt lat="45.04171" lon="3.55302">
        <ele>932.14</ele>
        <time>2019-10-27T09:38:13Z</time>
      </trkpt>
      <trkpt lat="45.04168" lon="3.55305">
        <ele>927.81</ele>
        <time>2019-10-27T09:38:27Z</time>
      </trkpt>
      <trkpt lat="45.04158" lon="3.55303">
        <ele>928.77</ele>
        <time>2019-10-27T09:38:40Z</time>
      </trkpt>
      <trkpt lat="45.04136" lon="3.55306">
        <ele>930.69</ele>
        <time>2019-10-27T09:38:57Z</time>
      </trkpt>
      <trkpt lat="45.04133" lon="3.55306">
        <ele>930.69</ele>
        <time>2019-10-27T09:38:59Z</time>
      </trkpt>
      <trkpt lat="45.04112" lon="3.55325">
        <ele>930.69</ele>
        <time>2019-10-27T09:39:15Z</time>
      </trkpt>
      <trkpt lat="45.04089" lon="3.55347">
        <ele>925.89</ele>
        <time>2019-10-27T09:39:33Z</time>
      </trkpt>
      <trkpt lat="45.04065" lon="3.55356">
        <ele>925.89</ele>
        <time>2019-10-27T09:39:51Z</time>
      </trkpt>
      <trkpt lat="45.04047" lon="3.55365">
        <ele>927.33</ele>
        <time>2019-10-27T09:40:08Z</time>
      </trkpt>
      <trkpt lat="45.04028" lon="3.55377">
        <ele>929.25</ele>
        <time>2019-10-27T09:40:25Z</time>
      </trkpt>
      <trkpt lat="45.04009" lon="3.55396">
        <ele>929.73</ele>
        <time>2019-10-27T09:40:41Z</time>
      </trkpt>
      <trkpt lat="45.03998" lon="3.55405">
        <ele>930.21</ele>
        <time>2019-10-27T09:40:50Z</time>
      </trkpt>
      <trkpt lat="45.03989" lon="3.5541">
        <ele>930.21</ele>
        <time>2019-10-27T09:40:58Z</time>
      </trkpt>
      <trkpt lat="45.03969" lon="3.55413">
        <ele>931.17</ele>
        <time>2019-10-27T09:41:15Z</time>
      </trkpt>
      <trkpt lat="45.0396" lon="3.55407">
        <ele>930.69</ele>
        <time>2019-10-27T09:41:27Z</time>
      </trkpt>
      <trkpt lat="45.03944" lon="3.55396">
        <ele>932.14</ele>
        <time>2019-10-27T09:41:42Z</time>
      </trkpt>
      <trkpt lat="45.03923" lon="3.55391">
        <ele>933.58</ele>
        <time>2019-10-27T09:41:58Z</time>
      </trkpt>
      <trkpt lat="45.03897" lon="3.55384">
        <ele>934.54</ele>
        <time>2019-10-27T09:42:17Z</time>
      </trkpt>
      <trkpt lat="45.03877" lon="3.5537">
        <ele>935.98</ele>
        <time>2019-10-27T09:42:34Z</time>
      </trkpt>
      <trkpt lat="45.03871" lon="3.55366">
        <ele>936.94</ele>
        <time>2019-10-27T09:42:40Z</time>
      </trkpt>
      <trkpt lat="45.03847" lon="3.55343">
        <ele>936.94</ele>
        <time>2019-10-27T09:43:01Z</time>
      </trkpt>
      <trkpt lat="45.03826" lon="3.55324">
        <ele>937.9</ele>
        <time>2019-10-27T09:43:19Z</time>
      </trkpt>
      <trkpt lat="45.03809" lon="3.55304">
        <ele>939.83</ele>
        <time>2019-10-27T09:43:36Z</time>
      </trkpt>
      <trkpt lat="45.0379" lon="3.55282">
        <ele>943.67</ele>
        <time>2019-10-27T09:43:55Z</time>
      </trkpt>
      <trkpt lat="45.03781" lon="3.55275">
        <ele>944.63</ele>
        <time>2019-10-27T09:44:03Z</time>
      </trkpt>
      <trkpt lat="45.03777" lon="3.55271">
        <ele>946.56</ele>
        <time>2019-10-27T09:44:08Z</time>
      </trkpt>
      <trkpt lat="45.03774" lon="3.55267">
        <ele>947.52</ele>
        <time>2019-10-27T09:44:11Z</time>
      </trkpt>
      <trkpt lat="45.03765" lon="3.55259">
        <ele>951.84</ele>
        <time>2019-10-27T09:44:23Z</time>
      </trkpt>
      <trkpt lat="45.03759" lon="3.55252">
        <ele>956.65</ele>
        <time>2019-10-27T09:44:32Z</time>
      </trkpt>
      <trkpt lat="45.03757" lon="3.5525">
        <ele>957.13</ele>
        <time>2019-10-27T09:44:34Z</time>
      </trkpt>
      <trkpt lat="45.03753" lon="3.55245">
        <ele>958.09</ele>
        <time>2019-10-27T09:44:38Z</time>
      </trkpt>
      <trkpt lat="45.03752" lon="3.5524">
        <ele>959.05</ele>
        <time>2019-10-27T09:44:41Z</time>
      </trkpt>
      <trkpt lat="45.03746" lon="3.55235">
        <ele>960.01</ele>
        <time>2019-10-27T09:44:45Z</time>
      </trkpt>
      <trkpt lat="45.03743" lon="3.55232">
        <ele>960.01</ele>
        <time>2019-10-27T09:44:47Z</time>
      </trkpt>
      <trkpt lat="45.0374" lon="3.5523">
        <ele>960.01</ele>
        <time>2019-10-27T09:44:50Z</time>
      </trkpt>
      <trkpt lat="45.03725" lon="3.55215">
        <ele>957.61</ele>
        <time>2019-10-27T09:45:03Z</time>
      </trkpt>
      <trkpt lat="45.03725" lon="3.55214">
        <ele>957.61</ele>
        <time>2019-10-27T09:45:04Z</time>
      </trkpt>
      <trkpt lat="45.03716" lon="3.55193">
        <ele>959.05</ele>
        <time>2019-10-27T09:45:17Z</time>
      </trkpt>
      <trkpt lat="45.03705" lon="3.55171">
        <ele>960.49</ele>
        <time>2019-10-27T09:45:31Z</time>
      </trkpt>
      <trkpt lat="45.03703" lon="3.55163">
        <ele>962.9</ele>
        <time>2019-10-27T09:45:35Z</time>
      </trkpt>
      <trkpt lat="45.03701" lon="3.55154">
        <ele>964.82</ele>
        <time>2019-10-27T09:45:41Z</time>
      </trkpt>
      <trkpt lat="45.037" lon="3.55146">
        <ele>965.3</ele>
        <time>2019-10-27T09:45:45Z</time>
      </trkpt>
      <trkpt lat="45.037" lon="3.55143">
        <ele>964.82</ele>
        <time>2019-10-27T09:45:47Z</time>
      </trkpt>
      <trkpt lat="45.03691" lon="3.55116">
        <ele>961.94</ele>
        <time>2019-10-27T09:46:02Z</time>
      </trkpt>
      <trkpt lat="45.03678" lon="3.551">
        <ele>959.05</ele>
        <time>2019-10-27T09:46:15Z</time>
      </trkpt>
      <trkpt lat="45.03653" lon="3.55092">
        <ele>954.25</ele>
        <time>2019-10-27T09:46:33Z</time>
      </trkpt>
      <trkpt lat="45.03626" lon="3.55091">
        <ele>947.52</ele>
        <time>2019-10-27T09:46:49Z</time>
      </trkpt>
      <trkpt lat="45.03599" lon="3.55082">
        <ele>944.15</ele>
        <time>2019-10-27T09:47:07Z</time>
      </trkpt>
      <trkpt lat="45.03584" lon="3.55058">
        <ele>944.15</ele>
        <time>2019-10-27T09:47:24Z</time>
      </trkpt>
      <trkpt lat="45.0358" lon="3.5503">
        <ele>945.59</ele>
        <time>2019-10-27T09:47:40Z</time>
      </trkpt>
      <trkpt lat="45.03576" lon="3.55003">
        <ele>946.56</ele>
        <time>2019-10-27T09:47:54Z</time>
      </trkpt>
      <trkpt lat="45.0357" lon="3.54976">
        <ele>947.04</ele>
        <time>2019-10-27T09:48:09Z</time>
      </trkpt>
      <trkpt lat="45.03564" lon="3.54948">
        <ele>948.96</ele>
        <time>2019-10-27T09:48:25Z</time>
      </trkpt>
      <trkpt lat="45.0356" lon="3.5491">
        <ele>951.36</ele>
        <time>2019-10-27T09:48:46Z</time>
      </trkpt>
      <trkpt lat="45.03554" lon="3.54868">
        <ele>952.32</ele>
        <time>2019-10-27T09:49:07Z</time>
      </trkpt>
      <trkpt lat="45.0355" lon="3.54836">
        <ele>951.84</ele>
        <time>2019-10-27T09:49:25Z</time>
      </trkpt>
      <trkpt lat="45.03542" lon="3.54797">
        <ele>951.36</ele>
        <time>2019-10-27T09:49:46Z</time>
      </trkpt>
      <trkpt lat="45.03531" lon="3.54769">
        <ele>950.88</ele>
        <time>2019-10-27T09:50:04Z</time>
      </trkpt>
      <trkpt lat="45.03511" lon="3.54742">
        <ele>948.96</ele>
        <time>2019-10-27T09:50:25Z</time>
      </trkpt>
      <trkpt lat="45.03487" lon="3.54743">
        <ele>950.88</ele>
        <time>2019-10-27T09:50:44Z</time>
      </trkpt>
      <trkpt lat="45.03469" lon="3.54762">
        <ele>952.32</ele>
        <time>2019-10-27T09:51:01Z</time>
      </trkpt>
      <trkpt lat="45.03454" lon="3.54785">
        <ele>953.77</ele>
        <time>2019-10-27T09:51:19Z</time>
      </trkpt>
      <trkpt lat="45.03445" lon="3.54804">
        <ele>955.21</ele>
        <time>2019-10-27T09:51:33Z</time>
      </trkpt>
      <trkpt lat="45.03432" lon="3.54819">
        <ele>958.09</ele>
        <time>2019-10-27T09:51:47Z</time>
      </trkpt>
      <trkpt lat="45.0342" lon="3.54836">
        <ele>949.92</ele>
        <time>2019-10-27T09:52:04Z</time>
      </trkpt>
      <trkpt lat="45.03416" lon="3.54834">
        <ele>947.04</ele>
        <time>2019-10-27T09:52:15Z</time>
      </trkpt>
      <trkpt lat="45.03414" lon="3.54833">
        <ele>946.56</ele>
        <time>2019-10-27T09:52:28Z</time>
      </trkpt>
      <trkpt lat="45.03412" lon="3.54831">
        <ele>948.48</ele>
        <time>2019-10-27T09:52:45Z</time>
      </trkpt>
      <trkpt lat="45.03411" lon="3.54832">
        <ele>948.96</ele>
        <time>2019-10-27T09:52:59Z</time>
      </trkpt>
      <trkpt lat="45.03413" lon="3.54837">
        <ele>950.88</ele>
        <time>2019-10-27T09:53:09Z</time>
      </trkpt>
      <trkpt lat="45.03414" lon="3.54837">
        <ele>949.44</ele>
        <time>2019-10-27T09:53:26Z</time>
      </trkpt>
      <trkpt lat="45.03414" lon="3.54836">
        <ele>948.48</ele>
        <time>2019-10-27T09:53:42Z</time>
      </trkpt>
      <trkpt lat="45.03413" lon="3.54837">
        <ele>948</ele>
        <time>2019-10-27T09:53:54Z</time>
      </trkpt>
      <trkpt lat="45.03413" lon="3.54835">
        <ele>947.52</ele>
        <time>2019-10-27T09:54:07Z</time>
      </trkpt>
      <trkpt lat="45.03413" lon="3.54833">
        <ele>947.52</ele>
        <time>2019-10-27T09:54:20Z</time>
      </trkpt>
      <trkpt lat="45.03413" lon="3.54833">
        <ele>948</ele>
        <time>2019-10-27T09:54:33Z</time>
      </trkpt>
      <trkpt lat="45.03411" lon="3.54831">
        <ele>947.52</ele>
        <time>2019-10-27T09:54:46Z</time>
      </trkpt>
      <trkpt lat="45.03411" lon="3.5483">
        <ele>947.52</ele>
        <time>2019-10-27T09:55:03Z</time>
      </trkpt>
      <trkpt lat="45.03411" lon="3.54829">
        <ele>947.04</ele>
        <time>2019-10-27T09:55:18Z</time>
      </trkpt>
      <trkpt lat="45.03412" lon="3.5483">
        <ele>947.04</ele>
        <time>2019-10-27T09:55:31Z</time>
      </trkpt>
      <trkpt lat="45.03412" lon="3.54829">
        <ele>947.52</ele>
        <time>2019-10-27T09:55:46Z</time>
      </trkpt>
      <trkpt lat="45.03412" lon="3.54829">
        <ele>947.52</ele>
        <time>2019-10-27T09:56:07Z</time>
      </trkpt>
      <trkpt lat="45.03409" lon="3.54831">
        <ele>948.48</ele>
        <time>2019-10-27T09:56:17Z</time>
      </trkpt>
      <trkpt lat="45.03409" lon="3.5483">
        <ele>948.48</ele>
        <time>2019-10-27T09:56:32Z</time>
      </trkpt>
      <trkpt lat="45.0341" lon="3.5483">
        <ele>949.44</ele>
        <time>2019-10-27T09:56:44Z</time>
      </trkpt>
      <trkpt lat="45.03411" lon="3.54829">
        <ele>948.96</ele>
        <time>2019-10-27T09:57:00Z</time>
      </trkpt>
      <trkpt lat="45.03409" lon="3.54832">
        <ele>948.96</ele>
        <time>2019-10-27T09:57:13Z</time>
      </trkpt>
      <trkpt lat="45.0341" lon="3.54831">
        <ele>948.48</ele>
        <time>2019-10-27T09:57:26Z</time>
      </trkpt>
      <trkpt lat="45.03407" lon="3.54829">
        <ele>948</ele>
        <time>2019-10-27T09:57:41Z</time>
      </trkpt>
      <trkpt lat="45.03406" lon="3.54828">
        <ele>948</ele>
        <time>2019-10-27T09:57:58Z</time>
      </trkpt>
      <trkpt lat="45.03406" lon="3.54827">
        <ele>948.48</ele>
        <time>2019-10-27T09:58:14Z</time>
      </trkpt>
      <trkpt lat="45.03405" lon="3.54829">
        <ele>948.48</ele>
        <time>2019-10-27T09:58:28Z</time>
      </trkpt>
      <trkpt lat="45.03405" lon="3.5483">
        <ele>948.96</ele>
        <time>2019-10-27T09:58:38Z</time>
      </trkpt>
      <trkpt lat="45.03406" lon="3.5483">
        <ele>949.44</ele>
        <time>2019-10-27T09:58:50Z</time>
      </trkpt>
      <trkpt lat="45.03407" lon="3.5483">
        <ele>949.44</ele>
        <time>2019-10-27T09:59:06Z</time>
      </trkpt>
      <trkpt lat="45.0341" lon="3.54832">
        <ele>950.4</ele>
        <time>2019-10-27T09:59:18Z</time>
      </trkpt>
      <trkpt lat="45.03411" lon="3.54832">
        <ele>950.4</ele>
        <time>2019-10-27T09:59:34Z</time>
      </trkpt>
      <trkpt lat="45.03412" lon="3.54832">
        <ele>950.88</ele>
        <time>2019-10-27T09:59:57Z</time>
      </trkpt>
      <trkpt lat="45.03411" lon="3.54832">
        <ele>951.36</ele>
        <time>2019-10-27T10:00:16Z</time>
      </trkpt>
      <trkpt lat="45.03411" lon="3.54833">
        <ele>951.84</ele>
        <time>2019-10-27T10:00:37Z</time>
      </trkpt>
      <trkpt lat="45.03412" lon="3.54833">
        <ele>950.88</ele>
        <time>2019-10-27T10:01:00Z</time>
      </trkpt>
      <trkpt lat="45.03412" lon="3.54834">
        <ele>950.88</ele>
        <time>2019-10-27T10:01:16Z</time>
      </trkpt>
      <trkpt lat="45.03411" lon="3.54834">
        <ele>950.88</ele>
        <time>2019-10-27T10:01:42Z</time>
      </trkpt>
      <trkpt lat="45.03411" lon="3.54834">
        <ele>950.88</ele>
        <time>2019-10-27T10:02:01Z</time>
      </trkpt>
      <trkpt lat="45.0341" lon="3.54834">
        <ele>950.88</ele>
        <time>2019-10-27T10:02:19Z</time>
      </trkpt>
      <trkpt lat="45.0341" lon="3.54834">
        <ele>950.4</ele>
        <time>2019-10-27T10:02:40Z</time>
      </trkpt>
      <trkpt lat="45.0341" lon="3.54834">
        <ele>949.92</ele>
        <time>2019-10-27T10:02:58Z</time>
      </trkpt>
      <trkpt lat="45.03411" lon="3.54834">
        <ele>949.44</ele>
        <time>2019-10-27T10:03:21Z</time>
      </trkpt>
      <trkpt lat="45.03411" lon="3.54834">
        <ele>950.4</ele>
        <time>2019-10-27T10:03:42Z</time>
      </trkpt>
      <trkpt lat="45.03411" lon="3.54834">
        <ele>950.88</ele>
        <time>2019-10-27T10:04:05Z</time>
      </trkpt>
      <trkpt lat="45.0341" lon="3.54834">
        <ele>950.4</ele>
        <time>2019-10-27T10:04:26Z</time>
      </trkpt>
      <trkpt lat="45.03411" lon="3.54834">
        <ele>950.88</ele>
        <time>2019-10-27T10:04:42Z</time>
      </trkpt>
      <trkpt lat="45.03411" lon="3.54834">
        <ele>950.88</ele>
        <time>2019-10-27T10:05:00Z</time>
      </trkpt>
      <trkpt lat="45.03411" lon="3.54834">
        <ele>950.88</ele>
        <time>2019-10-27T10:05:19Z</time>
      </trkpt>
      <trkpt lat="45.03411" lon="3.54834">
        <ele>951.36</ele>
        <time>2019-10-27T10:05:38Z</time>
      </trkpt>
      <trkpt lat="45.03412" lon="3.54834">
        <ele>951.36</ele>
        <time>2019-10-27T10:05:51Z</time>
      </trkpt>
      <trkpt lat="45.03412" lon="3.54834">
        <ele>951.36</ele>
        <time>2019-10-27T10:06:07Z</time>
      </trkpt>
      <trkpt lat="45.03412" lon="3.54833">
        <ele>951.84</ele>
        <time>2019-10-27T10:06:24Z</time>
      </trkpt>
      <trkpt lat="45.03412" lon="3.54833">
        <ele>951.84</ele>
        <time>2019-10-27T10:06:40Z</time>
      </trkpt>
      <trkpt lat="45.03411" lon="3.54832">
        <ele>951.36</ele>
        <time>2019-10-27T10:06:57Z</time>
      </trkpt>
      <trkpt lat="45.03411" lon="3.54832">
        <ele>951.36</ele>
        <time>2019-10-27T10:07:12Z</time>
      </trkpt>
      <trkpt lat="45.0341" lon="3.54833">
        <ele>951.36</ele>
        <time>2019-10-27T10:07:29Z</time>
      </trkpt>
      <trkpt lat="45.0341" lon="3.54834">
        <ele>950.4</ele>
        <time>2019-10-27T10:07:52Z</time>
      </trkpt>
      <trkpt lat="45.0341" lon="3.54833">
        <ele>950.4</ele>
        <time>2019-10-27T10:08:11Z</time>
      </trkpt>
      <trkpt lat="45.0341" lon="3.54833">
        <ele>950.88</ele>
        <time>2019-10-27T10:08:26Z</time>
      </trkpt>
      <trkpt lat="45.0341" lon="3.54833">
        <ele>951.36</ele>
        <time>2019-10-27T10:08:41Z</time>
      </trkpt>
      <trkpt lat="45.0341" lon="3.54832">
        <ele>951.36</ele>
        <time>2019-10-27T10:09:05Z</time>
      </trkpt>
      <trkpt lat="45.0341" lon="3.54832">
        <ele>950.88</ele>
        <time>2019-10-27T10:09:25Z</time>
      </trkpt>
      <trkpt lat="45.0341" lon="3.54832">
        <ele>950.88</ele>
        <time>2019-10-27T10:09:46Z</time>
      </trkpt>
      <trkpt lat="45.0341" lon="3.54833">
        <ele>950.88</ele>
        <time>2019-10-27T10:10:06Z</time>
      </trkpt>
      <trkpt lat="45.03411" lon="3.54832">
        <ele>950.88</ele>
        <time>2019-10-27T10:10:29Z</time>
      </trkpt>
      <trkpt lat="45.0341" lon="3.54833">
        <ele>950.88</ele>
        <time>2019-10-27T10:10:53Z</time>
      </trkpt>
      <trkpt lat="45.03411" lon="3.54834">
        <ele>950.88</ele>
        <time>2019-10-27T10:11:11Z</time>
      </trkpt>
      <trkpt lat="45.0341" lon="3.54834">
        <ele>951.36</ele>
        <time>2019-10-27T10:11:33Z</time>
      </trkpt>
      <trkpt lat="45.0341" lon="3.54834">
        <ele>951.84</ele>
        <time>2019-10-27T10:11:42Z</time>
      </trkpt>
      <trkpt lat="45.03407" lon="3.54833">
        <ele>951.36</ele>
        <time>2019-10-27T10:11:56Z</time>
      </trkpt>
      <trkpt lat="45.03404" lon="3.54832">
        <ele>950.4</ele>
        <time>2019-10-27T10:12:09Z</time>
      </trkpt>
      <trkpt lat="45.03404" lon="3.54832">
        <ele>951.36</ele>
        <time>2019-10-27T10:12:19Z</time>
      </trkpt>
      <trkpt lat="45.03404" lon="3.54833">
        <ele>951.36</ele>
        <time>2019-10-27T10:12:40Z</time>
      </trkpt>
      <trkpt lat="45.03404" lon="3.54833">
        <ele>951.36</ele>
        <time>2019-10-27T10:12:58Z</time>
      </trkpt>
      <trkpt lat="45.03404" lon="3.54832">
        <ele>950.88</ele>
        <time>2019-10-27T10:13:15Z</time>
      </trkpt>
      <trkpt lat="45.03404" lon="3.54833">
        <ele>950.4</ele>
        <time>2019-10-27T10:13:31Z</time>
      </trkpt>
      <trkpt lat="45.03404" lon="3.54833">
        <ele>949.92</ele>
        <time>2019-10-27T10:13:48Z</time>
      </trkpt>
      <trkpt lat="45.03404" lon="3.54833">
        <ele>949.92</ele>
        <time>2019-10-27T10:14:09Z</time>
      </trkpt>
      <trkpt lat="45.03404" lon="3.54833">
        <ele>950.4</ele>
        <time>2019-10-27T10:14:24Z</time>
      </trkpt>
      <trkpt lat="45.03403" lon="3.54833">
        <ele>950.4</ele>
        <time>2019-10-27T10:14:36Z</time>
      </trkpt>
      <trkpt lat="45.03403" lon="3.54833">
        <ele>950.88</ele>
        <time>2019-10-27T10:14:58Z</time>
      </trkpt>
      <trkpt lat="45.03403" lon="3.54833">
        <ele>950.88</ele>
        <time>2019-10-27T10:15:21Z</time>
      </trkpt>
      <trkpt lat="45.03404" lon="3.54832">
        <ele>950.88</ele>
        <time>2019-10-27T10:15:44Z</time>
      </trkpt>
      <trkpt lat="45.03403" lon="3.54833">
        <ele>950.88</ele>
        <time>2019-10-27T10:15:54Z</time>
      </trkpt>
      <trkpt lat="45.03404" lon="3.54833">
        <ele>950.88</ele>
        <time>2019-10-27T10:16:08Z</time>
      </trkpt>
      <trkpt lat="45.03404" lon="3.54834">
        <ele>950.88</ele>
        <time>2019-10-27T10:16:20Z</time>
      </trkpt>
      <trkpt lat="45.03404" lon="3.54834">
        <ele>950.88</ele>
        <time>2019-10-27T10:16:33Z</time>
      </trkpt>
      <trkpt lat="45.03407" lon="3.54843">
        <ele>951.84</ele>
        <time>2019-10-27T10:16:41Z</time>
      </trkpt>
      <trkpt lat="45.03406" lon="3.54854">
        <ele>950.88</ele>
        <time>2019-10-27T10:16:52Z</time>
      </trkpt>
      <trkpt lat="45.03405" lon="3.54857">
        <ele>950.88</ele>
        <time>2019-10-27T10:16:55Z</time>
      </trkpt>
      <trkpt lat="45.03401" lon="3.54866">
        <ele>949.44</ele>
        <time>2019-10-27T10:17:01Z</time>
      </trkpt>
      <trkpt lat="45.03401" lon="3.54869">
        <ele>948.96</ele>
        <time>2019-10-27T10:17:03Z</time>
      </trkpt>
      <trkpt lat="45.03396" lon="3.54897">
        <ele>948.48</ele>
        <time>2019-10-27T10:17:20Z</time>
      </trkpt>
      <trkpt lat="45.03395" lon="3.54915">
        <ele>948.48</ele>
        <time>2019-10-27T10:17:30Z</time>
      </trkpt>
      <trkpt lat="45.03398" lon="3.54937">
        <ele>948</ele>
        <time>2019-10-27T10:17:47Z</time>
      </trkpt>
      <trkpt lat="45.03399" lon="3.54938">
        <ele>947.04</ele>
        <time>2019-10-27T10:17:56Z</time>
      </trkpt>
      <trkpt lat="45.034" lon="3.54948">
        <ele>947.04</ele>
        <time>2019-10-27T10:18:03Z</time>
      </trkpt>
      <trkpt lat="45.03399" lon="3.5497">
        <ele>945.59</ele>
        <time>2019-10-27T10:18:16Z</time>
      </trkpt>
      <trkpt lat="45.03398" lon="3.54989">
        <ele>945.11</ele>
        <time>2019-10-27T10:18:28Z</time>
      </trkpt>
      <trkpt lat="45.03395" lon="3.55021">
        <ele>942.23</ele>
        <time>2019-10-27T10:18:45Z</time>
      </trkpt>
      <trkpt lat="45.03382" lon="3.55045">
        <ele>938.38</ele>
        <time>2019-10-27T10:19:01Z</time>
      </trkpt>
      <trkpt lat="45.0337" lon="3.55055">
        <ele>936.94</ele>
        <time>2019-10-27T10:19:11Z</time>
      </trkpt>
      <trkpt lat="45.03351" lon="3.5508">
        <ele>934.54</ele>
        <time>2019-10-27T10:19:30Z</time>
      </trkpt>
      <trkpt lat="45.03333" lon="3.55107">
        <ele>933.1</ele>
        <time>2019-10-27T10:19:49Z</time>
      </trkpt>
      <trkpt lat="45.03314" lon="3.55137">
        <ele>931.65</ele>
        <time>2019-10-27T10:20:10Z</time>
      </trkpt>
      <trkpt lat="45.03306" lon="3.55148">
        <ele>931.65</ele>
        <time>2019-10-27T10:20:19Z</time>
      </trkpt>
      <trkpt lat="45.03299" lon="3.55158">
        <ele>930.69</ele>
        <time>2019-10-27T10:20:26Z</time>
      </trkpt>
      <trkpt lat="45.03296" lon="3.55163">
        <ele>930.69</ele>
        <time>2019-10-27T10:20:30Z</time>
      </trkpt>
      <trkpt lat="45.03281" lon="3.55183">
        <ele>929.25</ele>
        <time>2019-10-27T10:20:46Z</time>
      </trkpt>
      <trkpt lat="45.03263" lon="3.55207">
        <ele>927.33</ele>
        <time>2019-10-27T10:21:04Z</time>
      </trkpt>
      <trkpt lat="45.03243" lon="3.5524">
        <ele>923.48</ele>
        <time>2019-10-27T10:21:26Z</time>
      </trkpt>
      <trkpt lat="45.03228" lon="3.55274">
        <ele>918.68</ele>
        <time>2019-10-27T10:21:47Z</time>
      </trkpt>
      <trkpt lat="45.03211" lon="3.55289">
        <ele>917.24</ele>
        <time>2019-10-27T10:22:03Z</time>
      </trkpt>
      <trkpt lat="45.03189" lon="3.55294">
        <ele>915.31</ele>
        <time>2019-10-27T10:22:19Z</time>
      </trkpt>
      <trkpt lat="45.03157" lon="3.55297">
        <ele>914.83</ele>
        <time>2019-10-27T10:22:41Z</time>
      </trkpt>
      <trkpt lat="45.03142" lon="3.55319">
        <ele>914.35</ele>
        <time>2019-10-27T10:22:57Z</time>
      </trkpt>
      <trkpt lat="45.03135" lon="3.5535">
        <ele>916.75</ele>
        <time>2019-10-27T10:23:14Z</time>
      </trkpt>
      <trkpt lat="45.03129" lon="3.55382">
        <ele>920.6</ele>
        <time>2019-10-27T10:23:32Z</time>
      </trkpt>
      <trkpt lat="45.0312" lon="3.55411">
        <ele>921.56</ele>
        <time>2019-10-27T10:23:48Z</time>
      </trkpt>
      <trkpt lat="45.03109" lon="3.55438">
        <ele>923.96</ele>
        <time>2019-10-27T10:24:05Z</time>
      </trkpt>
      <trkpt lat="45.03093" lon="3.55467">
        <ele>922.04</ele>
        <time>2019-10-27T10:24:23Z</time>
      </trkpt>
      <trkpt lat="45.03075" lon="3.5549">
        <ele>918.2</ele>
        <time>2019-10-27T10:24:40Z</time>
      </trkpt>
      <trkpt lat="45.0306" lon="3.55516">
        <ele>918.68</ele>
        <time>2019-10-27T10:24:57Z</time>
      </trkpt>
      <trkpt lat="45.03057" lon="3.55548">
        <ele>918.68</ele>
        <time>2019-10-27T10:25:14Z</time>
      </trkpt>
      <trkpt lat="45.03063" lon="3.55586">
        <ele>919.64</ele>
        <time>2019-10-27T10:25:35Z</time>
      </trkpt>
      <trkpt lat="45.03074" lon="3.5561">
        <ele>922.52</ele>
        <time>2019-10-27T10:25:51Z</time>
      </trkpt>
      <trkpt lat="45.03075" lon="3.55612">
        <ele>923.96</ele>
        <time>2019-10-27T10:25:53Z</time>
      </trkpt>
      <trkpt lat="45.03081" lon="3.55635">
        <ele>929.73</ele>
        <time>2019-10-27T10:26:08Z</time>
      </trkpt>
      <trkpt lat="45.03085" lon="3.55655">
        <ele>931.65</ele>
        <time>2019-10-27T10:26:18Z</time>
      </trkpt>
      <trkpt lat="45.03086" lon="3.55671">
        <ele>933.58</ele>
        <time>2019-10-27T10:26:26Z</time>
      </trkpt>
      <trkpt lat="45.03087" lon="3.55681">
        <ele>934.06</ele>
        <time>2019-10-27T10:26:31Z</time>
      </trkpt>
      <trkpt lat="45.03081" lon="3.55711">
        <ele>934.06</ele>
        <time>2019-10-27T10:26:48Z</time>
      </trkpt>
      <trkpt lat="45.03069" lon="3.55738">
        <ele>934.06</ele>
        <time>2019-10-27T10:27:04Z</time>
      </trkpt>
      <trkpt lat="45.0306" lon="3.5577">
        <ele>934.06</ele>
        <time>2019-10-27T10:27:22Z</time>
      </trkpt>
      <trkpt lat="45.0305" lon="3.55802">
        <ele>934.06</ele>
        <time>2019-10-27T10:27:40Z</time>
      </trkpt>
      <trkpt lat="45.03037" lon="3.55834">
        <ele>932.62</ele>
        <time>2019-10-27T10:27:59Z</time>
      </trkpt>
      <trkpt lat="45.03017" lon="3.55864">
        <ele>929.73</ele>
        <time>2019-10-27T10:28:19Z</time>
      </trkpt>
      <trkpt lat="45.02998" lon="3.55894">
        <ele>929.73</ele>
        <time>2019-10-27T10:28:39Z</time>
      </trkpt>
      <trkpt lat="45.02982" lon="3.55918">
        <ele>931.65</ele>
        <time>2019-10-27T10:28:56Z</time>
      </trkpt>
      <trkpt lat="45.02962" lon="3.55948">
        <ele>932.62</ele>
        <time>2019-10-27T10:29:17Z</time>
      </trkpt>
      <trkpt lat="45.02945" lon="3.55971">
        <ele>932.14</ele>
        <time>2019-10-27T10:29:34Z</time>
      </trkpt>
      <trkpt lat="45.02924" lon="3.56">
        <ele>931.17</ele>
        <time>2019-10-27T10:29:54Z</time>
      </trkpt>
      <trkpt lat="45.02907" lon="3.56024">
        <ele>930.21</ele>
        <time>2019-10-27T10:30:11Z</time>
      </trkpt>
      <trkpt lat="45.02889" lon="3.5605">
        <ele>929.73</ele>
        <time>2019-10-27T10:30:29Z</time>
      </trkpt>
      <trkpt lat="45.02873" lon="3.56083">
        <ele>930.21</ele>
        <time>2019-10-27T10:30:49Z</time>
      </trkpt>
      <trkpt lat="45.0286" lon="3.56109">
        <ele>930.69</ele>
        <time>2019-10-27T10:31:06Z</time>
      </trkpt>
      <trkpt lat="45.02848" lon="3.56141">
        <ele>931.65</ele>
        <time>2019-10-27T10:31:23Z</time>
      </trkpt>
      <trkpt lat="45.02832" lon="3.56172">
        <ele>931.17</ele>
        <time>2019-10-27T10:31:42Z</time>
      </trkpt>
      <trkpt lat="45.02816" lon="3.56199">
        <ele>931.65</ele>
        <time>2019-10-27T10:31:59Z</time>
      </trkpt>
      <trkpt lat="45.02797" lon="3.56233">
        <ele>930.69</ele>
        <time>2019-10-27T10:32:20Z</time>
      </trkpt>
      <trkpt lat="45.02783" lon="3.56257">
        <ele>930.21</ele>
        <time>2019-10-27T10:32:36Z</time>
      </trkpt>
      <trkpt lat="45.02779" lon="3.56303">
        <ele>931.17</ele>
        <time>2019-10-27T10:32:58Z</time>
      </trkpt>
      <trkpt lat="45.02782" lon="3.56356">
        <ele>930.69</ele>
        <time>2019-10-27T10:33:24Z</time>
      </trkpt>
      <trkpt lat="45.02782" lon="3.56366">
        <ele>931.65</ele>
        <time>2019-10-27T10:33:29Z</time>
      </trkpt>
      <trkpt lat="45.02781" lon="3.56404">
        <ele>932.62</ele>
        <time>2019-10-27T10:33:48Z</time>
      </trkpt>
      <trkpt lat="45.02778" lon="3.5644">
        <ele>933.58</ele>
        <time>2019-10-27T10:34:06Z</time>
      </trkpt>
      <trkpt lat="45.02775" lon="3.56481">
        <ele>934.54</ele>
        <time>2019-10-27T10:34:26Z</time>
      </trkpt>
      <trkpt lat="45.02772" lon="3.56523">
        <ele>935.02</ele>
        <time>2019-10-27T10:34:48Z</time>
      </trkpt>
      <trkpt lat="45.02774" lon="3.56565">
        <ele>934.54</ele>
        <time>2019-10-27T10:35:10Z</time>
      </trkpt>
      <trkpt lat="45.02777" lon="3.56606">
        <ele>935.02</ele>
        <time>2019-10-27T10:35:32Z</time>
      </trkpt>
      <trkpt lat="45.02768" lon="3.56647">
        <ele>931.65</ele>
        <time>2019-10-27T10:35:54Z</time>
      </trkpt>
      <trkpt lat="45.02754" lon="3.56688">
        <ele>928.29</ele>
        <time>2019-10-27T10:36:17Z</time>
      </trkpt>
      <trkpt lat="45.02743" lon="3.56717">
        <ele>926.37</ele>
        <time>2019-10-27T10:36:34Z</time>
      </trkpt>
      <trkpt lat="45.02733" lon="3.5675">
        <ele>924.45</ele>
        <time>2019-10-27T10:36:53Z</time>
      </trkpt>
      <trkpt lat="45.02725" lon="3.5679">
        <ele>922.04</ele>
        <time>2019-10-27T10:37:15Z</time>
      </trkpt>
      <trkpt lat="45.02725" lon="3.56817">
        <ele>920.12</ele>
        <time>2019-10-27T10:37:30Z</time>
      </trkpt>
      <trkpt lat="45.02737" lon="3.56847">
        <ele>916.75</ele>
        <time>2019-10-27T10:37:49Z</time>
      </trkpt>
      <trkpt lat="45.02743" lon="3.56876">
        <ele>913.87</ele>
        <time>2019-10-27T10:38:05Z</time>
      </trkpt>
      <trkpt lat="45.02743" lon="3.56877">
        <ele>914.35</ele>
        <time>2019-10-27T10:38:06Z</time>
      </trkpt>
      <trkpt lat="45.02746" lon="3.56907">
        <ele>919.16</ele>
        <time>2019-10-27T10:38:24Z</time>
      </trkpt>
      <trkpt lat="45.02752" lon="3.56932">
        <ele>921.08</ele>
        <time>2019-10-27T10:38:38Z</time>
      </trkpt>
      <trkpt lat="45.02758" lon="3.56957">
        <ele>922.52</ele>
        <time>2019-10-27T10:38:52Z</time>
      </trkpt>
      <trkpt lat="45.02769" lon="3.56984">
        <ele>920.6</ele>
        <time>2019-10-27T10:39:08Z</time>
      </trkpt>
      <trkpt lat="45.02772" lon="3.57003">
        <ele>920.6</ele>
        <time>2019-10-27T10:39:20Z</time>
      </trkpt>
      <trkpt lat="45.02772" lon="3.57016">
        <ele>916.75</ele>
        <time>2019-10-27T10:39:28Z</time>
      </trkpt>
      <trkpt lat="45.0277" lon="3.57031">
        <ele>912.91</ele>
        <time>2019-10-27T10:39:40Z</time>
      </trkpt>
      <trkpt lat="45.02768" lon="3.57038">
        <ele>913.39</ele>
        <time>2019-10-27T10:39:44Z</time>
      </trkpt>
      <trkpt lat="45.02763" lon="3.57054">
        <ele>911.95</ele>
        <time>2019-10-27T10:39:55Z</time>
      </trkpt>
      <trkpt lat="45.02758" lon="3.57069">
        <ele>910.03</ele>
        <time>2019-10-27T10:40:09Z</time>
      </trkpt>
      <trkpt lat="45.02762" lon="3.5707">
        <ele>910.03</ele>
        <time>2019-10-27T10:40:16Z</time>
      </trkpt>
      <trkpt lat="45.02777" lon="3.57087">
        <ele>907.14</ele>
        <time>2019-10-27T10:40:33Z</time>
      </trkpt>
      <trkpt lat="45.02778" lon="3.57113">
        <ele>907.14</ele>
        <time>2019-10-27T10:40:48Z</time>
      </trkpt>
      <trkpt lat="45.02776" lon="3.57124">
        <ele>905.22</ele>
        <time>2019-10-27T10:40:54Z</time>
      </trkpt>
      <trkpt lat="45.02771" lon="3.57133">
        <ele>905.22</ele>
        <time>2019-10-27T10:41:01Z</time>
      </trkpt>
      <trkpt lat="45.02767" lon="3.57141">
        <ele>903.78</ele>
        <time>2019-10-27T10:41:06Z</time>
      </trkpt>
      <trkpt lat="45.0275" lon="3.5714">
        <ele>904.74</ele>
        <time>2019-10-27T10:41:21Z</time>
      </trkpt>
      <trkpt lat="45.02743" lon="3.57141">
        <ele>904.74</ele>
        <time>2019-10-27T10:41:34Z</time>
      </trkpt>
      <trkpt lat="45.02742" lon="3.5714">
        <ele>904.74</ele>
        <time>2019-10-27T10:41:37Z</time>
      </trkpt>
      <trkpt lat="45.02723" lon="3.5715">
        <ele>903.78</ele>
        <time>2019-10-27T10:41:47Z</time>
      </trkpt>
      <trkpt lat="45.02706" lon="3.57167">
        <ele>904.26</ele>
        <time>2019-10-27T10:42:03Z</time>
      </trkpt>
      <trkpt lat="45.02699" lon="3.57175">
        <ele>904.26</ele>
        <time>2019-10-27T10:42:11Z</time>
      </trkpt>
      <trkpt lat="45.02681" lon="3.57193">
        <ele>903.3</ele>
        <time>2019-10-27T10:42:27Z</time>
      </trkpt>
      <trkpt lat="45.0268" lon="3.57194">
        <ele>903.3</ele>
        <time>2019-10-27T10:42:28Z</time>
      </trkpt>
      <trkpt lat="45.02673" lon="3.57201">
        <ele>902.33</ele>
        <time>2019-10-27T10:42:35Z</time>
      </trkpt>
      <trkpt lat="45.0267" lon="3.57208">
        <ele>900.89</ele>
        <time>2019-10-27T10:42:40Z</time>
      </trkpt>
      <trkpt lat="45.02659" lon="3.57229">
        <ele>899.45</ele>
        <time>2019-10-27T10:42:54Z</time>
      </trkpt>
      <trkpt lat="45.02655" lon="3.57239">
        <ele>899.45</ele>
        <time>2019-10-27T10:43:00Z</time>
      </trkpt>
      <trkpt lat="45.02652" lon="3.57266">
        <ele>898.49</ele>
        <time>2019-10-27T10:43:14Z</time>
      </trkpt>
      <trkpt lat="45.02651" lon="3.57285">
        <ele>898.01</ele>
        <time>2019-10-27T10:43:25Z</time>
      </trkpt>
      <trkpt lat="45.02643" lon="3.5732">
        <ele>895.61</ele>
        <time>2019-10-27T10:43:45Z</time>
      </trkpt>
      <trkpt lat="45.02636" lon="3.57341">
        <ele>893.2</ele>
        <time>2019-10-27T10:44:00Z</time>
      </trkpt>
      <trkpt lat="45.02623" lon="3.57365">
        <ele>891.28</ele>
        <time>2019-10-27T10:44:14Z</time>
      </trkpt>
      <trkpt lat="45.02621" lon="3.57369">
        <ele>890.8</ele>
        <time>2019-10-27T10:44:17Z</time>
      </trkpt>
      <trkpt lat="45.02616" lon="3.57377">
        <ele>889.84</ele>
        <time>2019-10-27T10:44:23Z</time>
      </trkpt>
      <trkpt lat="45.02609" lon="3.57401">
        <ele>891.28</ele>
        <time>2019-10-27T10:44:40Z</time>
      </trkpt>
      <trkpt lat="45.02605" lon="3.57406">
        <ele>891.28</ele>
        <time>2019-10-27T10:44:45Z</time>
      </trkpt>
      <trkpt lat="45.02596" lon="3.57424">
        <ele>889.36</ele>
        <time>2019-10-27T10:44:57Z</time>
      </trkpt>
      <trkpt lat="45.02582" lon="3.57437">
        <ele>886.47</ele>
        <time>2019-10-27T10:45:12Z</time>
      </trkpt>
      <trkpt lat="45.02563" lon="3.57432">
        <ele>884.55</ele>
        <time>2019-10-27T10:45:27Z</time>
      </trkpt>
      <trkpt lat="45.02538" lon="3.57425">
        <ele>880.71</ele>
        <time>2019-10-27T10:45:45Z</time>
      </trkpt>
      <trkpt lat="45.02521" lon="3.57431">
        <ele>880.71</ele>
        <time>2019-10-27T10:45:59Z</time>
      </trkpt>
      <trkpt lat="45.02518" lon="3.57434">
        <ele>880.71</ele>
        <time>2019-10-27T10:46:02Z</time>
      </trkpt>
      <trkpt lat="45.02515" lon="3.5744">
        <ele>881.19</ele>
        <time>2019-10-27T10:46:06Z</time>
      </trkpt>
      <trkpt lat="45.02511" lon="3.57445">
        <ele>882.15</ele>
        <time>2019-10-27T10:46:10Z</time>
      </trkpt>
      <trkpt lat="45.02499" lon="3.57467">
        <ele>882.63</ele>
        <time>2019-10-27T10:46:24Z</time>
      </trkpt>
      <trkpt lat="45.02493" lon="3.57474">
        <ele>884.07</ele>
        <time>2019-10-27T10:46:30Z</time>
      </trkpt>
      <trkpt lat="45.02478" lon="3.57496">
        <ele>884.55</ele>
        <time>2019-10-27T10:46:46Z</time>
      </trkpt>
      <trkpt lat="45.02462" lon="3.57504">
        <ele>881.19</ele>
        <time>2019-10-27T10:46:59Z</time>
      </trkpt>
      <trkpt lat="45.0246" lon="3.57507">
        <ele>880.71</ele>
        <time>2019-10-27T10:47:03Z</time>
      </trkpt>
      <trkpt lat="45.02451" lon="3.57515">
        <ele>879.26</ele>
        <time>2019-10-27T10:47:12Z</time>
      </trkpt>
      <trkpt lat="45.02444" lon="3.5752">
        <ele>878.3</ele>
        <time>2019-10-27T10:47:19Z</time>
      </trkpt>
      <trkpt lat="45.02433" lon="3.57526">
        <ele>877.34</ele>
        <time>2019-10-27T10:47:30Z</time>
      </trkpt>
      <trkpt lat="45.02429" lon="3.57529">
        <ele>877.82</ele>
        <time>2019-10-27T10:47:34Z</time>
      </trkpt>
      <trkpt lat="45.02424" lon="3.57531">
        <ele>877.34</ele>
        <time>2019-10-27T10:47:38Z</time>
      </trkpt>
      <trkpt lat="45.02419" lon="3.57534">
        <ele>876.86</ele>
        <time>2019-10-27T10:47:42Z</time>
      </trkpt>
      <trkpt lat="45.02401" lon="3.57538">
        <ele>873.98</ele>
        <time>2019-10-27T10:47:57Z</time>
      </trkpt>
      <trkpt lat="45.02385" lon="3.57534">
        <ele>870.13</ele>
        <time>2019-10-27T10:48:11Z</time>
      </trkpt>
      <trkpt lat="45.02372" lon="3.57526">
        <ele>869.65</ele>
        <time>2019-10-27T10:48:25Z</time>
      </trkpt>
      <trkpt lat="45.02352" lon="3.57519">
        <ele>868.69</ele>
        <time>2019-10-27T10:48:42Z</time>
      </trkpt>
      <trkpt lat="45.02338" lon="3.57523">
        <ele>865.8</ele>
        <time>2019-10-27T10:48:55Z</time>
      </trkpt>
      <trkpt lat="45.02335" lon="3.57524">
        <ele>866.29</ele>
        <time>2019-10-27T10:48:57Z</time>
      </trkpt>
      <trkpt lat="45.02326" lon="3.57531">
        <ele>867.25</ele>
        <time>2019-10-27T10:49:03Z</time>
      </trkpt>
      <trkpt lat="45.02306" lon="3.57533">
        <ele>865.32</ele>
        <time>2019-10-27T10:49:18Z</time>
      </trkpt>
      <trkpt lat="45.02286" lon="3.57525">
        <ele>864.36</ele>
        <time>2019-10-27T10:49:34Z</time>
      </trkpt>
      <trkpt lat="45.0228" lon="3.57522">
        <ele>866.77</ele>
        <time>2019-10-27T10:49:39Z</time>
      </trkpt>
      <trkpt lat="45.02275" lon="3.57517">
        <ele>867.25</ele>
        <time>2019-10-27T10:49:43Z</time>
      </trkpt>
      <trkpt lat="45.02266" lon="3.57505">
        <ele>867.73</ele>
        <time>2019-10-27T10:49:53Z</time>
      </trkpt>
      <trkpt lat="45.02252" lon="3.57488">
        <ele>867.25</ele>
        <time>2019-10-27T10:50:07Z</time>
      </trkpt>
      <trkpt lat="45.0224" lon="3.57457">
        <ele>865.8</ele>
        <time>2019-10-27T10:50:23Z</time>
      </trkpt>
      <trkpt lat="45.02234" lon="3.57436">
        <ele>864.84</ele>
        <time>2019-10-27T10:50:35Z</time>
      </trkpt>
      <trkpt lat="45.02232" lon="3.57426">
        <ele>865.32</ele>
        <time>2019-10-27T10:50:40Z</time>
      </trkpt>
      <trkpt lat="45.02224" lon="3.57398">
        <ele>864.84</ele>
        <time>2019-10-27T10:50:56Z</time>
      </trkpt>
      <trkpt lat="45.02206" lon="3.57379">
        <ele>862.44</ele>
        <time>2019-10-27T10:51:11Z</time>
      </trkpt>
      <trkpt lat="45.0219" lon="3.57361">
        <ele>861.96</ele>
        <time>2019-10-27T10:51:26Z</time>
      </trkpt>
      <trkpt lat="45.02168" lon="3.57339">
        <ele>861.48</ele>
        <time>2019-10-27T10:51:45Z</time>
      </trkpt>
      <trkpt lat="45.02152" lon="3.5732">
        <ele>860.52</ele>
        <time>2019-10-27T10:52:00Z</time>
      </trkpt>
      <trkpt lat="45.02144" lon="3.57307">
        <ele>861</ele>
        <time>2019-10-27T10:52:08Z</time>
      </trkpt>
      <trkpt lat="45.02141" lon="3.57299">
        <ele>860.04</ele>
        <time>2019-10-27T10:52:12Z</time>
      </trkpt>
      <trkpt lat="45.02122" lon="3.57271">
        <ele>858.59</ele>
        <time>2019-10-27T10:52:32Z</time>
      </trkpt>
      <trkpt lat="45.02107" lon="3.5725">
        <ele>855.71</ele>
        <time>2019-10-27T10:52:48Z</time>
      </trkpt>
      <trkpt lat="45.0209" lon="3.57239">
        <ele>852.35</ele>
        <time>2019-10-27T10:53:02Z</time>
      </trkpt>
      <trkpt lat="45.0207" lon="3.57238">
        <ele>849.94</ele>
        <time>2019-10-27T10:53:17Z</time>
      </trkpt>
      <trkpt lat="45.02047" lon="3.57231">
        <ele>849.46</ele>
        <time>2019-10-27T10:53:34Z</time>
      </trkpt>
      <trkpt lat="45.02034" lon="3.57231">
        <ele>849.94</ele>
        <time>2019-10-27T10:53:44Z</time>
      </trkpt>
      <trkpt lat="45.02031" lon="3.57232">
        <ele>849.94</ele>
        <time>2019-10-27T10:53:46Z</time>
      </trkpt>
      <trkpt lat="45.02027" lon="3.57229">
        <ele>850.9</ele>
        <time>2019-10-27T10:53:50Z</time>
      </trkpt>
      <trkpt lat="45.02022" lon="3.57234">
        <ele>849.94</ele>
        <time>2019-10-27T10:53:54Z</time>
      </trkpt>
      <trkpt lat="45.02008" lon="3.57256">
        <ele>848.02</ele>
        <time>2019-10-27T10:54:08Z</time>
      </trkpt>
      <trkpt lat="45.01995" lon="3.57287">
        <ele>841.77</ele>
        <time>2019-10-27T10:54:25Z</time>
      </trkpt>
      <trkpt lat="45.01985" lon="3.57295">
        <ele>841.29</ele>
        <time>2019-10-27T10:54:34Z</time>
      </trkpt>
      <trkpt lat="45.0198" lon="3.57298">
        <ele>841.29</ele>
        <time>2019-10-27T10:54:38Z</time>
      </trkpt>
      <trkpt lat="45.01952" lon="3.57306">
        <ele>841.29</ele>
        <time>2019-10-27T10:54:58Z</time>
      </trkpt>
      <trkpt lat="45.01936" lon="3.57311">
        <ele>840.81</ele>
        <time>2019-10-27T10:55:10Z</time>
      </trkpt>
      <trkpt lat="45.01925" lon="3.57321">
        <ele>844.18</ele>
        <time>2019-10-27T10:55:21Z</time>
      </trkpt>
      <trkpt lat="45.0191" lon="3.5734">
        <ele>850.9</ele>
        <time>2019-10-27T10:55:35Z</time>
      </trkpt>
      <trkpt lat="45.01903" lon="3.5735">
        <ele>855.71</ele>
        <time>2019-10-27T10:55:43Z</time>
      </trkpt>
      <trkpt lat="45.01899" lon="3.57353">
        <ele>856.67</ele>
        <time>2019-10-27T10:55:46Z</time>
      </trkpt>
      <trkpt lat="45.01885" lon="3.57372">
        <ele>860.04</ele>
        <time>2019-10-27T10:56:01Z</time>
      </trkpt>
      <trkpt lat="45.01871" lon="3.57388">
        <ele>855.23</ele>
        <time>2019-10-27T10:56:17Z</time>
      </trkpt>
      <trkpt lat="45.01856" lon="3.5739">
        <ele>856.19</ele>
        <time>2019-10-27T10:56:31Z</time>
      </trkpt>
      <trkpt lat="45.01835" lon="3.57395">
        <ele>858.11</ele>
        <time>2019-10-27T10:56:46Z</time>
      </trkpt>
      <trkpt lat="45.01821" lon="3.57394">
        <ele>859.56</ele>
        <time>2019-10-27T10:56:59Z</time>
      </trkpt>
      <trkpt lat="45.01814" lon="3.57392">
        <ele>860.52</ele>
        <time>2019-10-27T10:57:04Z</time>
      </trkpt>
      <trkpt lat="45.01807" lon="3.57371">
        <ele>860.52</ele>
        <time>2019-10-27T10:57:18Z</time>
      </trkpt>
      <trkpt lat="45.01804" lon="3.57338">
        <ele>860.04</ele>
        <time>2019-10-27T10:57:36Z</time>
      </trkpt>
      <trkpt lat="45.0179" lon="3.57323">
        <ele>860.04</ele>
        <time>2019-10-27T10:57:51Z</time>
      </trkpt>
      <trkpt lat="45.01778" lon="3.57331">
        <ele>862.44</ele>
        <time>2019-10-27T10:58:02Z</time>
      </trkpt>
      <trkpt lat="45.01775" lon="3.57333">
        <ele>862.44</ele>
        <time>2019-10-27T10:58:05Z</time>
      </trkpt>
      <trkpt lat="45.01769" lon="3.57339">
        <ele>864.36</ele>
        <time>2019-10-27T10:58:11Z</time>
      </trkpt>
      <trkpt lat="45.01754" lon="3.57352">
        <ele>867.73</ele>
        <time>2019-10-27T10:58:27Z</time>
      </trkpt>
      <trkpt lat="45.01748" lon="3.57359">
        <ele>869.65</ele>
        <time>2019-10-27T10:58:36Z</time>
      </trkpt>
      <trkpt lat="45.01733" lon="3.57372">
        <ele>873.01</ele>
        <time>2019-10-27T10:58:51Z</time>
      </trkpt>
      <trkpt lat="45.01726" lon="3.57378">
        <ele>874.46</ele>
        <time>2019-10-27T10:58:59Z</time>
      </trkpt>
      <trkpt lat="45.01722" lon="3.57382">
        <ele>874.94</ele>
        <time>2019-10-27T10:59:03Z</time>
      </trkpt>
      <trkpt lat="45.01708" lon="3.57394">
        <ele>876.38</ele>
        <time>2019-10-27T10:59:17Z</time>
      </trkpt>
      <trkpt lat="45.01704" lon="3.57397">
        <ele>877.82</ele>
        <time>2019-10-27T10:59:21Z</time>
      </trkpt>
      <trkpt lat="45.01687" lon="3.57413">
        <ele>879.74</ele>
        <time>2019-10-27T10:59:38Z</time>
      </trkpt>
      <trkpt lat="45.01668" lon="3.5743">
        <ele>881.19</ele>
        <time>2019-10-27T10:59:55Z</time>
      </trkpt>
      <trkpt lat="45.01649" lon="3.57444">
        <ele>883.59</ele>
        <time>2019-10-27T11:00:11Z</time>
      </trkpt>
      <trkpt lat="45.01626" lon="3.57465">
        <ele>885.03</ele>
        <time>2019-10-27T11:00:31Z</time>
      </trkpt>
      <trkpt lat="45.01611" lon="3.57481">
        <ele>885.51</ele>
        <time>2019-10-27T11:00:46Z</time>
      </trkpt>
      <trkpt lat="45.01607" lon="3.57486">
        <ele>886.47</ele>
        <time>2019-10-27T11:00:51Z</time>
      </trkpt>
      <trkpt lat="45.01599" lon="3.57497">
        <ele>890.32</ele>
        <time>2019-10-27T11:01:01Z</time>
      </trkpt>
      <trkpt lat="45.01594" lon="3.57504">
        <ele>891.28</ele>
        <time>2019-10-27T11:01:05Z</time>
      </trkpt>
      <trkpt lat="45.01591" lon="3.57507">
        <ele>891.28</ele>
        <time>2019-10-27T11:01:07Z</time>
      </trkpt>
      <trkpt lat="45.01582" lon="3.57518">
        <ele>891.28</ele>
        <time>2019-10-27T11:01:15Z</time>
      </trkpt>
      <trkpt lat="45.01569" lon="3.57536">
        <ele>890.32</ele>
        <time>2019-10-27T11:01:29Z</time>
      </trkpt>
      <trkpt lat="45.01556" lon="3.57554">
        <ele>889.36</ele>
        <time>2019-10-27T11:01:43Z</time>
      </trkpt>
      <trkpt lat="45.01544" lon="3.57575">
        <ele>887.43</ele>
        <time>2019-10-27T11:01:55Z</time>
      </trkpt>
      <trkpt lat="45.01541" lon="3.5758">
        <ele>886.95</ele>
        <time>2019-10-27T11:01:59Z</time>
      </trkpt>
      <trkpt lat="45.0152" lon="3.57591">
        <ele>884.07</ele>
        <time>2019-10-27T11:02:15Z</time>
      </trkpt>
      <trkpt lat="45.01514" lon="3.57595">
        <ele>883.11</ele>
        <time>2019-10-27T11:02:20Z</time>
      </trkpt>
      <trkpt lat="45.01509" lon="3.57597">
        <ele>883.11</ele>
        <time>2019-10-27T11:02:24Z</time>
      </trkpt>
      <trkpt lat="45.01492" lon="3.57601">
        <ele>886.47</ele>
        <time>2019-10-27T11:02:39Z</time>
      </trkpt>
      <trkpt lat="45.01474" lon="3.57616">
        <ele>889.84</ele>
        <time>2019-10-27T11:02:55Z</time>
      </trkpt>
      <trkpt lat="45.0146" lon="3.5763">
        <ele>890.32</ele>
        <time>2019-10-27T11:03:09Z</time>
      </trkpt>
      <trkpt lat="45.01443" lon="3.57641">
        <ele>895.61</ele>
        <time>2019-10-27T11:03:25Z</time>
      </trkpt>
      <trkpt lat="45.01426" lon="3.57651">
        <ele>900.41</ele>
        <time>2019-10-27T11:03:40Z</time>
      </trkpt>
      <trkpt lat="45.01416" lon="3.57657">
        <ele>902.33</ele>
        <time>2019-10-27T11:03:49Z</time>
      </trkpt>
      <trkpt lat="45.01407" lon="3.57662">
        <ele>904.26</ele>
        <time>2019-10-27T11:03:56Z</time>
      </trkpt>
      <trkpt lat="45.01395" lon="3.57674">
        <ele>912.43</ele>
        <time>2019-10-27T11:04:10Z</time>
      </trkpt>
      <trkpt lat="45.01379" lon="3.57692">
        <ele>919.16</ele>
        <time>2019-10-27T11:04:28Z</time>
      </trkpt>
      <trkpt lat="45.01369" lon="3.57701">
        <ele>920.6</ele>
        <time>2019-10-27T11:04:37Z</time>
      </trkpt>
      <trkpt lat="45.01364" lon="3.57705">
        <ele>921.08</ele>
        <time>2019-10-27T11:04:41Z</time>
      </trkpt>
      <trkpt lat="45.0135" lon="3.57724">
        <ele>923.48</ele>
        <time>2019-10-27T11:04:57Z</time>
      </trkpt>
      <trkpt lat="45.01341" lon="3.57737">
        <ele>925.89</ele>
        <time>2019-10-27T11:05:08Z</time>
      </trkpt>
      <trkpt lat="45.01337" lon="3.57742">
        <ele>926.85</ele>
        <time>2019-10-27T11:05:12Z</time>
      </trkpt>
      <trkpt lat="45.01328" lon="3.57756">
        <ele>930.69</ele>
        <time>2019-10-27T11:05:23Z</time>
      </trkpt>
      <trkpt lat="45.01322" lon="3.57768">
        <ele>931.65</ele>
        <time>2019-10-27T11:05:32Z</time>
      </trkpt>
      <trkpt lat="45.01318" lon="3.57774">
        <ele>932.62</ele>
        <time>2019-10-27T11:05:36Z</time>
      </trkpt>
      <trkpt lat="45.01303" lon="3.57798">
        <ele>934.06</ele>
        <time>2019-10-27T11:05:54Z</time>
      </trkpt>
      <trkpt lat="45.01284" lon="3.57814">
        <ele>935.02</ele>
        <time>2019-10-27T11:06:12Z</time>
      </trkpt>
      <trkpt lat="45.0128" lon="3.57819">
        <ele>935.5</ele>
        <time>2019-10-27T11:06:22Z</time>
      </trkpt>
      <trkpt lat="45.01266" lon="3.57836">
        <ele>937.42</ele>
        <time>2019-10-27T11:06:37Z</time>
      </trkpt>
      <trkpt lat="45.01254" lon="3.57861">
        <ele>936.46</ele>
        <time>2019-10-27T11:06:54Z</time>
      </trkpt>
      <trkpt lat="45.01254" lon="3.57861">
        <ele>935.98</ele>
        <time>2019-10-27T11:06:55Z</time>
      </trkpt>
      <trkpt lat="45.01255" lon="3.57863">
        <ele>935.5</ele>
        <time>2019-10-27T11:06:57Z</time>
      </trkpt>
      <trkpt lat="45.01257" lon="3.57873">
        <ele>935.98</ele>
        <time>2019-10-27T11:07:03Z</time>
      </trkpt>
      <trkpt lat="45.0127" lon="3.579">
        <ele>932.14</ele>
        <time>2019-10-27T11:07:20Z</time>
      </trkpt>
      <trkpt lat="45.01282" lon="3.57926">
        <ele>932.62</ele>
        <time>2019-10-27T11:07:38Z</time>
      </trkpt>
      <trkpt lat="45.01298" lon="3.57954">
        <ele>928.77</ele>
        <time>2019-10-27T11:07:55Z</time>
      </trkpt>
      <trkpt lat="45.01313" lon="3.57979">
        <ele>924.93</ele>
        <time>2019-10-27T11:08:11Z</time>
      </trkpt>
      <trkpt lat="45.01328" lon="3.58">
        <ele>922.52</ele>
        <time>2019-10-27T11:08:26Z</time>
      </trkpt>
      <trkpt lat="45.01334" lon="3.5801">
        <ele>922.52</ele>
        <time>2019-10-27T11:08:33Z</time>
      </trkpt>
      <trkpt lat="45.01341" lon="3.58024">
        <ele>921.08</ele>
        <time>2019-10-27T11:08:43Z</time>
      </trkpt>
      <trkpt lat="45.01353" lon="3.58047">
        <ele>922.04</ele>
        <time>2019-10-27T11:08:57Z</time>
      </trkpt>
      <trkpt lat="45.01364" lon="3.58073">
        <ele>918.68</ele>
        <time>2019-10-27T11:09:12Z</time>
      </trkpt>
      <trkpt lat="45.01379" lon="3.58099">
        <ele>918.68</ele>
        <time>2019-10-27T11:09:30Z</time>
      </trkpt>
      <trkpt lat="45.01396" lon="3.58124">
        <ele>916.27</ele>
        <time>2019-10-27T11:09:48Z</time>
      </trkpt>
      <trkpt lat="45.0141" lon="3.58149">
        <ele>916.75</ele>
        <time>2019-10-27T11:10:04Z</time>
      </trkpt>
      <trkpt lat="45.01429" lon="3.58173">
        <ele>914.35</ele>
        <time>2019-10-27T11:10:23Z</time>
      </trkpt>
      <trkpt lat="45.01443" lon="3.58195">
        <ele>912.91</ele>
        <time>2019-10-27T11:10:38Z</time>
      </trkpt>
      <trkpt lat="45.01455" lon="3.58223">
        <ele>912.43</ele>
        <time>2019-10-27T11:10:55Z</time>
      </trkpt>
      <trkpt lat="45.01458" lon="3.5823">
        <ele>912.43</ele>
        <time>2019-10-27T11:11:00Z</time>
      </trkpt>
      <trkpt lat="45.01461" lon="3.58237">
        <ele>912.43</ele>
        <time>2019-10-27T11:11:04Z</time>
      </trkpt>
      <trkpt lat="45.01462" lon="3.5824">
        <ele>912.91</ele>
        <time>2019-10-27T11:11:06Z</time>
      </trkpt>
      <trkpt lat="45.01464" lon="3.58247">
        <ele>912.91</ele>
        <time>2019-10-27T11:11:10Z</time>
      </trkpt>
      <trkpt lat="45.01474" lon="3.58275">
        <ele>912.91</ele>
        <time>2019-10-27T11:11:27Z</time>
      </trkpt>
      <trkpt lat="45.01484" lon="3.58288">
        <ele>911.95</ele>
        <time>2019-10-27T11:11:38Z</time>
      </trkpt>
      <trkpt lat="45.01502" lon="3.58295">
        <ele>913.87</ele>
        <time>2019-10-27T11:11:55Z</time>
      </trkpt>
      <trkpt lat="45.01519" lon="3.58303">
        <ele>917.24</ele>
        <time>2019-10-27T11:12:11Z</time>
      </trkpt>
      <trkpt lat="45.01539" lon="3.58316">
        <ele>917.72</ele>
        <time>2019-10-27T11:12:28Z</time>
      </trkpt>
      <trkpt lat="45.01544" lon="3.58318">
        <ele>916.27</ele>
        <time>2019-10-27T11:12:32Z</time>
      </trkpt>
      <trkpt lat="45.01564" lon="3.58334">
        <ele>914.83</ele>
        <time>2019-10-27T11:12:48Z</time>
      </trkpt>
      <trkpt lat="45.01587" lon="3.58349">
        <ele>913.87</ele>
        <time>2019-10-27T11:13:06Z</time>
      </trkpt>
      <trkpt lat="45.01613" lon="3.58357">
        <ele>907.62</ele>
        <time>2019-10-27T11:13:24Z</time>
      </trkpt>
      <trkpt lat="45.0162" lon="3.58362">
        <ele>905.22</ele>
        <time>2019-10-27T11:13:31Z</time>
      </trkpt>
      <trkpt lat="45.01617" lon="3.58383">
        <ele>898.49</ele>
        <time>2019-10-27T11:13:47Z</time>
      </trkpt>
      <trkpt lat="45.01602" lon="3.58396">
        <ele>895.12</ele>
        <time>2019-10-27T11:14:00Z</time>
      </trkpt>
      <trkpt lat="45.01581" lon="3.58406">
        <ele>891.76</ele>
        <time>2019-10-27T11:14:16Z</time>
      </trkpt>
      <trkpt lat="45.01571" lon="3.58414">
        <ele>890.32</ele>
        <time>2019-10-27T11:14:25Z</time>
      </trkpt>
      <trkpt lat="45.01573" lon="3.58422">
        <ele>889.84</ele>
        <time>2019-10-27T11:14:30Z</time>
      </trkpt>
      <trkpt lat="45.01592" lon="3.58437">
        <ele>889.36</ele>
        <time>2019-10-27T11:14:48Z</time>
      </trkpt>
      <trkpt lat="45.0161" lon="3.58453">
        <ele>887.43</ele>
        <time>2019-10-27T11:15:05Z</time>
      </trkpt>
      <trkpt lat="45.01629" lon="3.58466">
        <ele>885.51</ele>
        <time>2019-10-27T11:15:20Z</time>
      </trkpt>
      <trkpt lat="45.01642" lon="3.58464">
        <ele>883.59</ele>
        <time>2019-10-27T11:15:30Z</time>
      </trkpt>
      <trkpt lat="45.0165" lon="3.58456">
        <ele>881.19</ele>
        <time>2019-10-27T11:15:37Z</time>
      </trkpt>
      <trkpt lat="45.01667" lon="3.58444">
        <ele>880.22</ele>
        <time>2019-10-27T11:15:53Z</time>
      </trkpt>
      <trkpt lat="45.01679" lon="3.58435">
        <ele>876.38</ele>
        <time>2019-10-27T11:16:06Z</time>
      </trkpt>
      <trkpt lat="45.01691" lon="3.58429">
        <ele>872.05</ele>
        <time>2019-10-27T11:16:16Z</time>
      </trkpt>
      <trkpt lat="45.01703" lon="3.58418">
        <ele>869.17</ele>
        <time>2019-10-27T11:16:27Z</time>
      </trkpt>
      <trkpt lat="45.01706" lon="3.58413">
        <ele>868.21</ele>
        <time>2019-10-27T11:16:32Z</time>
      </trkpt>
      <trkpt lat="45.01716" lon="3.58398">
        <ele>863.4</ele>
        <time>2019-10-27T11:16:47Z</time>
      </trkpt>
      <trkpt lat="45.01723" lon="3.58392">
        <ele>861.96</ele>
        <time>2019-10-27T11:16:56Z</time>
      </trkpt>
      <trkpt lat="45.01725" lon="3.5839">
        <ele>861.96</ele>
        <time>2019-10-27T11:16:58Z</time>
      </trkpt>
      <trkpt lat="45.0173" lon="3.58385">
        <ele>861.96</ele>
        <time>2019-10-27T11:17:04Z</time>
      </trkpt>
      <trkpt lat="45.01736" lon="3.58382">
        <ele>862.92</ele>
        <time>2019-10-27T11:17:09Z</time>
      </trkpt>
      <trkpt lat="45.01752" lon="3.5837">
        <ele>865.32</ele>
        <time>2019-10-27T11:17:22Z</time>
      </trkpt>
      <trkpt lat="45.01767" lon="3.58357">
        <ele>866.29</ele>
        <time>2019-10-27T11:17:38Z</time>
      </trkpt>
      <trkpt lat="45.01783" lon="3.58344">
        <ele>865.32</ele>
        <time>2019-10-27T11:17:53Z</time>
      </trkpt>
      <trkpt lat="45.01795" lon="3.58339">
        <ele>862.92</ele>
        <time>2019-10-27T11:18:07Z</time>
      </trkpt>
      <trkpt lat="45.01804" lon="3.58338">
        <ele>859.08</ele>
        <time>2019-10-27T11:18:17Z</time>
      </trkpt>
      <trkpt lat="45.01815" lon="3.58335">
        <ele>855.71</ele>
        <time>2019-10-27T11:18:30Z</time>
      </trkpt>
      <trkpt lat="45.01816" lon="3.58335">
        <ele>855.23</ele>
        <time>2019-10-27T11:18:31Z</time>
      </trkpt>
      <trkpt lat="45.01819" lon="3.58333">
        <ele>854.75</ele>
        <time>2019-10-27T11:18:36Z</time>
      </trkpt>
      <trkpt lat="45.01821" lon="3.58333">
        <ele>854.75</ele>
        <time>2019-10-27T11:18:38Z</time>
      </trkpt>
      <trkpt lat="45.01833" lon="3.58326">
        <ele>852.35</ele>
        <time>2019-10-27T11:18:51Z</time>
      </trkpt>
      <trkpt lat="45.01835" lon="3.58325">
        <ele>851.38</ele>
        <time>2019-10-27T11:18:54Z</time>
      </trkpt>
      <trkpt lat="45.01841" lon="3.58319">
        <ele>849.94</ele>
        <time>2019-10-27T11:19:03Z</time>
      </trkpt>
      <trkpt lat="45.01845" lon="3.58316">
        <ele>848.98</ele>
        <time>2019-10-27T11:19:08Z</time>
      </trkpt>
      <trkpt lat="45.01854" lon="3.58309">
        <ele>846.58</ele>
        <time>2019-10-27T11:19:18Z</time>
      </trkpt>
      <trkpt lat="45.01858" lon="3.58304">
        <ele>846.1</ele>
        <time>2019-10-27T11:19:23Z</time>
      </trkpt>
      <trkpt lat="45.01862" lon="3.583">
        <ele>845.62</ele>
        <time>2019-10-27T11:19:28Z</time>
      </trkpt>
      <trkpt lat="45.01875" lon="3.58293">
        <ele>838.41</ele>
        <time>2019-10-27T11:19:41Z</time>
      </trkpt>
      <trkpt lat="45.01878" lon="3.58293">
        <ele>836.48</ele>
        <time>2019-10-27T11:19:44Z</time>
      </trkpt>
      <trkpt lat="45.01879" lon="3.58294">
        <ele>836</ele>
        <time>2019-10-27T11:19:46Z</time>
      </trkpt>
      <trkpt lat="45.0188" lon="3.58312">
        <ele>834.56</ele>
        <time>2019-10-27T11:19:58Z</time>
      </trkpt>
      <trkpt lat="45.01878" lon="3.58324">
        <ele>833.12</ele>
        <time>2019-10-27T11:20:06Z</time>
      </trkpt>
      <trkpt lat="45.01876" lon="3.5835">
        <ele>831.2</ele>
        <time>2019-10-27T11:20:22Z</time>
      </trkpt>
      <trkpt lat="45.01877" lon="3.58367">
        <ele>835.52</ele>
        <time>2019-10-27T11:20:34Z</time>
      </trkpt>
      <trkpt lat="45.01876" lon="3.58379">
        <ele>835.52</ele>
        <time>2019-10-27T11:20:40Z</time>
      </trkpt>
      <trkpt lat="45.01873" lon="3.58398">
        <ele>833.6</ele>
        <time>2019-10-27T11:20:54Z</time>
      </trkpt>
      <trkpt lat="45.01869" lon="3.58417">
        <ele>833.6</ele>
        <time>2019-10-27T11:21:07Z</time>
      </trkpt>
      <trkpt lat="45.01877" lon="3.58435">
        <ele>842.25</ele>
        <time>2019-10-27T11:21:22Z</time>
      </trkpt>
      <trkpt lat="45.01878" lon="3.58436">
        <ele>842.73</ele>
        <time>2019-10-27T11:21:23Z</time>
      </trkpt>
      <trkpt lat="45.01889" lon="3.58453">
        <ele>844.18</ele>
        <time>2019-10-27T11:21:38Z</time>
      </trkpt>
      <trkpt lat="45.01893" lon="3.58468">
        <ele>837.93</ele>
        <time>2019-10-27T11:21:51Z</time>
      </trkpt>
      <trkpt lat="45.01895" lon="3.58476">
        <ele>836</ele>
        <time>2019-10-27T11:22:05Z</time>
      </trkpt>
      <trkpt lat="45.01897" lon="3.58486">
        <ele>834.08</ele>
        <time>2019-10-27T11:22:18Z</time>
      </trkpt>
      <trkpt lat="45.01898" lon="3.58491">
        <ele>833.6</ele>
        <time>2019-10-27T11:22:20Z</time>
      </trkpt>
      <trkpt lat="45.01897" lon="3.58498">
        <ele>833.12</ele>
        <time>2019-10-27T11:22:23Z</time>
      </trkpt>
      <trkpt lat="45.01898" lon="3.58517">
        <ele>834.56</ele>
        <time>2019-10-27T11:22:36Z</time>
      </trkpt>
      <trkpt lat="45.01897" lon="3.58521">
        <ele>833.6</ele>
        <time>2019-10-27T11:22:43Z</time>
      </trkpt>
      <trkpt lat="45.01896" lon="3.58534">
        <ele>833.6</ele>
        <time>2019-10-27T11:22:51Z</time>
      </trkpt>
      <trkpt lat="45.0189" lon="3.58554">
        <ele>832.16</ele>
        <time>2019-10-27T11:23:02Z</time>
      </trkpt>
      <trkpt lat="45.01885" lon="3.58577">
        <ele>823.99</ele>
        <time>2019-10-27T11:23:17Z</time>
      </trkpt>
      <trkpt lat="45.01881" lon="3.58582">
        <ele>823.99</ele>
        <time>2019-10-27T11:23:21Z</time>
      </trkpt>
      <trkpt lat="45.01878" lon="3.58589">
        <ele>823.51</ele>
        <time>2019-10-27T11:23:25Z</time>
      </trkpt>
      <trkpt lat="45.01874" lon="3.58603">
        <ele>819.18</ele>
        <time>2019-10-27T11:23:39Z</time>
      </trkpt>
      <trkpt lat="45.01871" lon="3.58614">
        <ele>819.66</ele>
        <time>2019-10-27T11:23:52Z</time>
      </trkpt>
      <trkpt lat="45.01864" lon="3.58632">
        <ele>820.62</ele>
        <time>2019-10-27T11:24:06Z</time>
      </trkpt>
      <trkpt lat="45.01861" lon="3.58638">
        <ele>820.14</ele>
        <time>2019-10-27T11:24:11Z</time>
      </trkpt>
      <trkpt lat="45.01852" lon="3.58662">
        <ele>823.51</ele>
        <time>2019-10-27T11:24:23Z</time>
      </trkpt>
      <trkpt lat="45.01852" lon="3.58684">
        <ele>825.91</ele>
        <time>2019-10-27T11:24:35Z</time>
      </trkpt>
      <trkpt lat="45.01849" lon="3.5869">
        <ele>823.03</ele>
        <time>2019-10-27T11:24:40Z</time>
      </trkpt>
      <trkpt lat="45.01849" lon="3.58705">
        <ele>821.58</ele>
        <time>2019-10-27T11:24:46Z</time>
      </trkpt>
      <trkpt lat="45.0185" lon="3.5873">
        <ele>817.74</ele>
        <time>2019-10-27T11:24:59Z</time>
      </trkpt>
      <trkpt lat="45.01847" lon="3.58745">
        <ele>818.22</ele>
        <time>2019-10-27T11:25:12Z</time>
      </trkpt>
      <trkpt lat="45.01846" lon="3.58762">
        <ele>817.74</ele>
        <time>2019-10-27T11:25:22Z</time>
      </trkpt>
      <trkpt lat="45.01845" lon="3.58782">
        <ele>818.7</ele>
        <time>2019-10-27T11:25:36Z</time>
      </trkpt>
      <trkpt lat="45.01845" lon="3.58802">
        <ele>818.22</ele>
        <time>2019-10-27T11:25:50Z</time>
      </trkpt>
      <trkpt lat="45.0185" lon="3.58823">
        <ele>811.97</ele>
        <time>2019-10-27T11:26:05Z</time>
      </trkpt>
      <trkpt lat="45.01851" lon="3.58839">
        <ele>813.41</ele>
        <time>2019-10-27T11:26:17Z</time>
      </trkpt>
      <trkpt lat="45.01847" lon="3.58851">
        <ele>810.53</ele>
        <time>2019-10-27T11:26:25Z</time>
      </trkpt>
      <trkpt lat="45.01844" lon="3.58869">
        <ele>810.53</ele>
        <time>2019-10-27T11:26:35Z</time>
      </trkpt>
      <trkpt lat="45.01844" lon="3.58888">
        <ele>803.8</ele>
        <time>2019-10-27T11:26:43Z</time>
      </trkpt>
      <trkpt lat="45.01846" lon="3.589">
        <ele>798.99</ele>
        <time>2019-10-27T11:26:48Z</time>
      </trkpt>
      <trkpt lat="45.01852" lon="3.58923">
        <ele>787.94</ele>
        <time>2019-10-27T11:27:02Z</time>
      </trkpt>
      <trkpt lat="45.0186" lon="3.58932">
        <ele>780.25</ele>
        <time>2019-10-27T11:27:10Z</time>
      </trkpt>
      <trkpt lat="45.01865" lon="3.58938">
        <ele>777.84</ele>
        <time>2019-10-27T11:27:15Z</time>
      </trkpt>
      <trkpt lat="45.01873" lon="3.58957">
        <ele>761.5</ele>
        <time>2019-10-27T11:27:27Z</time>
      </trkpt>
      <trkpt lat="45.01876" lon="3.58961">
        <ele>757.18</ele>
        <time>2019-10-27T11:27:32Z</time>
      </trkpt>
      <trkpt lat="45.01886" lon="3.58967">
        <ele>747.56</ele>
        <time>2019-10-27T11:27:44Z</time>
      </trkpt>
      <trkpt lat="45.01891" lon="3.58972">
        <ele>744.68</ele>
        <time>2019-10-27T11:27:51Z</time>
      </trkpt>
      <trkpt lat="45.01899" lon="3.58978">
        <ele>740.35</ele>
        <time>2019-10-27T11:28:00Z</time>
      </trkpt>
      <trkpt lat="45.01903" lon="3.58982">
        <ele>737.95</ele>
        <time>2019-10-27T11:28:06Z</time>
      </trkpt>
      <trkpt lat="45.01916" lon="3.58984">
        <ele>732.66</ele>
        <time>2019-10-27T11:28:18Z</time>
      </trkpt>
      <trkpt lat="45.0193" lon="3.58989">
        <ele>731.22</ele>
        <time>2019-10-27T11:28:30Z</time>
      </trkpt>
      <trkpt lat="45.01947" lon="3.58994">
        <ele>727.86</ele>
        <time>2019-10-27T11:28:44Z</time>
      </trkpt>
      <trkpt lat="45.01949" lon="3.58992">
        <ele>727.86</ele>
        <time>2019-10-27T11:28:46Z</time>
      </trkpt>
      <trkpt lat="45.01957" lon="3.58988">
        <ele>724.97</ele>
        <time>2019-10-27T11:28:55Z</time>
      </trkpt>
      <trkpt lat="45.01966" lon="3.58986">
        <ele>722.57</ele>
        <time>2019-10-27T11:29:04Z</time>
      </trkpt>
      <trkpt lat="45.01971" lon="3.58984">
        <ele>721.61</ele>
        <time>2019-10-27T11:29:09Z</time>
      </trkpt>
      <trkpt lat="45.01982" lon="3.58979">
        <ele>717.76</ele>
        <time>2019-10-27T11:29:22Z</time>
      </trkpt>
      <trkpt lat="45.01984" lon="3.58976">
        <ele>719.68</ele>
        <time>2019-10-27T11:29:35Z</time>
      </trkpt>
      <trkpt lat="45.01984" lon="3.58975">
        <ele>719.68</ele>
        <time>2019-10-27T11:30:02Z</time>
      </trkpt>
      <trkpt lat="45.01988" lon="3.58975">
        <ele>718.72</ele>
        <time>2019-10-27T11:30:14Z</time>
      </trkpt>
      <trkpt lat="45.0199" lon="3.58976">
        <ele>718.72</ele>
        <time>2019-10-27T11:30:27Z</time>
      </trkpt>
      <trkpt lat="45.0199" lon="3.58977">
        <ele>718.72</ele>
        <time>2019-10-27T11:30:52Z</time>
      </trkpt>
      <trkpt lat="45.01992" lon="3.58977">
        <ele>718.72</ele>
        <time>2019-10-27T11:31:07Z</time>
      </trkpt>
      <trkpt lat="45.01994" lon="3.58978">
        <ele>718.24</ele>
        <time>2019-10-27T11:31:23Z</time>
      </trkpt>
      <trkpt lat="45.0201" lon="3.58972">
        <ele>717.28</ele>
        <time>2019-10-27T11:31:37Z</time>
      </trkpt>
      <trkpt lat="45.02033" lon="3.58975">
        <ele>713.44</ele>
        <time>2019-10-27T11:31:52Z</time>
      </trkpt>
      <trkpt lat="45.0205" lon="3.58975">
        <ele>708.63</ele>
        <time>2019-10-27T11:32:05Z</time>
      </trkpt>
      <trkpt lat="45.02054" lon="3.58974">
        <ele>708.63</ele>
        <time>2019-10-27T11:32:09Z</time>
      </trkpt>
      <trkpt lat="45.02077" lon="3.58977">
        <ele>704.3</ele>
        <time>2019-10-27T11:32:26Z</time>
      </trkpt>
      <trkpt lat="45.0208" lon="3.58977">
        <ele>704.3</ele>
        <time>2019-10-27T11:32:28Z</time>
      </trkpt>
      <trkpt lat="45.02083" lon="3.58977">
        <ele>704.78</ele>
        <time>2019-10-27T11:32:31Z</time>
      </trkpt>
      <trkpt lat="45.02093" lon="3.58981">
        <ele>703.82</ele>
        <time>2019-10-27T11:32:38Z</time>
      </trkpt>
      <trkpt lat="45.02107" lon="3.58984">
        <ele>699.5</ele>
        <time>2019-10-27T11:32:51Z</time>
      </trkpt>
      <trkpt lat="45.02121" lon="3.58978">
        <ele>698.53</ele>
        <time>2019-10-27T11:33:05Z</time>
      </trkpt>
      <trkpt lat="45.02128" lon="3.58972">
        <ele>696.13</ele>
        <time>2019-10-27T11:33:14Z</time>
      </trkpt>
      <trkpt lat="45.02141" lon="3.58969">
        <ele>693.25</ele>
        <time>2019-10-27T11:33:25Z</time>
      </trkpt>
      <trkpt lat="45.02155" lon="3.58971">
        <ele>692.29</ele>
        <time>2019-10-27T11:33:39Z</time>
      </trkpt>
      <trkpt lat="45.02165" lon="3.58959">
        <ele>691.81</ele>
        <time>2019-10-27T11:33:52Z</time>
      </trkpt>
      <trkpt lat="45.02185" lon="3.5895">
        <ele>687</ele>
        <time>2019-10-27T11:34:07Z</time>
      </trkpt>
      <trkpt lat="45.02204" lon="3.58943">
        <ele>686.04</ele>
        <time>2019-10-27T11:34:20Z</time>
      </trkpt>
      <trkpt lat="45.02221" lon="3.58938">
        <ele>687.96</ele>
        <time>2019-10-27T11:34:35Z</time>
      </trkpt>
      <trkpt lat="45.02236" lon="3.58928">
        <ele>687</ele>
        <time>2019-10-27T11:34:51Z</time>
      </trkpt>
      <trkpt lat="45.02246" lon="3.58919">
        <ele>688.44</ele>
        <time>2019-10-27T11:35:04Z</time>
      </trkpt>
      <trkpt lat="45.02251" lon="3.58895">
        <ele>688.44</ele>
        <time>2019-10-27T11:35:19Z</time>
      </trkpt>
      <trkpt lat="45.02255" lon="3.58879">
        <ele>684.6</ele>
        <time>2019-10-27T11:35:32Z</time>
      </trkpt>
      <trkpt lat="45.02255" lon="3.58856">
        <ele>683.15</ele>
        <time>2019-10-27T11:35:45Z</time>
      </trkpt>
      <trkpt lat="45.02258" lon="3.58843">
        <ele>678.83</ele>
        <time>2019-10-27T11:35:56Z</time>
      </trkpt>
      <trkpt lat="45.0226" lon="3.58842">
        <ele>677.39</ele>
        <time>2019-10-27T11:36:04Z</time>
      </trkpt>
      <trkpt lat="45.0227" lon="3.58849">
        <ele>676.42</ele>
        <time>2019-10-27T11:36:14Z</time>
      </trkpt>
      <trkpt lat="45.02279" lon="3.58854">
        <ele>675.46</ele>
        <time>2019-10-27T11:36:26Z</time>
      </trkpt>
      <trkpt lat="45.02294" lon="3.58866">
        <ele>671.62</ele>
        <time>2019-10-27T11:36:43Z</time>
      </trkpt>
      <trkpt lat="45.02297" lon="3.58871">
        <ele>670.18</ele>
        <time>2019-10-27T11:36:48Z</time>
      </trkpt>
      <trkpt lat="45.02306" lon="3.58876">
        <ele>667.29</ele>
        <time>2019-10-27T11:37:02Z</time>
      </trkpt>
      <trkpt lat="45.02319" lon="3.58884">
        <ele>662.97</ele>
        <time>2019-10-27T11:37:11Z</time>
      </trkpt>
      <trkpt lat="45.02322" lon="3.58891">
        <ele>660.08</ele>
        <time>2019-10-27T11:37:15Z</time>
      </trkpt>
      <trkpt lat="45.02327" lon="3.58911">
        <ele>653.83</ele>
        <time>2019-10-27T11:37:29Z</time>
      </trkpt>
      <trkpt lat="45.02327" lon="3.58913">
        <ele>653.35</ele>
        <time>2019-10-27T11:37:30Z</time>
      </trkpt>
      <trkpt lat="45.0232" lon="3.58936">
        <ele>649.99</ele>
        <time>2019-10-27T11:37:41Z</time>
      </trkpt>
      <trkpt lat="45.02315" lon="3.58955">
        <ele>650.95</ele>
        <time>2019-10-27T11:37:52Z</time>
      </trkpt>
      <trkpt lat="45.02314" lon="3.58959">
        <ele>651.43</ele>
        <time>2019-10-27T11:37:55Z</time>
      </trkpt>
      <trkpt lat="45.02314" lon="3.58966">
        <ele>651.91</ele>
        <time>2019-10-27T11:37:59Z</time>
      </trkpt>
      <trkpt lat="45.02313" lon="3.58977">
        <ele>652.39</ele>
        <time>2019-10-27T11:38:05Z</time>
      </trkpt>
      <trkpt lat="45.02311" lon="3.58988">
        <ele>651.43</ele>
        <time>2019-10-27T11:38:09Z</time>
      </trkpt>
      <trkpt lat="45.02309" lon="3.59014">
        <ele>649.99</ele>
        <time>2019-10-27T11:38:21Z</time>
      </trkpt>
      <trkpt lat="45.02311" lon="3.5903">
        <ele>648.55</ele>
        <time>2019-10-27T11:38:33Z</time>
      </trkpt>
      <trkpt lat="45.02316" lon="3.59043">
        <ele>647.1</ele>
        <time>2019-10-27T11:38:44Z</time>
      </trkpt>
      <trkpt lat="45.02325" lon="3.59053">
        <ele>644.22</ele>
        <time>2019-10-27T11:38:56Z</time>
      </trkpt>
      <trkpt lat="45.02331" lon="3.59062">
        <ele>640.38</ele>
        <time>2019-10-27T11:39:08Z</time>
      </trkpt>
      <trkpt lat="45.02333" lon="3.59067">
        <ele>638.93</ele>
        <time>2019-10-27T11:39:12Z</time>
      </trkpt>
      <trkpt lat="45.02345" lon="3.59073">
        <ele>634.61</ele>
        <time>2019-10-27T11:39:23Z</time>
      </trkpt>
      <trkpt lat="45.02359" lon="3.59077">
        <ele>627.88</ele>
        <time>2019-10-27T11:39:35Z</time>
      </trkpt>
      <trkpt lat="45.02362" lon="3.59077">
        <ele>628.36</ele>
        <time>2019-10-27T11:39:40Z</time>
      </trkpt>
      <trkpt lat="45.02377" lon="3.59077">
        <ele>624.03</ele>
        <time>2019-10-27T11:39:54Z</time>
      </trkpt>
      <trkpt lat="45.02392" lon="3.59082">
        <ele>615.38</ele>
        <time>2019-10-27T11:40:08Z</time>
      </trkpt>
      <trkpt lat="45.02395" lon="3.59085">
        <ele>613.94</ele>
        <time>2019-10-27T11:40:11Z</time>
      </trkpt>
      <trkpt lat="45.02399" lon="3.59091">
        <ele>611.54</ele>
        <time>2019-10-27T11:40:15Z</time>
      </trkpt>
      <trkpt lat="45.02402" lon="3.59094">
        <ele>609.13</ele>
        <time>2019-10-27T11:40:18Z</time>
      </trkpt>
      <trkpt lat="45.02414" lon="3.5911">
        <ele>606.25</ele>
        <time>2019-10-27T11:40:32Z</time>
      </trkpt>
      <trkpt lat="45.02427" lon="3.59124">
        <ele>607.21</ele>
        <time>2019-10-27T11:40:45Z</time>
      </trkpt>
      <trkpt lat="45.02436" lon="3.59139">
        <ele>604.33</ele>
        <time>2019-10-27T11:41:01Z</time>
      </trkpt>
      <trkpt lat="45.02439" lon="3.5914">
        <ele>602.88</ele>
        <time>2019-10-27T11:41:04Z</time>
      </trkpt>
      <trkpt lat="45.02443" lon="3.5914">
        <ele>599.52</ele>
        <time>2019-10-27T11:41:10Z</time>
      </trkpt>
      <trkpt lat="45.02448" lon="3.59136">
        <ele>595.19</ele>
        <time>2019-10-27T11:41:21Z</time>
      </trkpt>
      <trkpt lat="45.02449" lon="3.59136">
        <ele>594.23</ele>
        <time>2019-10-27T11:41:23Z</time>
      </trkpt>
      <trkpt lat="45.02453" lon="3.59133">
        <ele>592.79</ele>
        <time>2019-10-27T11:41:27Z</time>
      </trkpt>
      <trkpt lat="45.02466" lon="3.59136">
        <ele>588.95</ele>
        <time>2019-10-27T11:41:37Z</time>
      </trkpt>
      <trkpt lat="45.02482" lon="3.59148">
        <ele>586.06</ele>
        <time>2019-10-27T11:41:52Z</time>
      </trkpt>
      <trkpt lat="45.02484" lon="3.59149">
        <ele>585.58</ele>
        <time>2019-10-27T11:41:53Z</time>
      </trkpt>
      <trkpt lat="45.02498" lon="3.59151">
        <ele>578.37</ele>
        <time>2019-10-27T11:42:07Z</time>
      </trkpt>
      <trkpt lat="45.02505" lon="3.59156">
        <ele>575.49</ele>
        <time>2019-10-27T11:42:20Z</time>
      </trkpt>
      <trkpt lat="45.02505" lon="3.59156">
        <ele>574.53</ele>
        <time>2019-10-27T11:42:46Z</time>
      </trkpt>
      <trkpt lat="45.02505" lon="3.59158">
        <ele>573.56</ele>
        <time>2019-10-27T11:42:58Z</time>
      </trkpt>
      <trkpt lat="45.02505" lon="3.59162">
        <ele>573.08</ele>
        <time>2019-10-27T11:43:05Z</time>
      </trkpt>
      <trkpt lat="45.025" lon="3.59175">
        <ele>571.64</ele>
        <time>2019-10-27T11:43:18Z</time>
      </trkpt>
      <trkpt lat="45.02501" lon="3.59185">
        <ele>568.76</ele>
        <time>2019-10-27T11:43:29Z</time>
      </trkpt>
      <trkpt lat="45.02504" lon="3.59178">
        <ele>567.32</ele>
        <time>2019-10-27T11:43:36Z</time>
      </trkpt>
      <trkpt lat="45.02508" lon="3.59175">
        <ele>566.83</ele>
        <time>2019-10-27T11:43:40Z</time>
      </trkpt>
      <trkpt lat="45.02523" lon="3.59161">
        <ele>563.47</ele>
        <time>2019-10-27T11:43:56Z</time>
      </trkpt>
      <trkpt lat="45.02525" lon="3.59157">
        <ele>562.03</ele>
        <time>2019-10-27T11:44:00Z</time>
      </trkpt>
      <trkpt lat="45.0253" lon="3.59141">
        <ele>560.59</ele>
        <time>2019-10-27T11:44:10Z</time>
      </trkpt>
      <trkpt lat="45.02553" lon="3.59127">
        <ele>558.66</ele>
        <time>2019-10-27T11:44:28Z</time>
      </trkpt>
      <trkpt lat="45.02558" lon="3.59126">
        <ele>558.66</ele>
        <time>2019-10-27T11:44:33Z</time>
      </trkpt>
      <trkpt lat="45.02569" lon="3.5913">
        <ele>559.14</ele>
        <time>2019-10-27T11:44:41Z</time>
      </trkpt>
      <trkpt lat="45.02598" lon="3.59137">
        <ele>555.78</ele>
        <time>2019-10-27T11:45:03Z</time>
      </trkpt>
      <trkpt lat="45.02616" lon="3.59151">
        <ele>553.86</ele>
        <time>2019-10-27T11:45:18Z</time>
      </trkpt>
      <trkpt lat="45.02623" lon="3.59156">
        <ele>552.9</ele>
        <time>2019-10-27T11:45:25Z</time>
      </trkpt>
      <trkpt lat="45.02628" lon="3.59155">
        <ele>551.93</ele>
        <time>2019-10-27T11:45:29Z</time>
      </trkpt>
      <trkpt lat="45.02636" lon="3.59151">
        <ele>553.38</ele>
        <time>2019-10-27T11:45:43Z</time>
      </trkpt>
      <trkpt lat="45.02656" lon="3.59139">
        <ele>554.82</ele>
        <time>2019-10-27T11:45:59Z</time>
      </trkpt>
      <trkpt lat="45.02657" lon="3.59138">
        <ele>554.82</ele>
        <time>2019-10-27T11:46:00Z</time>
      </trkpt>
      <trkpt lat="45.02677" lon="3.59141">
        <ele>553.86</ele>
        <time>2019-10-27T11:46:16Z</time>
      </trkpt>
      <trkpt lat="45.02699" lon="3.59154">
        <ele>552.9</ele>
        <time>2019-10-27T11:46:34Z</time>
      </trkpt>
      <trkpt lat="45.02703" lon="3.59157">
        <ele>552.9</ele>
        <time>2019-10-27T11:46:37Z</time>
      </trkpt>
      <trkpt lat="45.02719" lon="3.59175">
        <ele>552.9</ele>
        <time>2019-10-27T11:46:52Z</time>
      </trkpt>
      <trkpt lat="45.02737" lon="3.59195">
        <ele>551.93</ele>
        <time>2019-10-27T11:47:09Z</time>
      </trkpt>
      <trkpt lat="45.02746" lon="3.59204">
        <ele>551.93</ele>
        <time>2019-10-27T11:47:18Z</time>
      </trkpt>
      <trkpt lat="45.02759" lon="3.59223">
        <ele>554.82</ele>
        <time>2019-10-27T11:47:33Z</time>
      </trkpt>
      <trkpt lat="45.02762" lon="3.59247">
        <ele>557.22</ele>
        <time>2019-10-27T11:47:48Z</time>
      </trkpt>
      <trkpt lat="45.02763" lon="3.59254">
        <ele>556.74</ele>
        <time>2019-10-27T11:48:03Z</time>
      </trkpt>
      <trkpt lat="45.02763" lon="3.59254">
        <ele>556.26</ele>
        <time>2019-10-27T11:48:19Z</time>
      </trkpt>
      <trkpt lat="45.02763" lon="3.59255">
        <ele>555.78</ele>
        <time>2019-10-27T11:48:33Z</time>
      </trkpt>
      <trkpt lat="45.02764" lon="3.59256">
        <ele>555.3</ele>
        <time>2019-10-27T11:48:46Z</time>
      </trkpt>
      <trkpt lat="45.02764" lon="3.59256">
        <ele>554.34</ele>
        <time>2019-10-27T11:49:03Z</time>
      </trkpt>
      <trkpt lat="45.02766" lon="3.59256">
        <ele>554.34</ele>
        <time>2019-10-27T11:49:20Z</time>
      </trkpt>
      <trkpt lat="45.02766" lon="3.59257">
        <ele>553.86</ele>
        <time>2019-10-27T11:49:38Z</time>
      </trkpt>
      <trkpt lat="45.02767" lon="3.59256">
        <ele>553.86</ele>
        <time>2019-10-27T11:49:49Z</time>
      </trkpt>
      <trkpt lat="45.02766" lon="3.59256">
        <ele>553.38</ele>
        <time>2019-10-27T11:49:52Z</time>
      </trkpt>
      <trkpt lat="45.02749" lon="3.5926">
        <ele>553.38</ele>
        <time>2019-10-27T11:50:08Z</time>
      </trkpt>
      <trkpt lat="45.02737" lon="3.59257">
        <ele>551.45</ele>
        <time>2019-10-27T11:50:21Z</time>
      </trkpt>
      <trkpt lat="45.02732" lon="3.59253">
        <ele>550.49</ele>
        <time>2019-10-27T11:50:32Z</time>
      </trkpt>
      <trkpt lat="45.02728" lon="3.5925">
        <ele>551.45</ele>
        <time>2019-10-27T11:50:42Z</time>
      </trkpt>
      <trkpt lat="45.02728" lon="3.5925">
        <ele>550.49</ele>
        <time>2019-10-27T11:51:01Z</time>
      </trkpt>
      <trkpt lat="45.02727" lon="3.5925">
        <ele>550.97</ele>
        <time>2019-10-27T11:51:18Z</time>
      </trkpt>
      <trkpt lat="45.02727" lon="3.59251">
        <ele>551.45</ele>
        <time>2019-10-27T11:51:30Z</time>
      </trkpt>
      <trkpt lat="45.02728" lon="3.59251">
        <ele>551.93</ele>
        <time>2019-10-27T11:51:50Z</time>
      </trkpt>
      <trkpt lat="45.02726" lon="3.59252">
        <ele>552.9</ele>
        <time>2019-10-27T11:52:04Z</time>
      </trkpt>
      <trkpt lat="45.02725" lon="3.59253">
        <ele>551.93</ele>
        <time>2019-10-27T11:52:27Z</time>
      </trkpt>
      <trkpt lat="45.02726" lon="3.59254">
        <ele>551.45</ele>
        <time>2019-10-27T11:52:42Z</time>
      </trkpt>
      <trkpt lat="45.02725" lon="3.59256">
        <ele>551.45</ele>
        <time>2019-10-27T11:52:57Z</time>
      </trkpt>
      <trkpt lat="45.02726" lon="3.59256">
        <ele>551.45</ele>
        <time>2019-10-27T11:53:15Z</time>
      </trkpt>
      <trkpt lat="45.02728" lon="3.59257">
        <ele>552.9</ele>
        <time>2019-10-27T11:53:27Z</time>
      </trkpt>
      <trkpt lat="45.02729" lon="3.59258">
        <ele>552.41</ele>
        <time>2019-10-27T11:53:40Z</time>
      </trkpt>
      <trkpt lat="45.02731" lon="3.59258">
        <ele>552.9</ele>
        <time>2019-10-27T11:53:50Z</time>
      </trkpt>
      <trkpt lat="45.02733" lon="3.59252">
        <ele>552.9</ele>
        <time>2019-10-27T11:54:01Z</time>
      </trkpt>
      <trkpt lat="45.02734" lon="3.59253">
        <ele>552.9</ele>
        <time>2019-10-27T11:54:14Z</time>
      </trkpt>
      <trkpt lat="45.02734" lon="3.59253">
        <ele>553.38</ele>
        <time>2019-10-27T11:54:34Z</time>
      </trkpt>
      <trkpt lat="45.02732" lon="3.59251">
        <ele>553.86</ele>
        <time>2019-10-27T11:54:49Z</time>
      </trkpt>
      <trkpt lat="45.02731" lon="3.5925">
        <ele>557.22</ele>
        <time>2019-10-27T11:55:02Z</time>
      </trkpt>
      <trkpt lat="45.02731" lon="3.59252">
        <ele>557.7</ele>
        <time>2019-10-27T11:55:16Z</time>
      </trkpt>
      <trkpt lat="45.0273" lon="3.59254">
        <ele>558.18</ele>
        <time>2019-10-27T11:55:27Z</time>
      </trkpt>
      <trkpt lat="45.02728" lon="3.59252">
        <ele>557.7</ele>
        <time>2019-10-27T11:55:42Z</time>
      </trkpt>
      <trkpt lat="45.02727" lon="3.59251">
        <ele>558.18</ele>
        <time>2019-10-27T11:55:43Z</time>
      </trkpt>
      <trkpt lat="45.02712" lon="3.59241">
        <ele>560.59</ele>
        <time>2019-10-27T11:55:59Z</time>
      </trkpt>
      <trkpt lat="45.02707" lon="3.59242">
        <ele>562.51</ele>
        <time>2019-10-27T11:56:10Z</time>
      </trkpt>
      <trkpt lat="45.02706" lon="3.59244">
        <ele>559.62</ele>
        <time>2019-10-27T11:56:27Z</time>
      </trkpt>
      <trkpt lat="45.02705" lon="3.59245">
        <ele>557.7</ele>
        <time>2019-10-27T11:56:51Z</time>
      </trkpt>
      <trkpt lat="45.02704" lon="3.59246">
        <ele>555.78</ele>
        <time>2019-10-27T11:57:27Z</time>
      </trkpt>
      <trkpt lat="45.02703" lon="3.59246">
        <ele>555.3</ele>
        <time>2019-10-27T11:57:53Z</time>
      </trkpt>
      <trkpt lat="45.02704" lon="3.59246">
        <ele>554.82</ele>
        <time>2019-10-27T11:58:24Z</time>
      </trkpt>
      <trkpt lat="45.02704" lon="3.59247">
        <ele>554.34</ele>
        <time>2019-10-27T11:58:56Z</time>
      </trkpt>
      <trkpt lat="45.02704" lon="3.59247">
        <ele>554.34</ele>
        <time>2019-10-27T11:59:26Z</time>
      </trkpt>
      <trkpt lat="45.02703" lon="3.59248">
        <ele>554.82</ele>
        <time>2019-10-27T11:59:54Z</time>
      </trkpt>
      <trkpt lat="45.02705" lon="3.59247">
        <ele>555.3</ele>
        <time>2019-10-27T12:00:27Z</time>
      </trkpt>
      <trkpt lat="45.02705" lon="3.59246">
        <ele>555.3</ele>
        <time>2019-10-27T12:00:59Z</time>
      </trkpt>
      <trkpt lat="45.02705" lon="3.59245">
        <ele>555.3</ele>
        <time>2019-10-27T12:01:31Z</time>
      </trkpt>
      <trkpt lat="45.02705" lon="3.59245">
        <ele>554.34</ele>
        <time>2019-10-27T12:02:07Z</time>
      </trkpt>
      <trkpt lat="45.02704" lon="3.59245">
        <ele>554.34</ele>
        <time>2019-10-27T12:02:42Z</time>
      </trkpt>
      <trkpt lat="45.02704" lon="3.59245">
        <ele>554.34</ele>
        <time>2019-10-27T12:03:17Z</time>
      </trkpt>
      <trkpt lat="45.02704" lon="3.59245">
        <ele>553.86</ele>
        <time>2019-10-27T12:03:50Z</time>
      </trkpt>
      <trkpt lat="45.02704" lon="3.59246">
        <ele>554.82</ele>
        <time>2019-10-27T12:04:25Z</time>
      </trkpt>
      <trkpt lat="45.02704" lon="3.59246">
        <ele>555.3</ele>
        <time>2019-10-27T12:04:50Z</time>
      </trkpt>
      <trkpt lat="45.02704" lon="3.59246">
        <ele>555.3</ele>
        <time>2019-10-27T12:05:35Z</time>
      </trkpt>
      <trkpt lat="45.02704" lon="3.59245">
        <ele>554.34</ele>
        <time>2019-10-27T12:06:06Z</time>
      </trkpt>
      <trkpt lat="45.02704" lon="3.59246">
        <ele>554.82</ele>
        <time>2019-10-27T12:06:38Z</time>
      </trkpt>
      <trkpt lat="45.02704" lon="3.59247">
        <ele>554.34</ele>
        <time>2019-10-27T12:07:11Z</time>
      </trkpt>
      <trkpt lat="45.02704" lon="3.59246">
        <ele>553.38</ele>
        <time>2019-10-27T12:07:46Z</time>
      </trkpt>
      <trkpt lat="45.02704" lon="3.59246">
        <ele>552.9</ele>
        <time>2019-10-27T12:08:24Z</time>
      </trkpt>
      <trkpt lat="45.02704" lon="3.59245">
        <ele>554.34</ele>
        <time>2019-10-27T12:08:52Z</time>
      </trkpt>
      <trkpt lat="45.02704" lon="3.59244">
        <ele>555.3</ele>
        <time>2019-10-27T12:09:28Z</time>
      </trkpt>
      <trkpt lat="45.02704" lon="3.59245">
        <ele>556.26</ele>
        <time>2019-10-27T12:09:58Z</time>
      </trkpt>
      <trkpt lat="45.02704" lon="3.59245">
        <ele>556.26</ele>
        <time>2019-10-27T12:10:20Z</time>
      </trkpt>
      <trkpt lat="45.02704" lon="3.59246">
        <ele>557.22</ele>
        <time>2019-10-27T12:10:47Z</time>
      </trkpt>
      <trkpt lat="45.02703" lon="3.59246">
        <ele>557.22</ele>
        <time>2019-10-27T12:11:17Z</time>
      </trkpt>
      <trkpt lat="45.02702" lon="3.59246">
        <ele>556.26</ele>
        <time>2019-10-27T12:11:49Z</time>
      </trkpt>
      <trkpt lat="45.02701" lon="3.59245">
        <ele>556.74</ele>
        <time>2019-10-27T12:12:26Z</time>
      </trkpt>
      <trkpt lat="45.02702" lon="3.59245">
        <ele>556.74</ele>
        <time>2019-10-27T12:12:51Z</time>
      </trkpt>
      <trkpt lat="45.02702" lon="3.59245">
        <ele>556.74</ele>
        <time>2019-10-27T12:13:25Z</time>
      </trkpt>
      <trkpt lat="45.02702" lon="3.59244">
        <ele>555.78</ele>
        <time>2019-10-27T12:13:36Z</time>
      </trkpt>
      <trkpt lat="45.02704" lon="3.59245">
        <ele>555.78</ele>
        <time>2019-10-27T12:14:11Z</time>
      </trkpt>
      <trkpt lat="45.02705" lon="3.59243">
        <ele>553.38</ele>
        <time>2019-10-27T12:14:43Z</time>
      </trkpt>
      <trkpt lat="45.02704" lon="3.59243">
        <ele>553.86</ele>
        <time>2019-10-27T12:15:23Z</time>
      </trkpt>
      <trkpt lat="45.02706" lon="3.59243">
        <ele>554.82</ele>
        <time>2019-10-27T12:16:08Z</time>
      </trkpt>
      <trkpt lat="45.02704" lon="3.59245">
        <ele>554.34</ele>
        <time>2019-10-27T12:16:52Z</time>
      </trkpt>
      <trkpt lat="45.02704" lon="3.59245">
        <ele>555.78</ele>
        <time>2019-10-27T12:17:38Z</time>
      </trkpt>
      <trkpt lat="45.02704" lon="3.59246">
        <ele>554.82</ele>
        <time>2019-10-27T12:18:17Z</time>
      </trkpt>
      <trkpt lat="45.02705" lon="3.59246">
        <ele>553.86</ele>
        <time>2019-10-27T12:18:38Z</time>
      </trkpt>
      <trkpt lat="45.02704" lon="3.59246">
        <ele>552.41</ele>
        <time>2019-10-27T12:19:05Z</time>
      </trkpt>
      <trkpt lat="45.02704" lon="3.59245">
        <ele>554.34</ele>
        <time>2019-10-27T12:19:32Z</time>
      </trkpt>
      <trkpt lat="45.02704" lon="3.59246">
        <ele>554.82</ele>
        <time>2019-10-27T12:20:13Z</time>
      </trkpt>
      <trkpt lat="45.02704" lon="3.59245">
        <ele>553.86</ele>
        <time>2019-10-27T12:20:58Z</time>
      </trkpt>
      <trkpt lat="45.02705" lon="3.59246">
        <ele>554.34</ele>
        <time>2019-10-27T12:21:39Z</time>
      </trkpt>
      <trkpt lat="45.02704" lon="3.59247">
        <ele>554.34</ele>
        <time>2019-10-27T12:22:20Z</time>
      </trkpt>
      <trkpt lat="45.02704" lon="3.59247">
        <ele>553.86</ele>
        <time>2019-10-27T12:22:58Z</time>
      </trkpt>
      <trkpt lat="45.02704" lon="3.59247">
        <ele>553.86</ele>
        <time>2019-10-27T12:23:39Z</time>
      </trkpt>
      <trkpt lat="45.02703" lon="3.59246">
        <ele>553.38</ele>
        <time>2019-10-27T12:24:19Z</time>
      </trkpt>
      <trkpt lat="45.02703" lon="3.59246">
        <ele>554.34</ele>
        <time>2019-10-27T12:25:12Z</time>
      </trkpt>
      <trkpt lat="45.02703" lon="3.59247">
        <ele>554.34</ele>
        <time>2019-10-27T12:26:00Z</time>
      </trkpt>
      <trkpt lat="45.02702" lon="3.59245">
        <ele>555.3</ele>
        <time>2019-10-27T12:26:45Z</time>
      </trkpt>
      <trkpt lat="45.02703" lon="3.59245">
        <ele>553.86</ele>
        <time>2019-10-27T12:27:25Z</time>
      </trkpt>
      <trkpt lat="45.02704" lon="3.59245">
        <ele>553.38</ele>
        <time>2019-10-27T12:27:59Z</time>
      </trkpt>
      <trkpt lat="45.02705" lon="3.59244">
        <ele>553.86</ele>
        <time>2019-10-27T12:28:34Z</time>
      </trkpt>
      <trkpt lat="45.02705" lon="3.59245">
        <ele>554.82</ele>
        <time>2019-10-27T12:29:15Z</time>
      </trkpt>
      <trkpt lat="45.02705" lon="3.59245">
        <ele>554.34</ele>
        <time>2019-10-27T12:29:37Z</time>
      </trkpt>
      <trkpt lat="45.02704" lon="3.59245">
        <ele>554.34</ele>
        <time>2019-10-27T12:29:59Z</time>
      </trkpt>
      <trkpt lat="45.02703" lon="3.59245">
        <ele>556.74</ele>
        <time>2019-10-27T12:30:31Z</time>
      </trkpt>
      <trkpt lat="45.02705" lon="3.59245">
        <ele>556.26</ele>
        <time>2019-10-27T12:30:58Z</time>
      </trkpt>
      <trkpt lat="45.02706" lon="3.59246">
        <ele>555.3</ele>
        <time>2019-10-27T12:31:34Z</time>
      </trkpt>
      <trkpt lat="45.02706" lon="3.59245">
        <ele>554.34</ele>
        <time>2019-10-27T12:32:04Z</time>
      </trkpt>
      <trkpt lat="45.02706" lon="3.59246">
        <ele>553.86</ele>
        <time>2019-10-27T12:32:21Z</time>
      </trkpt>
      <trkpt lat="45.02706" lon="3.59245">
        <ele>554.34</ele>
        <time>2019-10-27T12:32:42Z</time>
      </trkpt>
      <trkpt lat="45.02705" lon="3.59246">
        <ele>554.34</ele>
        <time>2019-10-27T12:32:53Z</time>
      </trkpt>
      <trkpt lat="45.02705" lon="3.59246">
        <ele>555.3</ele>
        <time>2019-10-27T12:33:06Z</time>
      </trkpt>
      <trkpt lat="45.02704" lon="3.59245">
        <ele>556.26</ele>
        <time>2019-10-27T12:33:23Z</time>
      </trkpt>
      <trkpt lat="45.02704" lon="3.59245">
        <ele>556.26</ele>
        <time>2019-10-27T12:33:40Z</time>
      </trkpt>
      <trkpt lat="45.02705" lon="3.59245">
        <ele>556.26</ele>
        <time>2019-10-27T12:33:53Z</time>
      </trkpt>
      <trkpt lat="45.02709" lon="3.59245">
        <ele>555.3</ele>
        <time>2019-10-27T12:34:04Z</time>
      </trkpt>
      <trkpt lat="45.02718" lon="3.59252">
        <ele>555.3</ele>
        <time>2019-10-27T12:34:18Z</time>
      </trkpt>
      <trkpt lat="45.02725" lon="3.59253">
        <ele>554.82</ele>
        <time>2019-10-27T12:34:30Z</time>
      </trkpt>
      <trkpt lat="45.02736" lon="3.59257">
        <ele>554.82</ele>
        <time>2019-10-27T12:34:43Z</time>
      </trkpt>
      <trkpt lat="45.0274" lon="3.59256">
        <ele>554.34</ele>
        <time>2019-10-27T12:34:53Z</time>
      </trkpt>
      <trkpt lat="45.02742" lon="3.59255">
        <ele>553.86</ele>
        <time>2019-10-27T12:35:04Z</time>
      </trkpt>
      <trkpt lat="45.02742" lon="3.59259">
        <ele>554.34</ele>
        <time>2019-10-27T12:35:15Z</time>
      </trkpt>
      <trkpt lat="45.02749" lon="3.59262">
        <ele>554.34</ele>
        <time>2019-10-27T12:35:27Z</time>
      </trkpt>
      <trkpt lat="45.02761" lon="3.59261">
        <ele>554.34</ele>
        <time>2019-10-27T12:35:42Z</time>
      </trkpt>
      <trkpt lat="45.02763" lon="3.59263">
        <ele>554.34</ele>
        <time>2019-10-27T12:35:45Z</time>
      </trkpt>
      <trkpt lat="45.02769" lon="3.59286">
        <ele>553.38</ele>
        <time>2019-10-27T12:36:01Z</time>
      </trkpt>
      <trkpt lat="45.02775" lon="3.59307">
        <ele>553.38</ele>
        <time>2019-10-27T12:36:16Z</time>
      </trkpt>
      <trkpt lat="45.02783" lon="3.59318">
        <ele>555.78</ele>
        <time>2019-10-27T12:36:29Z</time>
      </trkpt>
      <trkpt lat="45.02783" lon="3.59343">
        <ele>559.14</ele>
        <time>2019-10-27T12:36:45Z</time>
      </trkpt>
      <trkpt lat="45.02779" lon="3.59367">
        <ele>558.66</ele>
        <time>2019-10-27T12:36:59Z</time>
      </trkpt>
      <trkpt lat="45.02781" lon="3.59378">
        <ele>554.82</ele>
        <time>2019-10-27T12:37:14Z</time>
      </trkpt>
      <trkpt lat="45.02783" lon="3.59387">
        <ele>555.3</ele>
        <time>2019-10-27T12:37:25Z</time>
      </trkpt>
      <trkpt lat="45.02785" lon="3.5939">
        <ele>555.3</ele>
        <time>2019-10-27T12:37:29Z</time>
      </trkpt>
      <trkpt lat="45.02801" lon="3.59401">
        <ele>554.82</ele>
        <time>2019-10-27T12:37:47Z</time>
      </trkpt>
      <trkpt lat="45.0282" lon="3.59414">
        <ele>553.86</ele>
        <time>2019-10-27T12:38:05Z</time>
      </trkpt>
      <trkpt lat="45.02836" lon="3.59426">
        <ele>553.86</ele>
        <time>2019-10-27T12:38:21Z</time>
      </trkpt>
      <trkpt lat="45.02855" lon="3.59443">
        <ele>553.38</ele>
        <time>2019-10-27T12:38:39Z</time>
      </trkpt>
      <trkpt lat="45.02872" lon="3.59456">
        <ele>553.86</ele>
        <time>2019-10-27T12:38:56Z</time>
      </trkpt>
      <trkpt lat="45.02894" lon="3.59471">
        <ele>554.34</ele>
        <time>2019-10-27T12:39:15Z</time>
      </trkpt>
      <trkpt lat="45.02911" lon="3.59471">
        <ele>553.38</ele>
        <time>2019-10-27T12:39:31Z</time>
      </trkpt>
      <trkpt lat="45.02914" lon="3.5947">
        <ele>553.38</ele>
        <time>2019-10-27T12:39:37Z</time>
      </trkpt>
      <trkpt lat="45.02922" lon="3.5947">
        <ele>553.38</ele>
        <time>2019-10-27T12:39:45Z</time>
      </trkpt>
      <trkpt lat="45.02928" lon="3.59469">
        <ele>553.38</ele>
        <time>2019-10-27T12:39:51Z</time>
      </trkpt>
      <trkpt lat="45.02945" lon="3.59468">
        <ele>552.9</ele>
        <time>2019-10-27T12:40:07Z</time>
      </trkpt>
      <trkpt lat="45.02949" lon="3.59467">
        <ele>552.41</ele>
        <time>2019-10-27T12:40:10Z</time>
      </trkpt>
      <trkpt lat="45.02953" lon="3.59464">
        <ele>552.41</ele>
        <time>2019-10-27T12:40:14Z</time>
      </trkpt>
      <trkpt lat="45.02957" lon="3.59457">
        <ele>552.41</ele>
        <time>2019-10-27T12:40:20Z</time>
      </trkpt>
      <trkpt lat="45.02958" lon="3.59451">
        <ele>552.9</ele>
        <time>2019-10-27T12:40:24Z</time>
      </trkpt>
      <trkpt lat="45.02958" lon="3.59443">
        <ele>552.9</ele>
        <time>2019-10-27T12:40:29Z</time>
      </trkpt>
      <trkpt lat="45.02958" lon="3.59436">
        <ele>553.38</ele>
        <time>2019-10-27T12:40:34Z</time>
      </trkpt>
      <trkpt lat="45.02959" lon="3.59433">
        <ele>553.38</ele>
        <time>2019-10-27T12:40:36Z</time>
      </trkpt>
      <trkpt lat="45.02959" lon="3.59426">
        <ele>553.86</ele>
        <time>2019-10-27T12:40:41Z</time>
      </trkpt>
      <trkpt lat="45.0296" lon="3.59404">
        <ele>554.82</ele>
        <time>2019-10-27T12:40:54Z</time>
      </trkpt>
      <trkpt lat="45.02959" lon="3.59393">
        <ele>557.7</ele>
        <time>2019-10-27T12:41:05Z</time>
      </trkpt>
      <trkpt lat="45.02966" lon="3.59368">
        <ele>562.99</ele>
        <time>2019-10-27T12:41:22Z</time>
      </trkpt>
      <trkpt lat="45.02969" lon="3.59362">
        <ele>563.95</ele>
        <time>2019-10-27T12:41:26Z</time>
      </trkpt>
      <trkpt lat="45.02985" lon="3.59342">
        <ele>566.83</ele>
        <time>2019-10-27T12:41:45Z</time>
      </trkpt>
      <trkpt lat="45.02995" lon="3.59334">
        <ele>568.28</ele>
        <time>2019-10-27T12:41:55Z</time>
      </trkpt>
      <trkpt lat="45.03011" lon="3.59323">
        <ele>569.24</ele>
        <time>2019-10-27T12:42:10Z</time>
      </trkpt>
      <trkpt lat="45.03018" lon="3.59319">
        <ele>569.24</ele>
        <time>2019-10-27T12:42:16Z</time>
      </trkpt>
      <trkpt lat="45.03022" lon="3.59314">
        <ele>569.72</ele>
        <time>2019-10-27T12:42:20Z</time>
      </trkpt>
      <trkpt lat="45.03028" lon="3.5931">
        <ele>568.76</ele>
        <time>2019-10-27T12:42:24Z</time>
      </trkpt>
      <trkpt lat="45.03056" lon="3.59293">
        <ele>566.83</ele>
        <time>2019-10-27T12:42:46Z</time>
      </trkpt>
      <trkpt lat="45.03083" lon="3.59284">
        <ele>566.35</ele>
        <time>2019-10-27T12:43:06Z</time>
      </trkpt>
      <trkpt lat="45.03101" lon="3.59283">
        <ele>567.32</ele>
        <time>2019-10-27T12:43:20Z</time>
      </trkpt>
      <trkpt lat="45.03111" lon="3.59283">
        <ele>568.28</ele>
        <time>2019-10-27T12:43:28Z</time>
      </trkpt>
      <trkpt lat="45.0313" lon="3.59287">
        <ele>570.68</ele>
        <time>2019-10-27T12:43:44Z</time>
      </trkpt>
      <trkpt lat="45.03154" lon="3.59292">
        <ele>572.6</ele>
        <time>2019-10-27T12:44:02Z</time>
      </trkpt>
      <trkpt lat="45.03178" lon="3.593">
        <ele>575.01</ele>
        <time>2019-10-27T12:44:21Z</time>
      </trkpt>
      <trkpt lat="45.032" lon="3.59307">
        <ele>575.01</ele>
        <time>2019-10-27T12:44:37Z</time>
      </trkpt>
      <trkpt lat="45.03221" lon="3.59313">
        <ele>575.49</ele>
        <time>2019-10-27T12:44:52Z</time>
      </trkpt>
      <trkpt lat="45.03245" lon="3.59318">
        <ele>576.93</ele>
        <time>2019-10-27T12:45:10Z</time>
      </trkpt>
      <trkpt lat="45.03247" lon="3.59317">
        <ele>577.41</ele>
        <time>2019-10-27T12:45:11Z</time>
      </trkpt>
      <trkpt lat="45.03257" lon="3.59319">
        <ele>578.85</ele>
        <time>2019-10-27T12:45:19Z</time>
      </trkpt>
      <trkpt lat="45.03259" lon="3.59319">
        <ele>579.33</ele>
        <time>2019-10-27T12:45:21Z</time>
      </trkpt>
      <trkpt lat="45.03262" lon="3.59318">
        <ele>580.29</ele>
        <time>2019-10-27T12:45:24Z</time>
      </trkpt>
      <trkpt lat="45.03281" lon="3.59315">
        <ele>582.7</ele>
        <time>2019-10-27T12:45:40Z</time>
      </trkpt>
      <trkpt lat="45.03282" lon="3.59314">
        <ele>583.18</ele>
        <time>2019-10-27T12:45:41Z</time>
      </trkpt>
      <trkpt lat="45.03299" lon="3.59314">
        <ele>585.58</ele>
        <time>2019-10-27T12:45:55Z</time>
      </trkpt>
      <trkpt lat="45.03313" lon="3.5932">
        <ele>587.02</ele>
        <time>2019-10-27T12:46:09Z</time>
      </trkpt>
      <trkpt lat="45.03318" lon="3.59321">
        <ele>587.5</ele>
        <time>2019-10-27T12:46:13Z</time>
      </trkpt>
      <trkpt lat="45.0334" lon="3.59309">
        <ele>593.75</ele>
        <time>2019-10-27T12:46:31Z</time>
      </trkpt>
      <trkpt lat="45.03354" lon="3.59302">
        <ele>596.15</ele>
        <time>2019-10-27T12:46:43Z</time>
      </trkpt>
      <trkpt lat="45.03371" lon="3.5929">
        <ele>598.08</ele>
        <time>2019-10-27T12:46:57Z</time>
      </trkpt>
      <trkpt lat="45.03391" lon="3.59274">
        <ele>598.08</ele>
        <time>2019-10-27T12:47:14Z</time>
      </trkpt>
      <trkpt lat="45.03415" lon="3.59251">
        <ele>595.19</ele>
        <time>2019-10-27T12:47:34Z</time>
      </trkpt>
      <trkpt lat="45.03436" lon="3.59229">
        <ele>594.23</ele>
        <time>2019-10-27T12:47:53Z</time>
      </trkpt>
      <trkpt lat="45.03446" lon="3.59218">
        <ele>594.71</ele>
        <time>2019-10-27T12:48:03Z</time>
      </trkpt>
      <trkpt lat="45.03448" lon="3.59216">
        <ele>594.71</ele>
        <time>2019-10-27T12:48:05Z</time>
      </trkpt>
      <trkpt lat="45.03455" lon="3.59207">
        <ele>594.71</ele>
        <time>2019-10-27T12:48:12Z</time>
      </trkpt>
      <trkpt lat="45.03471" lon="3.59181">
        <ele>595.19</ele>
        <time>2019-10-27T12:48:30Z</time>
      </trkpt>
      <trkpt lat="45.03483" lon="3.5916">
        <ele>596.15</ele>
        <time>2019-10-27T12:48:45Z</time>
      </trkpt>
      <trkpt lat="45.0349" lon="3.59136">
        <ele>600</ele>
        <time>2019-10-27T12:49:00Z</time>
      </trkpt>
      <trkpt lat="45.035" lon="3.59099">
        <ele>599.04</ele>
        <time>2019-10-27T12:49:20Z</time>
      </trkpt>
      <trkpt lat="45.03505" lon="3.59083">
        <ele>597.12</ele>
        <time>2019-10-27T12:49:33Z</time>
      </trkpt>
      <trkpt lat="45.0351" lon="3.59071">
        <ele>596.64</ele>
        <time>2019-10-27T12:49:47Z</time>
      </trkpt>
      <trkpt lat="45.03513" lon="3.59065">
        <ele>597.12</ele>
        <time>2019-10-27T12:49:52Z</time>
      </trkpt>
      <trkpt lat="45.03523" lon="3.59037">
        <ele>596.64</ele>
        <time>2019-10-27T12:50:08Z</time>
      </trkpt>
      <trkpt lat="45.03538" lon="3.59004">
        <ele>598.08</ele>
        <time>2019-10-27T12:50:27Z</time>
      </trkpt>
      <trkpt lat="45.0356" lon="3.58997">
        <ele>598.08</ele>
        <time>2019-10-27T12:50:42Z</time>
      </trkpt>
      <trkpt lat="45.03574" lon="3.59018">
        <ele>600</ele>
        <time>2019-10-27T12:51:00Z</time>
      </trkpt>
      <trkpt lat="45.03577" lon="3.59027">
        <ele>601.44</ele>
        <time>2019-10-27T12:51:06Z</time>
      </trkpt>
      <trkpt lat="45.03584" lon="3.59032">
        <ele>602.4</ele>
        <time>2019-10-27T12:51:13Z</time>
      </trkpt>
      <trkpt lat="45.03588" lon="3.59037">
        <ele>603.85</ele>
        <time>2019-10-27T12:51:18Z</time>
      </trkpt>
      <trkpt lat="45.03591" lon="3.59044">
        <ele>604.33</ele>
        <time>2019-10-27T12:51:23Z</time>
      </trkpt>
      <trkpt lat="45.03593" lon="3.59052">
        <ele>605.29</ele>
        <time>2019-10-27T12:51:29Z</time>
      </trkpt>
      <trkpt lat="45.03606" lon="3.59067">
        <ele>608.17</ele>
        <time>2019-10-27T12:51:44Z</time>
      </trkpt>
      <trkpt lat="45.03616" lon="3.59075">
        <ele>608.17</ele>
        <time>2019-10-27T12:51:53Z</time>
      </trkpt>
      <trkpt lat="45.03619" lon="3.59077">
        <ele>608.17</ele>
        <time>2019-10-27T12:51:56Z</time>
      </trkpt>
      <trkpt lat="45.03637" lon="3.5909">
        <ele>610.09</ele>
        <time>2019-10-27T12:52:12Z</time>
      </trkpt>
      <trkpt lat="45.03646" lon="3.59097">
        <ele>610.09</ele>
        <time>2019-10-27T12:52:20Z</time>
      </trkpt>
      <trkpt lat="45.03655" lon="3.59096">
        <ele>609.61</ele>
        <time>2019-10-27T12:52:28Z</time>
      </trkpt>
      <trkpt lat="45.03659" lon="3.59093">
        <ele>610.09</ele>
        <time>2019-10-27T12:52:32Z</time>
      </trkpt>
      <trkpt lat="45.0366" lon="3.59089">
        <ele>609.13</ele>
        <time>2019-10-27T12:52:35Z</time>
      </trkpt>
      <trkpt lat="45.03668" lon="3.59075">
        <ele>609.61</ele>
        <time>2019-10-27T12:52:48Z</time>
      </trkpt>
      <trkpt lat="45.03681" lon="3.59058">
        <ele>609.13</ele>
        <time>2019-10-27T12:53:03Z</time>
      </trkpt>
      <trkpt lat="45.03703" lon="3.59039">
        <ele>603.36</ele>
        <time>2019-10-27T12:53:22Z</time>
      </trkpt>
      <trkpt lat="45.0371" lon="3.59033">
        <ele>601.92</ele>
        <time>2019-10-27T12:53:29Z</time>
      </trkpt>
      <trkpt lat="45.03719" lon="3.59028">
        <ele>601.92</ele>
        <time>2019-10-27T12:53:38Z</time>
      </trkpt>
      <trkpt lat="45.03727" lon="3.59029">
        <ele>601.44</ele>
        <time>2019-10-27T12:53:45Z</time>
      </trkpt>
      <trkpt lat="45.03732" lon="3.5903">
        <ele>600.96</ele>
        <time>2019-10-27T12:53:48Z</time>
      </trkpt>
      <trkpt lat="45.03752" lon="3.59029">
        <ele>596.64</ele>
        <time>2019-10-27T12:54:04Z</time>
      </trkpt>
      <trkpt lat="45.03763" lon="3.59026">
        <ele>592.79</ele>
        <time>2019-10-27T12:54:12Z</time>
      </trkpt>
      <trkpt lat="45.03768" lon="3.59028">
        <ele>591.83</ele>
        <time>2019-10-27T12:54:17Z</time>
      </trkpt>
      <trkpt lat="45.03771" lon="3.59027">
        <ele>591.35</ele>
        <time>2019-10-27T12:54:19Z</time>
      </trkpt>
      <trkpt lat="45.03776" lon="3.59027">
        <ele>590.87</ele>
        <time>2019-10-27T12:54:24Z</time>
      </trkpt>
      <trkpt lat="45.03787" lon="3.59028">
        <ele>593.75</ele>
        <time>2019-10-27T12:54:34Z</time>
      </trkpt>
      <trkpt lat="45.03801" lon="3.59035">
        <ele>594.23</ele>
        <time>2019-10-27T12:54:48Z</time>
      </trkpt>
      <trkpt lat="45.03803" lon="3.59036">
        <ele>594.71</ele>
        <time>2019-10-27T12:54:51Z</time>
      </trkpt>
      <trkpt lat="45.03816" lon="3.59043">
        <ele>594.23</ele>
        <time>2019-10-27T12:55:04Z</time>
      </trkpt>
      <trkpt lat="45.03819" lon="3.59044">
        <ele>594.23</ele>
        <time>2019-10-27T12:55:07Z</time>
      </trkpt>
      <trkpt lat="45.0383" lon="3.59048">
        <ele>598.08</ele>
        <time>2019-10-27T12:55:20Z</time>
      </trkpt>
      <trkpt lat="45.03831" lon="3.59048">
        <ele>598.08</ele>
        <time>2019-10-27T12:55:21Z</time>
      </trkpt>
      <trkpt lat="45.03843" lon="3.59051">
        <ele>599.52</ele>
        <time>2019-10-27T12:55:33Z</time>
      </trkpt>
      <trkpt lat="45.03848" lon="3.59059">
        <ele>600</ele>
        <time>2019-10-27T12:55:42Z</time>
      </trkpt>
      <trkpt lat="45.03856" lon="3.5906">
        <ele>600.48</ele>
        <time>2019-10-27T12:55:53Z</time>
      </trkpt>
      <trkpt lat="45.03863" lon="3.59063">
        <ele>601.44</ele>
        <time>2019-10-27T12:56:03Z</time>
      </trkpt>
      <trkpt lat="45.03885" lon="3.59076">
        <ele>593.75</ele>
        <time>2019-10-27T12:56:13Z</time>
      </trkpt>
      <trkpt lat="45.03902" lon="3.59089">
        <ele>578.85</ele>
        <time>2019-10-27T12:56:26Z</time>
      </trkpt>
      <trkpt lat="45.0391" lon="3.59091">
        <ele>573.08</ele>
        <time>2019-10-27T12:56:35Z</time>
      </trkpt>
      <trkpt lat="45.03916" lon="3.59084">
        <ele>567.8</ele>
        <time>2019-10-27T12:56:45Z</time>
      </trkpt>
      <trkpt lat="45.03914" lon="3.59074">
        <ele>567.32</ele>
        <time>2019-10-27T12:56:56Z</time>
      </trkpt>
      <trkpt lat="45.03915" lon="3.59059">
        <ele>562.03</ele>
        <time>2019-10-27T12:57:07Z</time>
      </trkpt>
      <trkpt lat="45.03914" lon="3.59058">
        <ele>562.03</ele>
        <time>2019-10-27T12:57:08Z</time>
      </trkpt>
      <trkpt lat="45.03917" lon="3.59046">
        <ele>560.59</ele>
        <time>2019-10-27T12:57:20Z</time>
      </trkpt>
      <trkpt lat="45.0392" lon="3.59046">
        <ele>560.11</ele>
        <time>2019-10-27T12:57:22Z</time>
      </trkpt>
      <trkpt lat="45.03936" lon="3.59048">
        <ele>555.78</ele>
        <time>2019-10-27T12:57:36Z</time>
      </trkpt>
      <trkpt lat="45.03956" lon="3.59054">
        <ele>553.38</ele>
        <time>2019-10-27T12:57:51Z</time>
      </trkpt>
      <trkpt lat="45.03979" lon="3.5906">
        <ele>546.65</ele>
        <time>2019-10-27T12:58:06Z</time>
      </trkpt>
      <trkpt lat="45.03999" lon="3.59066">
        <ele>543.76</ele>
        <time>2019-10-27T12:58:22Z</time>
      </trkpt>
      <trkpt lat="45.04006" lon="3.59067">
        <ele>543.28</ele>
        <time>2019-10-27T12:58:33Z</time>
      </trkpt>
      <trkpt lat="45.04006" lon="3.59068">
        <ele>542.8</ele>
        <time>2019-10-27T12:58:45Z</time>
      </trkpt>
      <trkpt lat="45.04006" lon="3.59067">
        <ele>541.84</ele>
        <time>2019-10-27T12:58:58Z</time>
      </trkpt>
      <trkpt lat="45.04008" lon="3.59068">
        <ele>541.36</ele>
        <time>2019-10-27T12:59:09Z</time>
      </trkpt>
      <trkpt lat="45.04011" lon="3.59071">
        <ele>541.36</ele>
        <time>2019-10-27T12:59:19Z</time>
      </trkpt>
      <trkpt lat="45.04015" lon="3.59074">
        <ele>541.36</ele>
        <time>2019-10-27T12:59:23Z</time>
      </trkpt>
      <trkpt lat="45.04022" lon="3.59075">
        <ele>542.32</ele>
        <time>2019-10-27T12:59:32Z</time>
      </trkpt>
      <trkpt lat="45.04024" lon="3.59072">
        <ele>542.8</ele>
        <time>2019-10-27T12:59:35Z</time>
      </trkpt>
      <trkpt lat="45.04027" lon="3.59064">
        <ele>543.28</ele>
        <time>2019-10-27T12:59:42Z</time>
      </trkpt>
      <trkpt lat="45.04028" lon="3.59062">
        <ele>543.28</ele>
        <time>2019-10-27T12:59:44Z</time>
      </trkpt>
      <trkpt lat="45.04034" lon="3.59047">
        <ele>543.28</ele>
        <time>2019-10-27T12:59:54Z</time>
      </trkpt>
      <trkpt lat="45.04035" lon="3.5904">
        <ele>543.28</ele>
        <time>2019-10-27T12:59:58Z</time>
      </trkpt>
      <trkpt lat="45.04044" lon="3.59023">
        <ele>542.32</ele>
        <time>2019-10-27T13:00:13Z</time>
      </trkpt>
      <trkpt lat="45.04052" lon="3.59026">
        <ele>541.36</ele>
        <time>2019-10-27T13:00:22Z</time>
      </trkpt>
      <trkpt lat="45.0406" lon="3.59016">
        <ele>541.84</ele>
        <time>2019-10-27T13:00:30Z</time>
      </trkpt>
      <trkpt lat="45.04078" lon="3.59002">
        <ele>539.92</ele>
        <time>2019-10-27T13:00:46Z</time>
      </trkpt>
      <trkpt lat="45.04078" lon="3.59002">
        <ele>540.88</ele>
        <time>2019-10-27T13:00:59Z</time>
      </trkpt>
      <trkpt lat="45.04079" lon="3.59003">
        <ele>541.84</ele>
        <time>2019-10-27T13:01:20Z</time>
      </trkpt>
      <trkpt lat="45.04079" lon="3.59003">
        <ele>541.84</ele>
        <time>2019-10-27T13:01:41Z</time>
      </trkpt>
      <trkpt lat="45.04079" lon="3.59002">
        <ele>541.84</ele>
        <time>2019-10-27T13:02:07Z</time>
      </trkpt>
      <trkpt lat="45.04077" lon="3.59003">
        <ele>542.32</ele>
        <time>2019-10-27T13:02:10Z</time>
      </trkpt>
      <trkpt lat="45.04073" lon="3.59006">
        <ele>542.32</ele>
        <time>2019-10-27T13:02:14Z</time>
      </trkpt>
      <trkpt lat="45.04072" lon="3.59008">
        <ele>542.32</ele>
        <time>2019-10-27T13:02:16Z</time>
      </trkpt>
      <trkpt lat="45.04062" lon="3.59023">
        <ele>542.32</ele>
        <time>2019-10-27T13:02:31Z</time>
      </trkpt>
      <trkpt lat="45.04062" lon="3.59024">
        <ele>543.28</ele>
        <time>2019-10-27T13:02:44Z</time>
      </trkpt>
      <trkpt lat="45.04061" lon="3.5903">
        <ele>542.32</ele>
        <time>2019-10-27T13:02:54Z</time>
      </trkpt>
      <trkpt lat="45.04069" lon="3.59046">
        <ele>541.84</ele>
        <time>2019-10-27T13:03:09Z</time>
      </trkpt>
      <trkpt lat="45.04072" lon="3.59051">
        <ele>543.28</ele>
        <time>2019-10-27T13:03:22Z</time>
      </trkpt>
      <trkpt lat="45.04072" lon="3.59051">
        <ele>543.28</ele>
        <time>2019-10-27T13:03:25Z</time>
      </trkpt>
      <trkpt lat="45.04082" lon="3.59064">
        <ele>543.28</ele>
        <time>2019-10-27T13:03:36Z</time>
      </trkpt>
      <trkpt lat="45.04099" lon="3.59088">
        <ele>542.32</ele>
        <time>2019-10-27T13:03:55Z</time>
      </trkpt>
      <trkpt lat="45.04115" lon="3.5911">
        <ele>542.32</ele>
        <time>2019-10-27T13:04:12Z</time>
      </trkpt>
      <trkpt lat="45.04127" lon="3.59125">
        <ele>541.84</ele>
        <time>2019-10-27T13:04:24Z</time>
      </trkpt>
      <trkpt lat="45.04143" lon="3.59141">
        <ele>543.76</ele>
        <time>2019-10-27T13:04:38Z</time>
      </trkpt>
      <trkpt lat="45.04152" lon="3.59148">
        <ele>543.28</ele>
        <time>2019-10-27T13:04:46Z</time>
      </trkpt>
      <trkpt lat="45.04174" lon="3.5917">
        <ele>543.76</ele>
        <time>2019-10-27T13:05:06Z</time>
      </trkpt>
      <trkpt lat="45.04181" lon="3.59196">
        <ele>543.76</ele>
        <time>2019-10-27T13:05:21Z</time>
      </trkpt>
      <trkpt lat="45.04187" lon="3.59221">
        <ele>545.2</ele>
        <time>2019-10-27T13:05:35Z</time>
      </trkpt>
      <trkpt lat="45.04206" lon="3.59245">
        <ele>545.2</ele>
        <time>2019-10-27T13:05:53Z</time>
      </trkpt>
      <trkpt lat="45.0423" lon="3.59255">
        <ele>547.61</ele>
        <time>2019-10-27T13:06:12Z</time>
      </trkpt>
      <trkpt lat="45.04249" lon="3.59261">
        <ele>549.53</ele>
        <time>2019-10-27T13:06:27Z</time>
      </trkpt>
      <trkpt lat="45.04252" lon="3.59262">
        <ele>549.53</ele>
        <time>2019-10-27T13:06:29Z</time>
      </trkpt>
      <trkpt lat="45.04259" lon="3.59265">
        <ele>548.57</ele>
        <time>2019-10-27T13:06:34Z</time>
      </trkpt>
      <trkpt lat="45.0427" lon="3.5927">
        <ele>546.65</ele>
        <time>2019-10-27T13:06:42Z</time>
      </trkpt>
      <trkpt lat="45.04281" lon="3.59274">
        <ele>547.13</ele>
        <time>2019-10-27T13:06:50Z</time>
      </trkpt>
      <trkpt lat="45.04294" lon="3.59278">
        <ele>547.61</ele>
        <time>2019-10-27T13:06:59Z</time>
      </trkpt>
      <trkpt lat="45.04298" lon="3.59279">
        <ele>547.61</ele>
        <time>2019-10-27T13:07:02Z</time>
      </trkpt>
      <trkpt lat="45.04306" lon="3.59281">
        <ele>548.57</ele>
        <time>2019-10-27T13:07:08Z</time>
      </trkpt>
      <trkpt lat="45.04311" lon="3.59282">
        <ele>550.49</ele>
        <time>2019-10-27T13:07:13Z</time>
      </trkpt>
      <trkpt lat="45.04315" lon="3.59283">
        <ele>551.45</ele>
        <time>2019-10-27T13:07:16Z</time>
      </trkpt>
      <trkpt lat="45.04329" lon="3.59289">
        <ele>553.86</ele>
        <time>2019-10-27T13:07:29Z</time>
      </trkpt>
      <trkpt lat="45.0434" lon="3.59289">
        <ele>555.78</ele>
        <time>2019-10-27T13:07:36Z</time>
      </trkpt>
      <trkpt lat="45.04354" lon="3.59288">
        <ele>561.07</ele>
        <time>2019-10-27T13:07:48Z</time>
      </trkpt>
      <trkpt lat="45.04358" lon="3.59287">
        <ele>561.07</ele>
        <time>2019-10-27T13:07:51Z</time>
      </trkpt>
      <trkpt lat="45.04377" lon="3.59276">
        <ele>562.99</ele>
        <time>2019-10-27T13:08:07Z</time>
      </trkpt>
      <trkpt lat="45.04382" lon="3.59273">
        <ele>563.47</ele>
        <time>2019-10-27T13:08:11Z</time>
      </trkpt>
      <trkpt lat="45.04383" lon="3.59272">
        <ele>564.91</ele>
        <time>2019-10-27T13:08:13Z</time>
      </trkpt>
      <trkpt lat="45.04388" lon="3.59268">
        <ele>565.87</ele>
        <time>2019-10-27T13:08:17Z</time>
      </trkpt>
      <trkpt lat="45.044" lon="3.59258">
        <ele>565.39</ele>
        <time>2019-10-27T13:08:28Z</time>
      </trkpt>
      <trkpt lat="45.04421" lon="3.59248">
        <ele>557.7</ele>
        <time>2019-10-27T13:08:42Z</time>
      </trkpt>
      <trkpt lat="45.04445" lon="3.59232">
        <ele>555.78</ele>
        <time>2019-10-27T13:08:59Z</time>
      </trkpt>
      <trkpt lat="45.04461" lon="3.59224">
        <ele>554.34</ele>
        <time>2019-10-27T13:09:10Z</time>
      </trkpt>
      <trkpt lat="45.04466" lon="3.5922">
        <ele>553.38</ele>
        <time>2019-10-27T13:09:14Z</time>
      </trkpt>
      <trkpt lat="45.04473" lon="3.59213">
        <ele>553.86</ele>
        <time>2019-10-27T13:09:20Z</time>
      </trkpt>
      <trkpt lat="45.04491" lon="3.59195">
        <ele>555.3</ele>
        <time>2019-10-27T13:09:36Z</time>
      </trkpt>
      <trkpt lat="45.04509" lon="3.59178">
        <ele>556.26</ele>
        <time>2019-10-27T13:09:53Z</time>
      </trkpt>
      <trkpt lat="45.04531" lon="3.59161">
        <ele>556.74</ele>
        <time>2019-10-27T13:10:11Z</time>
      </trkpt>
      <trkpt lat="45.04549" lon="3.59149">
        <ele>556.74</ele>
        <time>2019-10-27T13:10:28Z</time>
      </trkpt>
      <trkpt lat="45.0455" lon="3.59148">
        <ele>556.26</ele>
        <time>2019-10-27T13:10:33Z</time>
      </trkpt>
      <trkpt lat="45.04554" lon="3.59143">
        <ele>556.74</ele>
        <time>2019-10-27T13:10:37Z</time>
      </trkpt>
      <trkpt lat="45.04567" lon="3.59134">
        <ele>558.18</ele>
        <time>2019-10-27T13:10:48Z</time>
      </trkpt>
      <trkpt lat="45.04579" lon="3.59116">
        <ele>549.53</ele>
        <time>2019-10-27T13:11:03Z</time>
      </trkpt>
      <trkpt lat="45.04579" lon="3.59115">
        <ele>548.57</ele>
        <time>2019-10-27T13:11:06Z</time>
      </trkpt>
      <trkpt lat="45.04583" lon="3.59111">
        <ele>550.01</ele>
        <time>2019-10-27T13:11:13Z</time>
      </trkpt>
      <trkpt lat="45.04589" lon="3.59108">
        <ele>550.01</ele>
        <time>2019-10-27T13:11:18Z</time>
      </trkpt>
      <trkpt lat="45.04598" lon="3.59105">
        <ele>550.49</ele>
        <time>2019-10-27T13:11:24Z</time>
      </trkpt>
      <trkpt lat="45.0461" lon="3.59099">
        <ele>552.9</ele>
        <time>2019-10-27T13:11:33Z</time>
      </trkpt>
      <trkpt lat="45.04616" lon="3.59098">
        <ele>553.86</ele>
        <time>2019-10-27T13:11:37Z</time>
      </trkpt>
      <trkpt lat="45.04633" lon="3.59084">
        <ele>559.14</ele>
        <time>2019-10-27T13:11:52Z</time>
      </trkpt>
      <trkpt lat="45.04638" lon="3.59074">
        <ele>559.62</ele>
        <time>2019-10-27T13:11:58Z</time>
      </trkpt>
      <trkpt lat="45.04653" lon="3.59048">
        <ele>559.62</ele>
        <time>2019-10-27T13:12:13Z</time>
      </trkpt>
      <trkpt lat="45.04658" lon="3.59031">
        <ele>566.83</ele>
        <time>2019-10-27T13:12:24Z</time>
      </trkpt>
      <trkpt lat="45.04668" lon="3.58999">
        <ele>574.04</ele>
        <time>2019-10-27T13:12:42Z</time>
      </trkpt>
      <trkpt lat="45.04679" lon="3.58972">
        <ele>574.53</ele>
        <time>2019-10-27T13:12:57Z</time>
      </trkpt>
      <trkpt lat="45.04687" lon="3.58944">
        <ele>575.01</ele>
        <time>2019-10-27T13:13:12Z</time>
      </trkpt>
      <trkpt lat="45.04693" lon="3.58912">
        <ele>574.53</ele>
        <time>2019-10-27T13:13:28Z</time>
      </trkpt>
      <trkpt lat="45.04706" lon="3.58872">
        <ele>562.03</ele>
        <time>2019-10-27T13:13:45Z</time>
      </trkpt>
      <trkpt lat="45.04716" lon="3.58841">
        <ele>559.62</ele>
        <time>2019-10-27T13:14:00Z</time>
      </trkpt>
      <trkpt lat="45.04724" lon="3.58814">
        <ele>562.03</ele>
        <time>2019-10-27T13:14:16Z</time>
      </trkpt>
      <trkpt lat="45.04734" lon="3.58775">
        <ele>560.59</ele>
        <time>2019-10-27T13:14:34Z</time>
      </trkpt>
      <trkpt lat="45.04741" lon="3.58744">
        <ele>562.03</ele>
        <time>2019-10-27T13:14:50Z</time>
      </trkpt>
      <trkpt lat="45.04744" lon="3.58724">
        <ele>551.93</ele>
        <time>2019-10-27T13:14:55Z</time>
      </trkpt>
      <trkpt lat="45.04748" lon="3.58711">
        <ele>550.01</ele>
        <time>2019-10-27T13:15:01Z</time>
      </trkpt>
      <trkpt lat="45.04757" lon="3.58688">
        <ele>544.24</ele>
        <time>2019-10-27T13:15:11Z</time>
      </trkpt>
      <trkpt lat="45.04765" lon="3.58669">
        <ele>542.8</ele>
        <time>2019-10-27T13:15:23Z</time>
      </trkpt>
      <trkpt lat="45.04772" lon="3.58648">
        <ele>542.32</ele>
        <time>2019-10-27T13:15:33Z</time>
      </trkpt>
      <trkpt lat="45.04775" lon="3.58633">
        <ele>541.36</ele>
        <time>2019-10-27T13:15:40Z</time>
      </trkpt>
      <trkpt lat="45.04778" lon="3.58622">
        <ele>541.36</ele>
        <time>2019-10-27T13:15:46Z</time>
      </trkpt>
      <trkpt lat="45.0478" lon="3.58612">
        <ele>541.84</ele>
        <time>2019-10-27T13:15:51Z</time>
      </trkpt>
      <trkpt lat="45.04786" lon="3.58591">
        <ele>541.36</ele>
        <time>2019-10-27T13:16:01Z</time>
      </trkpt>
      <trkpt lat="45.04789" lon="3.58578">
        <ele>540.4</ele>
        <time>2019-10-27T13:16:08Z</time>
      </trkpt>
      <trkpt lat="45.048" lon="3.58541">
        <ele>538.96</ele>
        <time>2019-10-27T13:16:28Z</time>
      </trkpt>
      <trkpt lat="45.04803" lon="3.58507">
        <ele>539.44</ele>
        <time>2019-10-27T13:16:45Z</time>
      </trkpt>
      <trkpt lat="45.04812" lon="3.58472">
        <ele>537.51</ele>
        <time>2019-10-27T13:17:03Z</time>
      </trkpt>
      <trkpt lat="45.04824" lon="3.58443">
        <ele>534.63</ele>
        <time>2019-10-27T13:17:19Z</time>
      </trkpt>
      <trkpt lat="45.04835" lon="3.58412">
        <ele>534.15</ele>
        <time>2019-10-27T13:17:36Z</time>
      </trkpt>
      <trkpt lat="45.04836" lon="3.58408">
        <ele>533.67</ele>
        <time>2019-10-27T13:17:38Z</time>
      </trkpt>
      <trkpt lat="45.04849" lon="3.58383">
        <ele>535.59</ele>
        <time>2019-10-27T13:17:54Z</time>
      </trkpt>
      <trkpt lat="45.04846" lon="3.58359">
        <ele>537.03</ele>
        <time>2019-10-27T13:18:08Z</time>
      </trkpt>
      <trkpt lat="45.04833" lon="3.58352">
        <ele>537.51</ele>
        <time>2019-10-27T13:18:17Z</time>
      </trkpt>
      <trkpt lat="45.04817" lon="3.58345">
        <ele>537.51</ele>
        <time>2019-10-27T13:18:31Z</time>
      </trkpt>
      <trkpt lat="45.04801" lon="3.58335">
        <ele>534.63</ele>
        <time>2019-10-27T13:18:43Z</time>
      </trkpt>
      <trkpt lat="45.04787" lon="3.58325">
        <ele>530.79</ele>
        <time>2019-10-27T13:18:54Z</time>
      </trkpt>
      <trkpt lat="45.04765" lon="3.58304">
        <ele>531.27</ele>
        <time>2019-10-27T13:19:09Z</time>
      </trkpt>
      <trkpt lat="45.04745" lon="3.58292">
        <ele>532.71</ele>
        <time>2019-10-27T13:19:22Z</time>
      </trkpt>
      <trkpt lat="45.04729" lon="3.58303">
        <ele>533.19</ele>
        <time>2019-10-27T13:19:34Z</time>
      </trkpt>
      <trkpt lat="45.04721" lon="3.58331">
        <ele>532.71</ele>
        <time>2019-10-27T13:19:47Z</time>
      </trkpt>
      <trkpt lat="45.0472" lon="3.58337">
        <ele>532.71</ele>
        <time>2019-10-27T13:19:50Z</time>
      </trkpt>
      <trkpt lat="45.04715" lon="3.58367">
        <ele>530.3</ele>
        <time>2019-10-27T13:20:06Z</time>
      </trkpt>
      <trkpt lat="45.04714" lon="3.58371">
        <ele>529.34</ele>
        <time>2019-10-27T13:20:10Z</time>
      </trkpt>
      <trkpt lat="45.04707" lon="3.58384">
        <ele>527.9</ele>
        <time>2019-10-27T13:20:19Z</time>
      </trkpt>
      <trkpt lat="45.04699" lon="3.58385">
        <ele>530.3</ele>
        <time>2019-10-27T13:20:28Z</time>
      </trkpt>
      <trkpt lat="45.04696" lon="3.5838">
        <ele>531.27</ele>
        <time>2019-10-27T13:20:32Z</time>
      </trkpt>
      <trkpt lat="45.04692" lon="3.58376">
        <ele>531.75</ele>
        <time>2019-10-27T13:20:36Z</time>
      </trkpt>
      <trkpt lat="45.04688" lon="3.5837">
        <ele>532.23</ele>
        <time>2019-10-27T13:20:40Z</time>
      </trkpt>
      <trkpt lat="45.04688" lon="3.58364">
        <ele>533.19</ele>
        <time>2019-10-27T13:20:44Z</time>
      </trkpt>
      <trkpt lat="45.04692" lon="3.58355">
        <ele>535.11</ele>
        <time>2019-10-27T13:20:50Z</time>
      </trkpt>
      <trkpt lat="45.04697" lon="3.58346">
        <ele>536.07</ele>
        <time>2019-10-27T13:20:55Z</time>
      </trkpt>
      <trkpt lat="45.047" lon="3.58323">
        <ele>538.96</ele>
        <time>2019-10-27T13:21:08Z</time>
      </trkpt>
      <trkpt lat="45.04697" lon="3.58302">
        <ele>543.76</ele>
        <time>2019-10-27T13:21:22Z</time>
      </trkpt>
      <trkpt lat="45.04697" lon="3.58299">
        <ele>544.72</ele>
        <time>2019-10-27T13:21:24Z</time>
      </trkpt>
      <trkpt lat="45.04702" lon="3.58274">
        <ele>550.01</ele>
        <time>2019-10-27T13:21:40Z</time>
      </trkpt>
      <trkpt lat="45.04704" lon="3.58252">
        <ele>553.86</ele>
        <time>2019-10-27T13:21:53Z</time>
      </trkpt>
      <trkpt lat="45.04703" lon="3.5823">
        <ele>558.66</ele>
        <time>2019-10-27T13:22:07Z</time>
      </trkpt>
      <trkpt lat="45.04703" lon="3.58223">
        <ele>560.59</ele>
        <time>2019-10-27T13:22:12Z</time>
      </trkpt>
      <trkpt lat="45.0471" lon="3.58211">
        <ele>560.59</ele>
        <time>2019-10-27T13:22:23Z</time>
      </trkpt>
      <trkpt lat="45.04721" lon="3.58197">
        <ele>562.51</ele>
        <time>2019-10-27T13:22:35Z</time>
      </trkpt>
      <trkpt lat="45.04722" lon="3.58196">
        <ele>562.51</ele>
        <time>2019-10-27T13:22:36Z</time>
      </trkpt>
      <trkpt lat="45.04735" lon="3.5818">
        <ele>564.43</ele>
        <time>2019-10-27T13:22:48Z</time>
      </trkpt>
      <trkpt lat="45.04735" lon="3.58177">
        <ele>564.43</ele>
        <time>2019-10-27T13:22:50Z</time>
      </trkpt>
      <trkpt lat="45.04741" lon="3.58168">
        <ele>565.87</ele>
        <time>2019-10-27T13:22:57Z</time>
      </trkpt>
      <trkpt lat="45.04749" lon="3.58152">
        <ele>567.8</ele>
        <time>2019-10-27T13:23:08Z</time>
      </trkpt>
      <trkpt lat="45.04749" lon="3.58152">
        <ele>567.8</ele>
        <time>2019-10-27T13:23:09Z</time>
      </trkpt>
      <trkpt lat="45.04743" lon="3.58152">
        <ele>567.32</ele>
        <time>2019-10-27T13:23:14Z</time>
      </trkpt>
      <trkpt lat="45.04739" lon="3.58154">
        <ele>568.28</ele>
        <time>2019-10-27T13:23:17Z</time>
      </trkpt>
      <trkpt lat="45.04734" lon="3.58158">
        <ele>568.76</ele>
        <time>2019-10-27T13:23:20Z</time>
      </trkpt>
      <trkpt lat="45.04729" lon="3.5816">
        <ele>569.72</ele>
        <time>2019-10-27T13:23:24Z</time>
      </trkpt>
      <trkpt lat="45.04716" lon="3.58165">
        <ele>576.45</ele>
        <time>2019-10-27T13:23:38Z</time>
      </trkpt>
      <trkpt lat="45.04703" lon="3.58174">
        <ele>583.18</ele>
        <time>2019-10-27T13:23:51Z</time>
      </trkpt>
      <trkpt lat="45.04697" lon="3.58171">
        <ele>585.1</ele>
        <time>2019-10-27T13:24:02Z</time>
      </trkpt>
      <trkpt lat="45.047" lon="3.58167">
        <ele>584.62</ele>
        <time>2019-10-27T13:24:08Z</time>
      </trkpt>
      <trkpt lat="45.04709" lon="3.58151">
        <ele>586.06</ele>
        <time>2019-10-27T13:24:22Z</time>
      </trkpt>
      <trkpt lat="45.04712" lon="3.58144">
        <ele>587.02</ele>
        <time>2019-10-27T13:24:27Z</time>
      </trkpt>
      <trkpt lat="45.04716" lon="3.58137">
        <ele>587.5</ele>
        <time>2019-10-27T13:24:33Z</time>
      </trkpt>
      <trkpt lat="45.04732" lon="3.58119">
        <ele>590.87</ele>
        <time>2019-10-27T13:24:49Z</time>
      </trkpt>
      <trkpt lat="45.04744" lon="3.58105">
        <ele>596.15</ele>
        <time>2019-10-27T13:25:02Z</time>
      </trkpt>
      <trkpt lat="45.04748" lon="3.58099">
        <ele>596.15</ele>
        <time>2019-10-27T13:25:07Z</time>
      </trkpt>
      <trkpt lat="45.04751" lon="3.58094">
        <ele>595.19</ele>
        <time>2019-10-27T13:25:10Z</time>
      </trkpt>
      <trkpt lat="45.04752" lon="3.58088">
        <ele>591.83</ele>
        <time>2019-10-27T13:25:19Z</time>
      </trkpt>
      <trkpt lat="45.04761" lon="3.58069">
        <ele>593.27</ele>
        <time>2019-10-27T13:25:31Z</time>
      </trkpt>
      <trkpt lat="45.04757" lon="3.58063">
        <ele>593.75</ele>
        <time>2019-10-27T13:25:36Z</time>
      </trkpt>
      <trkpt lat="45.04755" lon="3.58064">
        <ele>594.71</ele>
        <time>2019-10-27T13:25:39Z</time>
      </trkpt>
      <trkpt lat="45.0475" lon="3.58066">
        <ele>599.04</ele>
        <time>2019-10-27T13:25:46Z</time>
      </trkpt>
      <trkpt lat="45.04735" lon="3.58073">
        <ele>611.06</ele>
        <time>2019-10-27T13:26:01Z</time>
      </trkpt>
      <trkpt lat="45.0472" lon="3.58079">
        <ele>616.82</ele>
        <time>2019-10-27T13:26:14Z</time>
      </trkpt>
      <trkpt lat="45.0471" lon="3.58085">
        <ele>618.26</ele>
        <time>2019-10-27T13:26:23Z</time>
      </trkpt>
      <trkpt lat="45.04704" lon="3.58093">
        <ele>618.75</ele>
        <time>2019-10-27T13:26:29Z</time>
      </trkpt>
      <trkpt lat="45.04701" lon="3.58097">
        <ele>617.78</ele>
        <time>2019-10-27T13:26:32Z</time>
      </trkpt>
      <trkpt lat="45.04699" lon="3.58099">
        <ele>618.26</ele>
        <time>2019-10-27T13:26:34Z</time>
      </trkpt>
      <trkpt lat="45.04686" lon="3.58122">
        <ele>614.42</ele>
        <time>2019-10-27T13:26:48Z</time>
      </trkpt>
      <trkpt lat="45.04683" lon="3.58128">
        <ele>613.94</ele>
        <time>2019-10-27T13:26:52Z</time>
      </trkpt>
      <trkpt lat="45.04667" lon="3.58142">
        <ele>612.5</ele>
        <time>2019-10-27T13:27:08Z</time>
      </trkpt>
      <trkpt lat="45.04666" lon="3.58146">
        <ele>611.54</ele>
        <time>2019-10-27T13:27:22Z</time>
      </trkpt>
      <trkpt lat="45.04662" lon="3.58148">
        <ele>612.02</ele>
        <time>2019-10-27T13:27:39Z</time>
      </trkpt>
      <trkpt lat="45.04658" lon="3.58147">
        <ele>610.57</ele>
        <time>2019-10-27T13:27:52Z</time>
      </trkpt>
      <trkpt lat="45.04656" lon="3.58124">
        <ele>611.06</ele>
        <time>2019-10-27T13:28:06Z</time>
      </trkpt>
      <trkpt lat="45.04659" lon="3.58117">
        <ele>611.54</ele>
        <time>2019-10-27T13:28:12Z</time>
      </trkpt>
      <trkpt lat="45.04662" lon="3.581">
        <ele>613.94</ele>
        <time>2019-10-27T13:28:24Z</time>
      </trkpt>
      <trkpt lat="45.04666" lon="3.5809">
        <ele>613.94</ele>
        <time>2019-10-27T13:28:32Z</time>
      </trkpt>
      <trkpt lat="45.04673" lon="3.58073">
        <ele>615.86</ele>
        <time>2019-10-27T13:28:45Z</time>
      </trkpt>
      <trkpt lat="45.04677" lon="3.58067">
        <ele>616.34</ele>
        <time>2019-10-27T13:28:51Z</time>
      </trkpt>
      <trkpt lat="45.04683" lon="3.58058">
        <ele>617.78</ele>
        <time>2019-10-27T13:28:59Z</time>
      </trkpt>
      <trkpt lat="45.04689" lon="3.58051">
        <ele>618.26</ele>
        <time>2019-10-27T13:29:07Z</time>
      </trkpt>
      <trkpt lat="45.0469" lon="3.5805">
        <ele>618.26</ele>
        <time>2019-10-27T13:29:09Z</time>
      </trkpt>
      <trkpt lat="45.04701" lon="3.58036">
        <ele>619.23</ele>
        <time>2019-10-27T13:29:23Z</time>
      </trkpt>
      <trkpt lat="45.04705" lon="3.58032">
        <ele>619.71</ele>
        <time>2019-10-27T13:29:27Z</time>
      </trkpt>
      <trkpt lat="45.04718" lon="3.58012">
        <ele>624.51</ele>
        <time>2019-10-27T13:29:44Z</time>
      </trkpt>
      <trkpt lat="45.04724" lon="3.57997">
        <ele>627.4</ele>
        <time>2019-10-27T13:29:55Z</time>
      </trkpt>
      <trkpt lat="45.04738" lon="3.57977">
        <ele>629.8</ele>
        <time>2019-10-27T13:30:10Z</time>
      </trkpt>
      <trkpt lat="45.04749" lon="3.57956">
        <ele>631.24</ele>
        <time>2019-10-27T13:30:23Z</time>
      </trkpt>
      <trkpt lat="45.04751" lon="3.57953">
        <ele>631.72</ele>
        <time>2019-10-27T13:30:25Z</time>
      </trkpt>
      <trkpt lat="45.04764" lon="3.57931">
        <ele>635.09</ele>
        <time>2019-10-27T13:30:41Z</time>
      </trkpt>
      <trkpt lat="45.04772" lon="3.57917">
        <ele>637.49</ele>
        <time>2019-10-27T13:30:51Z</time>
      </trkpt>
      <trkpt lat="45.04782" lon="3.57905">
        <ele>637.97</ele>
        <time>2019-10-27T13:31:04Z</time>
      </trkpt>
      <trkpt lat="45.04795" lon="3.57889">
        <ele>641.34</ele>
        <time>2019-10-27T13:31:18Z</time>
      </trkpt>
      <trkpt lat="45.04802" lon="3.57881">
        <ele>641.82</ele>
        <time>2019-10-27T13:31:25Z</time>
      </trkpt>
      <trkpt lat="45.04803" lon="3.57878">
        <ele>642.3</ele>
        <time>2019-10-27T13:31:27Z</time>
      </trkpt>
      <trkpt lat="45.04813" lon="3.57869">
        <ele>646.14</ele>
        <time>2019-10-27T13:31:39Z</time>
      </trkpt>
      <trkpt lat="45.04816" lon="3.57864">
        <ele>646.62</ele>
        <time>2019-10-27T13:31:43Z</time>
      </trkpt>
      <trkpt lat="45.04818" lon="3.57863">
        <ele>647.1</ele>
        <time>2019-10-27T13:31:45Z</time>
      </trkpt>
      <trkpt lat="45.04833" lon="3.57852">
        <ele>650.47</ele>
        <time>2019-10-27T13:32:00Z</time>
      </trkpt>
      <trkpt lat="45.04843" lon="3.57845">
        <ele>652.87</ele>
        <time>2019-10-27T13:32:13Z</time>
      </trkpt>
      <trkpt lat="45.04856" lon="3.57837">
        <ele>657.68</ele>
        <time>2019-10-27T13:32:25Z</time>
      </trkpt>
      <trkpt lat="45.04857" lon="3.57837">
        <ele>658.16</ele>
        <time>2019-10-27T13:32:26Z</time>
      </trkpt>
      <trkpt lat="45.04862" lon="3.57833">
        <ele>659.6</ele>
        <time>2019-10-27T13:32:31Z</time>
      </trkpt>
      <trkpt lat="45.04873" lon="3.57824">
        <ele>661.52</ele>
        <time>2019-10-27T13:32:43Z</time>
      </trkpt>
      <trkpt lat="45.04876" lon="3.57821">
        <ele>662.01</ele>
        <time>2019-10-27T13:32:46Z</time>
      </trkpt>
      <trkpt lat="45.04877" lon="3.5782">
        <ele>662.49</ele>
        <time>2019-10-27T13:32:48Z</time>
      </trkpt>
      <trkpt lat="45.04885" lon="3.57803">
        <ele>665.85</ele>
        <time>2019-10-27T13:33:01Z</time>
      </trkpt>
      <trkpt lat="45.04891" lon="3.57789">
        <ele>668.25</ele>
        <time>2019-10-27T13:33:13Z</time>
      </trkpt>
      <trkpt lat="45.04892" lon="3.57788">
        <ele>668.73</ele>
        <time>2019-10-27T13:33:14Z</time>
      </trkpt>
      <trkpt lat="45.04894" lon="3.57785">
        <ele>669.22</ele>
        <time>2019-10-27T13:33:17Z</time>
      </trkpt>
      <trkpt lat="45.04907" lon="3.5777">
        <ele>675.46</ele>
        <time>2019-10-27T13:33:32Z</time>
      </trkpt>
      <trkpt lat="45.04922" lon="3.57756">
        <ele>677.39</ele>
        <time>2019-10-27T13:33:46Z</time>
      </trkpt>
      <trkpt lat="45.04941" lon="3.57749">
        <ele>680.27</ele>
        <time>2019-10-27T13:34:00Z</time>
      </trkpt>
      <trkpt lat="45.04943" lon="3.57747">
        <ele>680.27</ele>
        <time>2019-10-27T13:34:02Z</time>
      </trkpt>
      <trkpt lat="45.04952" lon="3.57745">
        <ele>680.75</ele>
        <time>2019-10-27T13:34:08Z</time>
      </trkpt>
      <trkpt lat="45.04974" lon="3.5774">
        <ele>683.63</ele>
        <time>2019-10-27T13:34:23Z</time>
      </trkpt>
      <trkpt lat="45.04997" lon="3.57729">
        <ele>686.52</ele>
        <time>2019-10-27T13:34:40Z</time>
      </trkpt>
      <trkpt lat="45.0501" lon="3.5772">
        <ele>687</ele>
        <time>2019-10-27T13:34:50Z</time>
      </trkpt>
      <trkpt lat="45.05026" lon="3.57709">
        <ele>688.44</ele>
        <time>2019-10-27T13:35:03Z</time>
      </trkpt>
      <trkpt lat="45.05036" lon="3.577">
        <ele>693.25</ele>
        <time>2019-10-27T13:35:13Z</time>
      </trkpt>
      <trkpt lat="45.05045" lon="3.5768">
        <ele>699.02</ele>
        <time>2019-10-27T13:35:28Z</time>
      </trkpt>
      <trkpt lat="45.05052" lon="3.57667">
        <ele>704.3</ele>
        <time>2019-10-27T13:35:40Z</time>
      </trkpt>
      <trkpt lat="45.05065" lon="3.57659">
        <ele>712.95</ele>
        <time>2019-10-27T13:35:53Z</time>
      </trkpt>
      <trkpt lat="45.05068" lon="3.57659">
        <ele>715.36</ele>
        <time>2019-10-27T13:35:56Z</time>
      </trkpt>
      <trkpt lat="45.05087" lon="3.57653">
        <ele>720.65</ele>
        <time>2019-10-27T13:36:10Z</time>
      </trkpt>
      <trkpt lat="45.05108" lon="3.57645">
        <ele>716.32</ele>
        <time>2019-10-27T13:36:24Z</time>
      </trkpt>
      <trkpt lat="45.05123" lon="3.5764">
        <ele>713.44</ele>
        <time>2019-10-27T13:36:35Z</time>
      </trkpt>
      <trkpt lat="45.05135" lon="3.57637">
        <ele>712.95</ele>
        <time>2019-10-27T13:36:44Z</time>
      </trkpt>
      <trkpt lat="45.05154" lon="3.57635">
        <ele>711.03</ele>
        <time>2019-10-27T13:36:59Z</time>
      </trkpt>
      <trkpt lat="45.05175" lon="3.57634">
        <ele>708.63</ele>
        <time>2019-10-27T13:37:15Z</time>
      </trkpt>
      <trkpt lat="45.05199" lon="3.57629">
        <ele>708.15</ele>
        <time>2019-10-27T13:37:33Z</time>
      </trkpt>
      <trkpt lat="45.05214" lon="3.57626">
        <ele>707.67</ele>
        <time>2019-10-27T13:37:44Z</time>
      </trkpt>
      <trkpt lat="45.05222" lon="3.57623">
        <ele>708.15</ele>
        <time>2019-10-27T13:37:50Z</time>
      </trkpt>
      <trkpt lat="45.05243" lon="3.57617">
        <ele>707.67</ele>
        <time>2019-10-27T13:38:06Z</time>
      </trkpt>
      <trkpt lat="45.05266" lon="3.57617">
        <ele>707.67</ele>
        <time>2019-10-27T13:38:23Z</time>
      </trkpt>
      <trkpt lat="45.05269" lon="3.57616">
        <ele>708.15</ele>
        <time>2019-10-27T13:38:27Z</time>
      </trkpt>
      <trkpt lat="45.0527" lon="3.57615">
        <ele>708.15</ele>
        <time>2019-10-27T13:38:34Z</time>
      </trkpt>
      <trkpt lat="45.05271" lon="3.57618">
        <ele>708.15</ele>
        <time>2019-10-27T13:38:48Z</time>
      </trkpt>
      <trkpt lat="45.05288" lon="3.57624">
        <ele>707.67</ele>
        <time>2019-10-27T13:39:03Z</time>
      </trkpt>
      <trkpt lat="45.0531" lon="3.57629">
        <ele>707.67</ele>
        <time>2019-10-27T13:39:21Z</time>
      </trkpt>
      <trkpt lat="45.05333" lon="3.57627">
        <ele>706.71</ele>
        <time>2019-10-27T13:39:38Z</time>
      </trkpt>
      <trkpt lat="45.05355" lon="3.57618">
        <ele>705.75</ele>
        <time>2019-10-27T13:39:55Z</time>
      </trkpt>
      <trkpt lat="45.05374" lon="3.57606">
        <ele>705.75</ele>
        <time>2019-10-27T13:40:11Z</time>
      </trkpt>
      <trkpt lat="45.05377" lon="3.57603">
        <ele>705.75</ele>
        <time>2019-10-27T13:40:14Z</time>
      </trkpt>
      <trkpt lat="45.05397" lon="3.57588">
        <ele>705.26</ele>
        <time>2019-10-27T13:40:31Z</time>
      </trkpt>
      <trkpt lat="45.05415" lon="3.57571">
        <ele>705.75</ele>
        <time>2019-10-27T13:40:48Z</time>
      </trkpt>
      <trkpt lat="45.05436" lon="3.57553">
        <ele>704.3</ele>
        <time>2019-10-27T13:41:07Z</time>
      </trkpt>
      <trkpt lat="45.05453" lon="3.57535">
        <ele>702.38</ele>
        <time>2019-10-27T13:41:24Z</time>
      </trkpt>
      <trkpt lat="45.05469" lon="3.57513">
        <ele>701.9</ele>
        <time>2019-10-27T13:41:41Z</time>
      </trkpt>
      <trkpt lat="45.05483" lon="3.57487">
        <ele>698.53</ele>
        <time>2019-10-27T13:41:59Z</time>
      </trkpt>
      <trkpt lat="45.05492" lon="3.57467">
        <ele>697.57</ele>
        <time>2019-10-27T13:42:12Z</time>
      </trkpt>
      <trkpt lat="45.05505" lon="3.57432">
        <ele>696.61</ele>
        <time>2019-10-27T13:42:32Z</time>
      </trkpt>
      <trkpt lat="45.05516" lon="3.57407">
        <ele>695.17</ele>
        <time>2019-10-27T13:42:47Z</time>
      </trkpt>
      <trkpt lat="45.05526" lon="3.57381">
        <ele>693.25</ele>
        <time>2019-10-27T13:43:01Z</time>
      </trkpt>
      <trkpt lat="45.05533" lon="3.5735">
        <ele>690.84</ele>
        <time>2019-10-27T13:43:18Z</time>
      </trkpt>
      <trkpt lat="45.05541" lon="3.57314">
        <ele>690.36</ele>
        <time>2019-10-27T13:43:37Z</time>
      </trkpt>
      <trkpt lat="45.05543" lon="3.57304">
        <ele>690.36</ele>
        <time>2019-10-27T13:43:43Z</time>
      </trkpt>
      <trkpt lat="45.05543" lon="3.57293">
        <ele>689.88</ele>
        <time>2019-10-27T13:43:49Z</time>
      </trkpt>
      <trkpt lat="45.05543" lon="3.57258">
        <ele>689.4</ele>
        <time>2019-10-27T13:44:06Z</time>
      </trkpt>
      <trkpt lat="45.0554" lon="3.57224">
        <ele>688.92</ele>
        <time>2019-10-27T13:44:23Z</time>
      </trkpt>
      <trkpt lat="45.05538" lon="3.57183">
        <ele>688.44</ele>
        <time>2019-10-27T13:44:43Z</time>
      </trkpt>
      <trkpt lat="45.05536" lon="3.57144">
        <ele>687.96</ele>
        <time>2019-10-27T13:45:02Z</time>
      </trkpt>
      <trkpt lat="45.05536" lon="3.57113">
        <ele>689.88</ele>
        <time>2019-10-27T13:45:18Z</time>
      </trkpt>
      <trkpt lat="45.05534" lon="3.57072">
        <ele>689.4</ele>
        <time>2019-10-27T13:45:38Z</time>
      </trkpt>
      <trkpt lat="45.0553" lon="3.57039">
        <ele>688.44</ele>
        <time>2019-10-27T13:45:55Z</time>
      </trkpt>
      <trkpt lat="45.05525" lon="3.57008">
        <ele>687.96</ele>
        <time>2019-10-27T13:46:10Z</time>
      </trkpt>
      <trkpt lat="45.0552" lon="3.5698">
        <ele>690.36</ele>
        <time>2019-10-27T13:46:26Z</time>
      </trkpt>
      <trkpt lat="45.05515" lon="3.56946">
        <ele>691.81</ele>
        <time>2019-10-27T13:46:44Z</time>
      </trkpt>
      <trkpt lat="45.05512" lon="3.56918">
        <ele>693.73</ele>
        <time>2019-10-27T13:46:59Z</time>
      </trkpt>
      <trkpt lat="45.0551" lon="3.56905">
        <ele>694.69</ele>
        <time>2019-10-27T13:47:06Z</time>
      </trkpt>
      <trkpt lat="45.05502" lon="3.56874">
        <ele>695.17</ele>
        <time>2019-10-27T13:47:22Z</time>
      </trkpt>
      <trkpt lat="45.05497" lon="3.56848">
        <ele>696.61</ele>
        <time>2019-10-27T13:47:36Z</time>
      </trkpt>
      <trkpt lat="45.05512" lon="3.56824">
        <ele>696.61</ele>
        <time>2019-10-27T13:47:52Z</time>
      </trkpt>
      <trkpt lat="45.0553" lon="3.56815">
        <ele>698.05</ele>
        <time>2019-10-27T13:48:05Z</time>
      </trkpt>
      <trkpt lat="45.05549" lon="3.56807">
        <ele>698.53</ele>
        <time>2019-10-27T13:48:19Z</time>
      </trkpt>
      <trkpt lat="45.05564" lon="3.56796">
        <ele>701.42</ele>
        <time>2019-10-27T13:48:32Z</time>
      </trkpt>
      <trkpt lat="45.05587" lon="3.56772">
        <ele>702.86</ele>
        <time>2019-10-27T13:48:50Z</time>
      </trkpt>
      <trkpt lat="45.05603" lon="3.56748">
        <ele>698.05</ele>
        <time>2019-10-27T13:49:07Z</time>
      </trkpt>
      <trkpt lat="45.05619" lon="3.5672">
        <ele>693.73</ele>
        <time>2019-10-27T13:49:24Z</time>
      </trkpt>
      <trkpt lat="45.05635" lon="3.56693">
        <ele>688.92</ele>
        <time>2019-10-27T13:49:41Z</time>
      </trkpt>
      <trkpt lat="45.05651" lon="3.56675">
        <ele>688.92</ele>
        <time>2019-10-27T13:49:54Z</time>
      </trkpt>
      <trkpt lat="45.05662" lon="3.5666">
        <ele>689.4</ele>
        <time>2019-10-27T13:50:05Z</time>
      </trkpt>
      <trkpt lat="45.05673" lon="3.56651">
        <ele>696.13</ele>
        <time>2019-10-27T13:50:18Z</time>
      </trkpt>
      <trkpt lat="45.05682" lon="3.56637">
        <ele>699.5</ele>
        <time>2019-10-27T13:50:31Z</time>
      </trkpt>
      <trkpt lat="45.0569" lon="3.56627">
        <ele>703.82</ele>
        <time>2019-10-27T13:50:43Z</time>
      </trkpt>
      <trkpt lat="45.05692" lon="3.56624">
        <ele>704.3</ele>
        <time>2019-10-27T13:50:45Z</time>
      </trkpt>
      <trkpt lat="45.05696" lon="3.5662">
        <ele>705.75</ele>
        <time>2019-10-27T13:50:49Z</time>
      </trkpt>
      <trkpt lat="45.05706" lon="3.56601">
        <ele>709.11</ele>
        <time>2019-10-27T13:51:00Z</time>
      </trkpt>
      <trkpt lat="45.05709" lon="3.56595">
        <ele>709.11</ele>
        <time>2019-10-27T13:51:04Z</time>
      </trkpt>
      <trkpt lat="45.05715" lon="3.56591">
        <ele>709.59</ele>
        <time>2019-10-27T13:51:09Z</time>
      </trkpt>
      <trkpt lat="45.05719" lon="3.56586">
        <ele>709.11</ele>
        <time>2019-10-27T13:51:13Z</time>
      </trkpt>
      <trkpt lat="45.05732" lon="3.56574">
        <ele>709.11</ele>
        <time>2019-10-27T13:51:25Z</time>
      </trkpt>
      <trkpt lat="45.05747" lon="3.56543">
        <ele>706.23</ele>
        <time>2019-10-27T13:51:37Z</time>
      </trkpt>
      <trkpt lat="45.0577" lon="3.56515">
        <ele>702.38</ele>
        <time>2019-10-27T13:51:51Z</time>
      </trkpt>
      <trkpt lat="45.05784" lon="3.56503">
        <ele>699.02</ele>
        <time>2019-10-27T13:51:59Z</time>
      </trkpt>
      <trkpt lat="45.0579" lon="3.56498">
        <ele>697.09</ele>
        <time>2019-10-27T13:52:03Z</time>
      </trkpt>
      <trkpt lat="45.05818" lon="3.5649">
        <ele>688.92</ele>
        <time>2019-10-27T13:52:21Z</time>
      </trkpt>
      <trkpt lat="45.0584" lon="3.56478">
        <ele>680.75</ele>
        <time>2019-10-27T13:52:36Z</time>
      </trkpt>
      <trkpt lat="45.05845" lon="3.56475">
        <ele>679.31</ele>
        <time>2019-10-27T13:52:39Z</time>
      </trkpt>
      <trkpt lat="45.05869" lon="3.56466">
        <ele>680.75</ele>
        <time>2019-10-27T13:52:55Z</time>
      </trkpt>
      <trkpt lat="45.05889" lon="3.56458">
        <ele>682.67</ele>
        <time>2019-10-27T13:53:10Z</time>
      </trkpt>
      <trkpt lat="45.05908" lon="3.56449">
        <ele>682.67</ele>
        <time>2019-10-27T13:53:23Z</time>
      </trkpt>
      <trkpt lat="45.05915" lon="3.56448">
        <ele>683.15</ele>
        <time>2019-10-27T13:53:28Z</time>
      </trkpt>
      <trkpt lat="45.05924" lon="3.5645">
        <ele>687.96</ele>
        <time>2019-10-27T13:53:36Z</time>
      </trkpt>
      <trkpt lat="45.05939" lon="3.56447">
        <ele>688.44</ele>
        <time>2019-10-27T13:53:46Z</time>
      </trkpt>
      <trkpt lat="45.05958" lon="3.56442">
        <ele>685.56</ele>
        <time>2019-10-27T13:53:58Z</time>
      </trkpt>
      <trkpt lat="45.05966" lon="3.56439">
        <ele>685.08</ele>
        <time>2019-10-27T13:54:03Z</time>
      </trkpt>
      <trkpt lat="45.05983" lon="3.56428">
        <ele>685.08</ele>
        <time>2019-10-27T13:54:17Z</time>
      </trkpt>
      <trkpt lat="45.05996" lon="3.5642">
        <ele>688.92</ele>
        <time>2019-10-27T13:54:27Z</time>
      </trkpt>
      <trkpt lat="45.05999" lon="3.56415">
        <ele>689.88</ele>
        <time>2019-10-27T13:54:32Z</time>
      </trkpt>
      <trkpt lat="45.06007" lon="3.56394">
        <ele>689.88</ele>
        <time>2019-10-27T13:54:45Z</time>
      </trkpt>
      <trkpt lat="45.06014" lon="3.56375">
        <ele>690.36</ele>
        <time>2019-10-27T13:54:57Z</time>
      </trkpt>
      <trkpt lat="45.06016" lon="3.56368">
        <ele>691.33</ele>
        <time>2019-10-27T13:55:00Z</time>
      </trkpt>
      <trkpt lat="45.06017" lon="3.56343">
        <ele>688.92</ele>
        <time>2019-10-27T13:55:10Z</time>
      </trkpt>
      <trkpt lat="45.06014" lon="3.56322">
        <ele>685.56</ele>
        <time>2019-10-27T13:55:17Z</time>
      </trkpt>
      <trkpt lat="45.06014" lon="3.56309">
        <ele>682.19</ele>
        <time>2019-10-27T13:55:21Z</time>
      </trkpt>
      <trkpt lat="45.06011" lon="3.563">
        <ele>679.79</ele>
        <time>2019-10-27T13:55:27Z</time>
      </trkpt>
      <trkpt lat="45.06006" lon="3.56288">
        <ele>674.98</ele>
        <time>2019-10-27T13:55:36Z</time>
      </trkpt>
      <trkpt lat="45.06007" lon="3.56282">
        <ele>673.06</ele>
        <time>2019-10-27T13:55:50Z</time>
      </trkpt>
      <trkpt lat="45.06008" lon="3.5628">
        <ele>670.66</ele>
        <time>2019-10-27T13:56:01Z</time>
      </trkpt>
      <trkpt lat="45.06008" lon="3.56278">
        <ele>668.73</ele>
        <time>2019-10-27T13:56:16Z</time>
      </trkpt>
      <trkpt lat="45.06007" lon="3.56278">
        <ele>668.25</ele>
        <time>2019-10-27T13:56:29Z</time>
      </trkpt>
      <trkpt lat="45.06005" lon="3.56278">
        <ele>667.77</ele>
        <time>2019-10-27T13:56:46Z</time>
      </trkpt>
      <trkpt lat="45.06006" lon="3.5628">
        <ele>667.29</ele>
        <time>2019-10-27T13:57:02Z</time>
      </trkpt>
      <trkpt lat="45.06006" lon="3.56283">
        <ele>666.81</ele>
        <time>2019-10-27T13:57:15Z</time>
      </trkpt>
      <trkpt lat="45.06005" lon="3.5628">
        <ele>665.85</ele>
        <time>2019-10-27T13:57:32Z</time>
      </trkpt>
      <trkpt lat="45.06005" lon="3.56281">
        <ele>665.85</ele>
        <time>2019-10-27T13:57:49Z</time>
      </trkpt>
      <trkpt lat="45.06005" lon="3.56282">
        <ele>665.85</ele>
        <time>2019-10-27T13:58:06Z</time>
      </trkpt>
      <trkpt lat="45.06006" lon="3.56283">
        <ele>665.37</ele>
        <time>2019-10-27T13:58:22Z</time>
      </trkpt>
      <trkpt lat="45.06007" lon="3.56284">
        <ele>665.85</ele>
        <time>2019-10-27T13:58:42Z</time>
      </trkpt>
      <trkpt lat="45.06007" lon="3.56286">
        <ele>665.37</ele>
        <time>2019-10-27T13:58:58Z</time>
      </trkpt>
      <trkpt lat="45.06007" lon="3.56287">
        <ele>666.33</ele>
        <time>2019-10-27T13:59:14Z</time>
      </trkpt>
      <trkpt lat="45.06008" lon="3.56288">
        <ele>666.81</ele>
        <time>2019-10-27T13:59:31Z</time>
      </trkpt>
      <trkpt lat="45.06008" lon="3.56289">
        <ele>666.33</ele>
        <time>2019-10-27T13:59:46Z</time>
      </trkpt>
      <trkpt lat="45.06008" lon="3.56289">
        <ele>666.33</ele>
        <time>2019-10-27T13:59:58Z</time>
      </trkpt>
      <trkpt lat="45.06009" lon="3.56289">
        <ele>666.81</ele>
        <time>2019-10-27T14:00:12Z</time>
      </trkpt>
      <trkpt lat="45.06009" lon="3.56289">
        <ele>666.81</ele>
        <time>2019-10-27T14:00:29Z</time>
      </trkpt>
      <trkpt lat="45.06009" lon="3.56288">
        <ele>666.81</ele>
        <time>2019-10-27T14:00:47Z</time>
      </trkpt>
      <trkpt lat="45.06009" lon="3.56289">
        <ele>667.29</ele>
        <time>2019-10-27T14:01:05Z</time>
      </trkpt>
      <trkpt lat="45.06008" lon="3.56288">
        <ele>666.81</ele>
        <time>2019-10-27T14:01:26Z</time>
      </trkpt>
      <trkpt lat="45.06009" lon="3.56288">
        <ele>666.81</ele>
        <time>2019-10-27T14:01:44Z</time>
      </trkpt>
      <trkpt lat="45.06009" lon="3.56288">
        <ele>666.33</ele>
        <time>2019-10-27T14:02:00Z</time>
      </trkpt>
      <trkpt lat="45.06008" lon="3.56288">
        <ele>666.33</ele>
        <time>2019-10-27T14:02:18Z</time>
      </trkpt>
      <trkpt lat="45.06007" lon="3.56285">
        <ele>666.81</ele>
        <time>2019-10-27T14:02:31Z</time>
      </trkpt>
      <trkpt lat="45.06006" lon="3.56281">
        <ele>666.81</ele>
        <time>2019-10-27T14:02:44Z</time>
      </trkpt>
      <trkpt lat="45.06005" lon="3.5628">
        <ele>666.81</ele>
        <time>2019-10-27T14:03:02Z</time>
      </trkpt>
      <trkpt lat="45.06003" lon="3.56279">
        <ele>667.29</ele>
        <time>2019-10-27T14:03:18Z</time>
      </trkpt>
      <trkpt lat="45.06003" lon="3.56279">
        <ele>667.29</ele>
        <time>2019-10-27T14:03:30Z</time>
      </trkpt>
      <trkpt lat="45.06003" lon="3.5628">
        <ele>667.29</ele>
        <time>2019-10-27T14:03:46Z</time>
      </trkpt>
      <trkpt lat="45.06004" lon="3.56283">
        <ele>667.29</ele>
        <time>2019-10-27T14:04:02Z</time>
      </trkpt>
      <trkpt lat="45.06005" lon="3.56283">
        <ele>666.81</ele>
        <time>2019-10-27T14:04:25Z</time>
      </trkpt>
      <trkpt lat="45.06006" lon="3.56284">
        <ele>666.81</ele>
        <time>2019-10-27T14:04:45Z</time>
      </trkpt>
      <trkpt lat="45.06007" lon="3.56286">
        <ele>667.29</ele>
        <time>2019-10-27T14:04:59Z</time>
      </trkpt>
      <trkpt lat="45.0601" lon="3.56288">
        <ele>667.29</ele>
        <time>2019-10-27T14:05:19Z</time>
      </trkpt>
      <trkpt lat="45.0601" lon="3.56289">
        <ele>667.77</ele>
        <time>2019-10-27T14:05:42Z</time>
      </trkpt>
      <trkpt lat="45.06011" lon="3.56286">
        <ele>666.81</ele>
        <time>2019-10-27T14:06:04Z</time>
      </trkpt>
      <trkpt lat="45.06011" lon="3.5629">
        <ele>666.81</ele>
        <time>2019-10-27T14:06:20Z</time>
      </trkpt>
      <trkpt lat="45.06011" lon="3.56289">
        <ele>666.81</ele>
        <time>2019-10-27T14:06:35Z</time>
      </trkpt>
      <trkpt lat="45.0601" lon="3.56289">
        <ele>666.81</ele>
        <time>2019-10-27T14:06:53Z</time>
      </trkpt>
      <trkpt lat="45.0601" lon="3.56289">
        <ele>666.33</ele>
        <time>2019-10-27T14:07:17Z</time>
      </trkpt>
      <trkpt lat="45.06009" lon="3.5629">
        <ele>666.81</ele>
        <time>2019-10-27T14:07:38Z</time>
      </trkpt>
      <trkpt lat="45.06009" lon="3.56289">
        <ele>666.81</ele>
        <time>2019-10-27T14:07:54Z</time>
      </trkpt>
      <trkpt lat="45.06009" lon="3.5629">
        <ele>666.81</ele>
        <time>2019-10-27T14:08:13Z</time>
      </trkpt>
      <trkpt lat="45.0601" lon="3.5629">
        <ele>666.81</ele>
        <time>2019-10-27T14:08:24Z</time>
      </trkpt>
      <trkpt lat="45.06011" lon="3.56292">
        <ele>666.33</ele>
        <time>2019-10-27T14:08:40Z</time>
      </trkpt>
      <trkpt lat="45.0602" lon="3.56302">
        <ele>665.37</ele>
        <time>2019-10-27T14:08:55Z</time>
      </trkpt>
      <trkpt lat="45.06028" lon="3.56312">
        <ele>663.93</ele>
        <time>2019-10-27T14:09:05Z</time>
      </trkpt>
      <trkpt lat="45.06037" lon="3.56309">
        <ele>663.93</ele>
        <time>2019-10-27T14:09:15Z</time>
      </trkpt>
      <trkpt lat="45.06047" lon="3.56296">
        <ele>667.77</ele>
        <time>2019-10-27T14:09:30Z</time>
      </trkpt>
      <trkpt lat="45.06049" lon="3.56294">
        <ele>668.25</ele>
        <time>2019-10-27T14:09:32Z</time>
      </trkpt>
      <trkpt lat="45.06053" lon="3.56274">
        <ele>672.58</ele>
        <time>2019-10-27T14:09:46Z</time>
      </trkpt>
      <trkpt lat="45.06054" lon="3.56252">
        <ele>670.66</ele>
        <time>2019-10-27T14:10:00Z</time>
      </trkpt>
      <trkpt lat="45.06051" lon="3.56231">
        <ele>667.29</ele>
        <time>2019-10-27T14:10:16Z</time>
      </trkpt>
      <trkpt lat="45.0605" lon="3.5622">
        <ele>664.89</ele>
        <time>2019-10-27T14:10:22Z</time>
      </trkpt>
      <trkpt lat="45.06051" lon="3.56193">
        <ele>660.08</ele>
        <time>2019-10-27T14:10:34Z</time>
      </trkpt>
      <trkpt lat="45.06049" lon="3.56163">
        <ele>652.39</ele>
        <time>2019-10-27T14:10:50Z</time>
      </trkpt>
      <trkpt lat="45.06045" lon="3.5613">
        <ele>647.59</ele>
        <time>2019-10-27T14:11:08Z</time>
      </trkpt>
      <trkpt lat="45.06044" lon="3.56101">
        <ele>643.74</ele>
        <time>2019-10-27T14:11:24Z</time>
      </trkpt>
      <trkpt lat="45.0605" lon="3.5607">
        <ele>640.86</ele>
        <time>2019-10-27T14:11:42Z</time>
      </trkpt>
      <trkpt lat="45.06059" lon="3.56033">
        <ele>637.49</ele>
        <time>2019-10-27T14:12:03Z</time>
      </trkpt>
      <trkpt lat="45.06062" lon="3.56007">
        <ele>635.57</ele>
        <time>2019-10-27T14:12:18Z</time>
      </trkpt>
      <trkpt lat="45.0607" lon="3.55984">
        <ele>632.68</ele>
        <time>2019-10-27T14:12:32Z</time>
      </trkpt>
      <trkpt lat="45.06082" lon="3.55963">
        <ele>633.65</ele>
        <time>2019-10-27T14:12:48Z</time>
      </trkpt>
      <trkpt lat="45.06099" lon="3.55936">
        <ele>629.8</ele>
        <time>2019-10-27T14:13:07Z</time>
      </trkpt>
      <trkpt lat="45.06107" lon="3.55903">
        <ele>628.84</ele>
        <time>2019-10-27T14:13:25Z</time>
      </trkpt>
      <trkpt lat="45.06116" lon="3.55877">
        <ele>626.92</ele>
        <time>2019-10-27T14:13:39Z</time>
      </trkpt>
      <trkpt lat="45.06125" lon="3.55842">
        <ele>627.4</ele>
        <time>2019-10-27T14:13:57Z</time>
      </trkpt>
      <trkpt lat="45.0613" lon="3.55809">
        <ele>625.47</ele>
        <time>2019-10-27T14:14:14Z</time>
      </trkpt>
      <trkpt lat="45.06132" lon="3.55776">
        <ele>624.51</ele>
        <time>2019-10-27T14:14:30Z</time>
      </trkpt>
      <trkpt lat="45.06134" lon="3.55736">
        <ele>622.11</ele>
        <time>2019-10-27T14:14:50Z</time>
      </trkpt>
      <trkpt lat="45.06136" lon="3.55684">
        <ele>621.15</ele>
        <time>2019-10-27T14:15:16Z</time>
      </trkpt>
      <trkpt lat="45.06139" lon="3.55648">
        <ele>620.19</ele>
        <time>2019-10-27T14:15:35Z</time>
      </trkpt>
      <trkpt lat="45.06143" lon="3.5561">
        <ele>620.19</ele>
        <time>2019-10-27T14:15:54Z</time>
      </trkpt>
      <trkpt lat="45.0614" lon="3.55574">
        <ele>619.23</ele>
        <time>2019-10-27T14:16:12Z</time>
      </trkpt>
      <trkpt lat="45.06135" lon="3.55544">
        <ele>619.23</ele>
        <time>2019-10-27T14:16:28Z</time>
      </trkpt>
      <trkpt lat="45.06143" lon="3.55509">
        <ele>619.71</ele>
        <time>2019-10-27T14:16:47Z</time>
      </trkpt>
      <trkpt lat="45.06136" lon="3.55479">
        <ele>618.75</ele>
        <time>2019-10-27T14:17:04Z</time>
      </trkpt>
      <trkpt lat="45.06117" lon="3.55456">
        <ele>618.26</ele>
        <time>2019-10-27T14:17:23Z</time>
      </trkpt>
      <trkpt lat="45.06099" lon="3.55432">
        <ele>617.3</ele>
        <time>2019-10-27T14:17:41Z</time>
      </trkpt>
      <trkpt lat="45.06081" lon="3.55409">
        <ele>614.9</ele>
        <time>2019-10-27T14:18:00Z</time>
      </trkpt>
      <trkpt lat="45.06062" lon="3.55385">
        <ele>613.46</ele>
        <time>2019-10-27T14:18:19Z</time>
      </trkpt>
      <trkpt lat="45.06046" lon="3.55364">
        <ele>611.54</ele>
        <time>2019-10-27T14:18:36Z</time>
      </trkpt>
      <trkpt lat="45.06029" lon="3.55346">
        <ele>611.06</ele>
        <time>2019-10-27T14:18:53Z</time>
      </trkpt>
      <trkpt lat="45.06014" lon="3.55345">
        <ele>610.57</ele>
        <time>2019-10-27T14:19:05Z</time>
      </trkpt>
      <trkpt lat="45.06007" lon="3.55337">
        <ele>610.57</ele>
        <time>2019-10-27T14:19:13Z</time>
      </trkpt>
      <trkpt lat="45.06002" lon="3.55328">
        <ele>611.06</ele>
        <time>2019-10-27T14:19:20Z</time>
      </trkpt>
      <trkpt lat="45.05995" lon="3.55325">
        <ele>612.5</ele>
        <time>2019-10-27T14:19:25Z</time>
      </trkpt>
      <trkpt lat="45.05992" lon="3.5532">
        <ele>613.46</ele>
        <time>2019-10-27T14:19:29Z</time>
      </trkpt>
      <trkpt lat="45.0599" lon="3.55292">
        <ele>612.5</ele>
        <time>2019-10-27T14:19:45Z</time>
      </trkpt>
      <trkpt lat="45.05998" lon="3.55276">
        <ele>611.54</ele>
        <time>2019-10-27T14:19:55Z</time>
      </trkpt>
      <trkpt lat="45.06" lon="3.55261">
        <ele>609.61</ele>
        <time>2019-10-27T14:20:10Z</time>
      </trkpt>
      <trkpt lat="45.06" lon="3.55259">
        <ele>608.65</ele>
        <time>2019-10-27T14:20:12Z</time>
      </trkpt>
      <trkpt lat="45.05988" lon="3.55258">
        <ele>605.29</ele>
        <time>2019-10-27T14:20:29Z</time>
      </trkpt>
      <trkpt lat="45.05986" lon="3.55257">
        <ele>605.77</ele>
        <time>2019-10-27T14:20:31Z</time>
      </trkpt>
      <trkpt lat="45.05976" lon="3.55246">
        <ele>608.65</ele>
        <time>2019-10-27T14:20:45Z</time>
      </trkpt>
      <trkpt lat="45.05964" lon="3.55241">
        <ele>601.44</ele>
        <time>2019-10-27T14:20:55Z</time>
      </trkpt>
      <trkpt lat="45.05947" lon="3.55253">
        <ele>596.64</ele>
        <time>2019-10-27T14:21:12Z</time>
      </trkpt>
      <trkpt lat="45.05943" lon="3.55246">
        <ele>593.75</ele>
        <time>2019-10-27T14:21:19Z</time>
      </trkpt>
      <trkpt lat="45.05942" lon="3.55233">
        <ele>590.39</ele>
        <time>2019-10-27T14:21:29Z</time>
      </trkpt>
      <trkpt lat="45.05939" lon="3.5521">
        <ele>584.14</ele>
        <time>2019-10-27T14:21:43Z</time>
      </trkpt>
      <trkpt lat="45.05937" lon="3.55202">
        <ele>582.7</ele>
        <time>2019-10-27T14:21:48Z</time>
      </trkpt>
      <trkpt lat="45.05932" lon="3.55181">
        <ele>582.22</ele>
        <time>2019-10-27T14:22:00Z</time>
      </trkpt>
      <trkpt lat="45.0593" lon="3.55171">
        <ele>582.22</ele>
        <time>2019-10-27T14:22:06Z</time>
      </trkpt>
      <trkpt lat="45.05926" lon="3.55161">
        <ele>583.66</ele>
        <time>2019-10-27T14:22:13Z</time>
      </trkpt>
      <trkpt lat="45.05919" lon="3.5515">
        <ele>585.1</ele>
        <time>2019-10-27T14:22:24Z</time>
      </trkpt>
      <trkpt lat="45.05917" lon="3.55134">
        <ele>583.66</ele>
        <time>2019-10-27T14:22:35Z</time>
      </trkpt>
      <trkpt lat="45.05914" lon="3.55121">
        <ele>582.7</ele>
        <time>2019-10-27T14:22:48Z</time>
      </trkpt>
      <trkpt lat="45.05914" lon="3.55111">
        <ele>583.18</ele>
        <time>2019-10-27T14:22:59Z</time>
      </trkpt>
      <trkpt lat="45.05914" lon="3.55099">
        <ele>582.7</ele>
        <time>2019-10-27T14:23:08Z</time>
      </trkpt>
      <trkpt lat="45.05909" lon="3.5509">
        <ele>582.7</ele>
        <time>2019-10-27T14:23:18Z</time>
      </trkpt>
      <trkpt lat="45.05909" lon="3.55089">
        <ele>582.7</ele>
        <time>2019-10-27T14:23:19Z</time>
      </trkpt>
      <trkpt lat="45.05908" lon="3.55079">
        <ele>582.7</ele>
        <time>2019-10-27T14:23:23Z</time>
      </trkpt>
      <trkpt lat="45.05907" lon="3.55066">
        <ele>581.73</ele>
        <time>2019-10-27T14:23:27Z</time>
      </trkpt>
      <trkpt lat="45.05913" lon="3.55021">
        <ele>571.64</ele>
        <time>2019-10-27T14:23:38Z</time>
      </trkpt>
      <trkpt lat="45.05915" lon="3.55012">
        <ele>567.8</ele>
        <time>2019-10-27T14:23:43Z</time>
      </trkpt>
      <trkpt lat="45.05925" lon="3.54986">
        <ele>563.95</ele>
        <time>2019-10-27T14:23:58Z</time>
      </trkpt>
      <trkpt lat="45.05933" lon="3.54961">
        <ele>560.59</ele>
        <time>2019-10-27T14:24:13Z</time>
      </trkpt>
      <trkpt lat="45.05935" lon="3.5495">
        <ele>560.11</ele>
        <time>2019-10-27T14:24:21Z</time>
      </trkpt>
      <trkpt lat="45.05939" lon="3.5493">
        <ele>556.74</ele>
        <time>2019-10-27T14:24:34Z</time>
      </trkpt>
      <trkpt lat="45.05938" lon="3.54904">
        <ele>554.82</ele>
        <time>2019-10-27T14:24:51Z</time>
      </trkpt>
      <trkpt lat="45.05938" lon="3.5488">
        <ele>555.3</ele>
        <time>2019-10-27T14:25:04Z</time>
      </trkpt>
      <trkpt lat="45.05942" lon="3.5487">
        <ele>553.86</ele>
        <time>2019-10-27T14:25:17Z</time>
      </trkpt>
      <trkpt lat="45.05947" lon="3.54867">
        <ele>553.38</ele>
        <time>2019-10-27T14:25:24Z</time>
      </trkpt>
      <trkpt lat="45.05954" lon="3.54863">
        <ele>552.9</ele>
        <time>2019-10-27T14:25:29Z</time>
      </trkpt>
      <trkpt lat="45.05978" lon="3.54853">
        <ele>550.01</ele>
        <time>2019-10-27T14:25:47Z</time>
      </trkpt>
      <trkpt lat="45.0598" lon="3.54853">
        <ele>550.01</ele>
        <time>2019-10-27T14:25:49Z</time>
      </trkpt>
      <trkpt lat="45.05992" lon="3.5485">
        <ele>549.05</ele>
        <time>2019-10-27T14:25:58Z</time>
      </trkpt>
      <trkpt lat="45.06013" lon="3.54845">
        <ele>548.09</ele>
        <time>2019-10-27T14:26:14Z</time>
      </trkpt>
      <trkpt lat="45.06034" lon="3.54842">
        <ele>548.57</ele>
        <time>2019-10-27T14:26:29Z</time>
      </trkpt>
      <trkpt lat="45.06054" lon="3.54845">
        <ele>550.01</ele>
        <time>2019-10-27T14:26:44Z</time>
      </trkpt>
      <trkpt lat="45.06065" lon="3.54845">
        <ele>551.93</ele>
        <time>2019-10-27T14:26:52Z</time>
      </trkpt>
      <trkpt lat="45.06071" lon="3.54845">
        <ele>552.9</ele>
        <time>2019-10-27T14:26:56Z</time>
      </trkpt>
      <trkpt lat="45.0609" lon="3.54845">
        <ele>553.38</ele>
        <time>2019-10-27T14:27:10Z</time>
      </trkpt>
      <trkpt lat="45.06111" lon="3.54843">
        <ele>551.93</ele>
        <time>2019-10-27T14:27:25Z</time>
      </trkpt>
      <trkpt lat="45.06114" lon="3.54842">
        <ele>550.97</ele>
        <time>2019-10-27T14:27:28Z</time>
      </trkpt>
      <trkpt lat="45.06133" lon="3.54835">
        <ele>551.45</ele>
        <time>2019-10-27T14:27:43Z</time>
      </trkpt>
      <trkpt lat="45.06148" lon="3.54828">
        <ele>551.93</ele>
        <time>2019-10-27T14:27:55Z</time>
      </trkpt>
      <trkpt lat="45.06167" lon="3.5482">
        <ele>550.49</ele>
        <time>2019-10-27T14:28:10Z</time>
      </trkpt>
      <trkpt lat="45.06169" lon="3.54819">
        <ele>550.49</ele>
        <time>2019-10-27T14:28:11Z</time>
      </trkpt>
      <trkpt lat="45.06174" lon="3.54817">
        <ele>550.49</ele>
        <time>2019-10-27T14:28:15Z</time>
      </trkpt>
      <trkpt lat="45.06189" lon="3.54805">
        <ele>548.57</ele>
        <time>2019-10-27T14:28:28Z</time>
      </trkpt>
      <trkpt lat="45.06204" lon="3.5479">
        <ele>546.17</ele>
        <time>2019-10-27T14:28:40Z</time>
      </trkpt>
      <trkpt lat="45.06214" lon="3.54779">
        <ele>544.72</ele>
        <time>2019-10-27T14:28:49Z</time>
      </trkpt>
      <trkpt lat="45.06227" lon="3.54766">
        <ele>546.17</ele>
        <time>2019-10-27T14:29:00Z</time>
      </trkpt>
      <trkpt lat="45.06242" lon="3.54752">
        <ele>546.65</ele>
        <time>2019-10-27T14:29:11Z</time>
      </trkpt>
      <trkpt lat="45.06255" lon="3.54743">
        <ele>547.61</ele>
        <time>2019-10-27T14:29:20Z</time>
      </trkpt>
      <trkpt lat="45.06272" lon="3.54734">
        <ele>552.9</ele>
        <time>2019-10-27T14:29:32Z</time>
      </trkpt>
      <trkpt lat="45.06292" lon="3.54725">
        <ele>553.86</ele>
        <time>2019-10-27T14:29:45Z</time>
      </trkpt>
      <trkpt lat="45.06311" lon="3.54708">
        <ele>553.38</ele>
        <time>2019-10-27T14:30:01Z</time>
      </trkpt>
      <trkpt lat="45.06319" lon="3.54701">
        <ele>551.45</ele>
        <time>2019-10-27T14:30:07Z</time>
      </trkpt>
      <trkpt lat="45.06325" lon="3.54699">
        <ele>550.01</ele>
        <time>2019-10-27T14:30:12Z</time>
      </trkpt>
      <trkpt lat="45.06346" lon="3.54686">
        <ele>548.09</ele>
        <time>2019-10-27T14:30:27Z</time>
      </trkpt>
      <trkpt lat="45.06364" lon="3.54686">
        <ele>554.34</ele>
        <time>2019-10-27T14:30:40Z</time>
      </trkpt>
      <trkpt lat="45.06383" lon="3.5469">
        <ele>564.91</ele>
        <time>2019-10-27T14:30:55Z</time>
      </trkpt>
      <trkpt lat="45.06399" lon="3.54696">
        <ele>574.53</ele>
        <time>2019-10-27T14:31:09Z</time>
      </trkpt>
      <trkpt lat="45.06404" lon="3.54696">
        <ele>576.93</ele>
        <time>2019-10-27T14:31:12Z</time>
      </trkpt>
      <trkpt lat="45.06406" lon="3.54696">
        <ele>578.37</ele>
        <time>2019-10-27T14:31:14Z</time>
      </trkpt>
      <trkpt lat="45.06415" lon="3.54698">
        <ele>581.73</ele>
        <time>2019-10-27T14:31:20Z</time>
      </trkpt>
      <trkpt lat="45.06425" lon="3.54699">
        <ele>584.14</ele>
        <time>2019-10-27T14:31:26Z</time>
      </trkpt>
      <trkpt lat="45.0643" lon="3.547">
        <ele>586.06</ele>
        <time>2019-10-27T14:31:30Z</time>
      </trkpt>
      <trkpt lat="45.06433" lon="3.54701">
        <ele>586.06</ele>
        <time>2019-10-27T14:31:32Z</time>
      </trkpt>
      <trkpt lat="45.06444" lon="3.54701">
        <ele>587.5</ele>
        <time>2019-10-27T14:31:40Z</time>
      </trkpt>
      <trkpt lat="45.06446" lon="3.54702">
        <ele>587.02</ele>
        <time>2019-10-27T14:31:42Z</time>
      </trkpt>
      <trkpt lat="45.06453" lon="3.54702">
        <ele>586.54</ele>
        <time>2019-10-27T14:31:47Z</time>
      </trkpt>
      <trkpt lat="45.06474" lon="3.54699">
        <ele>586.06</ele>
        <time>2019-10-27T14:32:02Z</time>
      </trkpt>
      <trkpt lat="45.0649" lon="3.54699">
        <ele>579.81</ele>
        <time>2019-10-27T14:32:13Z</time>
      </trkpt>
      <trkpt lat="45.06503" lon="3.54714">
        <ele>575.49</ele>
        <time>2019-10-27T14:32:27Z</time>
      </trkpt>
      <trkpt lat="45.06523" lon="3.54748">
        <ele>565.39</ele>
        <time>2019-10-27T14:32:48Z</time>
      </trkpt>
      <trkpt lat="45.06533" lon="3.54755">
        <ele>562.51</ele>
        <time>2019-10-27T14:32:56Z</time>
      </trkpt>
      <trkpt lat="45.06549" lon="3.5476">
        <ele>566.83</ele>
        <time>2019-10-27T14:33:09Z</time>
      </trkpt>
      <trkpt lat="45.06558" lon="3.5476">
        <ele>572.6</ele>
        <time>2019-10-27T14:33:15Z</time>
      </trkpt>
      <trkpt lat="45.0656" lon="3.54761">
        <ele>574.53</ele>
        <time>2019-10-27T14:33:17Z</time>
      </trkpt>
      <trkpt lat="45.06574" lon="3.54754">
        <ele>587.98</ele>
        <time>2019-10-27T14:33:29Z</time>
      </trkpt>
      <trkpt lat="45.06602" lon="3.54748">
        <ele>587.02</ele>
        <time>2019-10-27T14:33:47Z</time>
      </trkpt>
      <trkpt lat="45.0663" lon="3.54739">
        <ele>581.73</ele>
        <time>2019-10-27T14:34:05Z</time>
      </trkpt>
      <trkpt lat="45.06653" lon="3.54727">
        <ele>575.97</ele>
        <time>2019-10-27T14:34:21Z</time>
      </trkpt>
      <trkpt lat="45.06662" lon="3.54718">
        <ele>575.97</ele>
        <time>2019-10-27T14:34:30Z</time>
      </trkpt>
      <trkpt lat="45.06691" lon="3.54715">
        <ele>572.12</ele>
        <time>2019-10-27T14:34:47Z</time>
      </trkpt>
      <trkpt lat="45.06717" lon="3.54713">
        <ele>568.28</ele>
        <time>2019-10-27T14:35:06Z</time>
      </trkpt>
      <trkpt lat="45.06736" lon="3.54704">
        <ele>563.47</ele>
        <time>2019-10-27T14:35:22Z</time>
      </trkpt>
      <trkpt lat="45.06755" lon="3.54693">
        <ele>556.74</ele>
        <time>2019-10-27T14:35:38Z</time>
      </trkpt>
      <trkpt lat="45.06779" lon="3.54681">
        <ele>553.38</ele>
        <time>2019-10-27T14:35:57Z</time>
      </trkpt>
      <trkpt lat="45.06791" lon="3.54661">
        <ele>554.82</ele>
        <time>2019-10-27T14:36:11Z</time>
      </trkpt>
      <trkpt lat="45.06801" lon="3.54641">
        <ele>550.01</ele>
        <time>2019-10-27T14:36:26Z</time>
      </trkpt>
      <trkpt lat="45.06808" lon="3.54626">
        <ele>549.53</ele>
        <time>2019-10-27T14:36:35Z</time>
      </trkpt>
      <trkpt lat="45.06818" lon="3.54603">
        <ele>549.53</ele>
        <time>2019-10-27T14:36:50Z</time>
      </trkpt>
      <trkpt lat="45.06825" lon="3.54586">
        <ele>544.24</ele>
        <time>2019-10-27T14:37:04Z</time>
      </trkpt>
      <trkpt lat="45.06841" lon="3.54579">
        <ele>550.49</ele>
        <time>2019-10-27T14:37:16Z</time>
      </trkpt>
      <trkpt lat="45.0685" lon="3.54591">
        <ele>557.22</ele>
        <time>2019-10-27T14:37:28Z</time>
      </trkpt>
      <trkpt lat="45.06858" lon="3.54611">
        <ele>565.87</ele>
        <time>2019-10-27T14:37:43Z</time>
      </trkpt>
      <trkpt lat="45.06859" lon="3.54611">
        <ele>566.35</ele>
        <time>2019-10-27T14:37:44Z</time>
      </trkpt>
      <trkpt lat="45.0688" lon="3.54605">
        <ele>553.38</ele>
        <time>2019-10-27T14:38:01Z</time>
      </trkpt>
      <trkpt lat="45.0689" lon="3.54599">
        <ele>544.72</ele>
        <time>2019-10-27T14:38:13Z</time>
      </trkpt>
      <trkpt lat="45.06892" lon="3.54599">
        <ele>543.76</ele>
        <time>2019-10-27T14:38:15Z</time>
      </trkpt>
      <trkpt lat="45.06902" lon="3.54592">
        <ele>540.88</ele>
        <time>2019-10-27T14:38:27Z</time>
      </trkpt>
      <trkpt lat="45.06914" lon="3.5458">
        <ele>538.96</ele>
        <time>2019-10-27T14:38:40Z</time>
      </trkpt>
      <trkpt lat="45.06922" lon="3.54575">
        <ele>536.07</ele>
        <time>2019-10-27T14:38:51Z</time>
      </trkpt>
      <trkpt lat="45.06933" lon="3.54563">
        <ele>531.75</ele>
        <time>2019-10-27T14:39:03Z</time>
      </trkpt>
      <trkpt lat="45.06934" lon="3.54562">
        <ele>531.75</ele>
        <time>2019-10-27T14:39:04Z</time>
      </trkpt>
      <trkpt lat="45.06939" lon="3.54556">
        <ele>530.3</ele>
        <time>2019-10-27T14:39:15Z</time>
      </trkpt>
      <trkpt lat="45.0695" lon="3.54546">
        <ele>529.34</ele>
        <time>2019-10-27T14:39:25Z</time>
      </trkpt>
      <trkpt lat="45.06962" lon="3.5453">
        <ele>527.9</ele>
        <time>2019-10-27T14:39:36Z</time>
      </trkpt>
      <trkpt lat="45.06964" lon="3.54527">
        <ele>528.38</ele>
        <time>2019-10-27T14:39:41Z</time>
      </trkpt>
      <trkpt lat="45.06968" lon="3.54524">
        <ele>528.86</ele>
        <time>2019-10-27T14:39:47Z</time>
      </trkpt>
      <trkpt lat="45.06975" lon="3.54513">
        <ele>527.9</ele>
        <time>2019-10-27T14:39:57Z</time>
      </trkpt>
      <trkpt lat="45.0699" lon="3.54488">
        <ele>525.5</ele>
        <time>2019-10-27T14:40:08Z</time>
      </trkpt>
      <trkpt lat="45.07" lon="3.54471">
        <ele>524.54</ele>
        <time>2019-10-27T14:40:18Z</time>
      </trkpt>
      <trkpt lat="45.07017" lon="3.54444">
        <ele>524.54</ele>
        <time>2019-10-27T14:40:29Z</time>
      </trkpt>
      <trkpt lat="45.07029" lon="3.54425">
        <ele>526.46</ele>
        <time>2019-10-27T14:40:41Z</time>
      </trkpt>
      <trkpt lat="45.07041" lon="3.54402">
        <ele>524.54</ele>
        <time>2019-10-27T14:40:53Z</time>
      </trkpt>
      <trkpt lat="45.07055" lon="3.5438">
        <ele>525.02</ele>
        <time>2019-10-27T14:41:06Z</time>
      </trkpt>
      <trkpt lat="45.07064" lon="3.54366">
        <ele>524.54</ele>
        <time>2019-10-27T14:41:18Z</time>
      </trkpt>
      <trkpt lat="45.07082" lon="3.54336">
        <ele>523.09</ele>
        <time>2019-10-27T14:41:33Z</time>
      </trkpt>
      <trkpt lat="45.07098" lon="3.54306">
        <ele>521.17</ele>
        <time>2019-10-27T14:41:49Z</time>
      </trkpt>
      <trkpt lat="45.07105" lon="3.54278">
        <ele>522.13</ele>
        <time>2019-10-27T14:42:03Z</time>
      </trkpt>
      <trkpt lat="45.07105" lon="3.54261">
        <ele>522.61</ele>
        <time>2019-10-27T14:42:12Z</time>
      </trkpt>
      <trkpt lat="45.07108" lon="3.5424">
        <ele>522.13</ele>
        <time>2019-10-27T14:42:24Z</time>
      </trkpt>
      <trkpt lat="45.07119" lon="3.54213">
        <ele>522.61</ele>
        <time>2019-10-27T14:42:37Z</time>
      </trkpt>
      <trkpt lat="45.07122" lon="3.54201">
        <ele>523.58</ele>
        <time>2019-10-27T14:42:47Z</time>
      </trkpt>
      <trkpt lat="45.07125" lon="3.54174">
        <ele>522.61</ele>
        <time>2019-10-27T14:42:59Z</time>
      </trkpt>
      <trkpt lat="45.07137" lon="3.54149">
        <ele>522.13</ele>
        <time>2019-10-27T14:43:09Z</time>
      </trkpt>
      <trkpt lat="45.0715" lon="3.54123">
        <ele>521.65</ele>
        <time>2019-10-27T14:43:23Z</time>
      </trkpt>
      <trkpt lat="45.0717" lon="3.54114">
        <ele>520.69</ele>
        <time>2019-10-27T14:43:37Z</time>
      </trkpt>
      <trkpt lat="45.07179" lon="3.54106">
        <ele>520.69</ele>
        <time>2019-10-27T14:43:43Z</time>
      </trkpt>
      <trkpt lat="45.07189" lon="3.54081">
        <ele>520.69</ele>
        <time>2019-10-27T14:44:00Z</time>
      </trkpt>
      <trkpt lat="45.07192" lon="3.54063">
        <ele>519.73</ele>
        <time>2019-10-27T14:44:13Z</time>
      </trkpt>
      <trkpt lat="45.07199" lon="3.54035">
        <ele>519.73</ele>
        <time>2019-10-27T14:44:27Z</time>
      </trkpt>
      <trkpt lat="45.07213" lon="3.54003">
        <ele>519.25</ele>
        <time>2019-10-27T14:44:42Z</time>
      </trkpt>
      <trkpt lat="45.07226" lon="3.53974">
        <ele>520.21</ele>
        <time>2019-10-27T14:44:56Z</time>
      </trkpt>
      <trkpt lat="45.07234" lon="3.53954">
        <ele>519.25</ele>
        <time>2019-10-27T14:45:07Z</time>
      </trkpt>
      <trkpt lat="45.07236" lon="3.53947">
        <ele>519.25</ele>
        <time>2019-10-27T14:45:11Z</time>
      </trkpt>
      <trkpt lat="45.07246" lon="3.5393">
        <ele>519.73</ele>
        <time>2019-10-27T14:45:23Z</time>
      </trkpt>
      <trkpt lat="45.07257" lon="3.5391">
        <ele>519.25</ele>
        <time>2019-10-27T14:45:36Z</time>
      </trkpt>
      <trkpt lat="45.07268" lon="3.53886">
        <ele>518.77</ele>
        <time>2019-10-27T14:45:50Z</time>
      </trkpt>
      <trkpt lat="45.07271" lon="3.53875">
        <ele>520.69</ele>
        <time>2019-10-27T14:45:57Z</time>
      </trkpt>
      <trkpt lat="45.07281" lon="3.53839">
        <ele>520.21</ele>
        <time>2019-10-27T14:46:14Z</time>
      </trkpt>
      <trkpt lat="45.07299" lon="3.53812">
        <ele>519.73</ele>
        <time>2019-10-27T14:46:29Z</time>
      </trkpt>
      <trkpt lat="45.07324" lon="3.53785">
        <ele>519.73</ele>
        <time>2019-10-27T14:46:49Z</time>
      </trkpt>
      <trkpt lat="45.07343" lon="3.53758">
        <ele>518.77</ele>
        <time>2019-10-27T14:47:08Z</time>
      </trkpt>
      <trkpt lat="45.07357" lon="3.53736">
        <ele>517.81</ele>
        <time>2019-10-27T14:47:24Z</time>
      </trkpt>
      <trkpt lat="45.07369" lon="3.53721">
        <ele>518.29</ele>
        <time>2019-10-27T14:47:37Z</time>
      </trkpt>
      <trkpt lat="45.07381" lon="3.53707">
        <ele>518.77</ele>
        <time>2019-10-27T14:47:49Z</time>
      </trkpt>
      <trkpt lat="45.07389" lon="3.53703">
        <ele>518.77</ele>
        <time>2019-10-27T14:47:56Z</time>
      </trkpt>
      <trkpt lat="45.07399" lon="3.53699">
        <ele>520.21</ele>
        <time>2019-10-27T14:48:08Z</time>
      </trkpt>
      <trkpt lat="45.07413" lon="3.53689">
        <ele>521.17</ele>
        <time>2019-10-27T14:48:19Z</time>
      </trkpt>
      <trkpt lat="45.07424" lon="3.53678">
        <ele>520.69</ele>
        <time>2019-10-27T14:48:29Z</time>
      </trkpt>
      <trkpt lat="45.07435" lon="3.53661">
        <ele>522.13</ele>
        <time>2019-10-27T14:48:40Z</time>
      </trkpt>
      <trkpt lat="45.07447" lon="3.53647">
        <ele>521.65</ele>
        <time>2019-10-27T14:48:51Z</time>
      </trkpt>
      <trkpt lat="45.07457" lon="3.53635">
        <ele>521.17</ele>
        <time>2019-10-27T14:49:02Z</time>
      </trkpt>
      <trkpt lat="45.07463" lon="3.53629">
        <ele>520.69</ele>
        <time>2019-10-27T14:49:07Z</time>
      </trkpt>
      <trkpt lat="45.07488" lon="3.5361">
        <ele>521.17</ele>
        <time>2019-10-27T14:49:21Z</time>
      </trkpt>
      <trkpt lat="45.07505" lon="3.53604">
        <ele>521.65</ele>
        <time>2019-10-27T14:49:34Z</time>
      </trkpt>
      <trkpt lat="45.0752" lon="3.53592">
        <ele>525.02</ele>
        <time>2019-10-27T14:49:46Z</time>
      </trkpt>
      <trkpt lat="45.07527" lon="3.53589">
        <ele>525.98</ele>
        <time>2019-10-27T14:49:51Z</time>
      </trkpt>
      <trkpt lat="45.07531" lon="3.53583">
        <ele>526.46</ele>
        <time>2019-10-27T14:49:59Z</time>
      </trkpt>
      <trkpt lat="45.07538" lon="3.53574">
        <ele>523.09</ele>
        <time>2019-10-27T14:50:12Z</time>
      </trkpt>
      <trkpt lat="45.07544" lon="3.53559">
        <ele>523.09</ele>
        <time>2019-10-27T14:50:20Z</time>
      </trkpt>
      <trkpt lat="45.07553" lon="3.53546">
        <ele>522.13</ele>
        <time>2019-10-27T14:50:30Z</time>
      </trkpt>
      <trkpt lat="45.0756" lon="3.53539">
        <ele>522.13</ele>
        <time>2019-10-27T14:50:40Z</time>
      </trkpt>
      <trkpt lat="45.07561" lon="3.53537">
        <ele>522.13</ele>
        <time>2019-10-27T14:50:42Z</time>
      </trkpt>
      <trkpt lat="45.07567" lon="3.53533">
        <ele>525.98</ele>
        <time>2019-10-27T14:50:53Z</time>
      </trkpt>
      <trkpt lat="45.07569" lon="3.53533">
        <ele>527.42</ele>
        <time>2019-10-27T14:50:55Z</time>
      </trkpt>
      <trkpt lat="45.07575" lon="3.53533">
        <ele>529.82</ele>
        <time>2019-10-27T14:50:59Z</time>
      </trkpt>
      <trkpt lat="45.07578" lon="3.53538">
        <ele>530.79</ele>
        <time>2019-10-27T14:51:05Z</time>
      </trkpt>
      <trkpt lat="45.07594" lon="3.53529">
        <ele>533.19</ele>
        <time>2019-10-27T14:51:14Z</time>
      </trkpt>
      <trkpt lat="45.07616" lon="3.53515">
        <ele>539.44</ele>
        <time>2019-10-27T14:51:22Z</time>
      </trkpt>
      <trkpt lat="45.07642" lon="3.53492">
        <ele>539.92</ele>
        <time>2019-10-27T14:51:32Z</time>
      </trkpt>
      <trkpt lat="45.0767" lon="3.53476">
        <ele>538.48</ele>
        <time>2019-10-27T14:51:44Z</time>
      </trkpt>
      <trkpt lat="45.07679" lon="3.53476">
        <ele>539.44</ele>
        <time>2019-10-27T14:51:55Z</time>
      </trkpt>
      <trkpt lat="45.07688" lon="3.53473">
        <ele>538.48</ele>
        <time>2019-10-27T14:52:03Z</time>
      </trkpt>
      <trkpt lat="45.07699" lon="3.53467">
        <ele>537.99</ele>
        <time>2019-10-27T14:52:12Z</time>
      </trkpt>
      <trkpt lat="45.07705" lon="3.53478">
        <ele>537.99</ele>
        <time>2019-10-27T14:52:22Z</time>
      </trkpt>
      <trkpt lat="45.07692" lon="3.53519">
        <ele>537.99</ele>
        <time>2019-10-27T14:52:32Z</time>
      </trkpt>
      <trkpt lat="45.07702" lon="3.53523">
        <ele>540.88</ele>
        <time>2019-10-27T14:52:44Z</time>
      </trkpt>
      <trkpt lat="45.07714" lon="3.53523">
        <ele>545.2</ele>
        <time>2019-10-27T14:52:57Z</time>
      </trkpt>
      <trkpt lat="45.07719" lon="3.53517">
        <ele>545.2</ele>
        <time>2019-10-27T14:53:07Z</time>
      </trkpt>
      <trkpt lat="45.07719" lon="3.53507">
        <ele>546.65</ele>
        <time>2019-10-27T14:53:19Z</time>
      </trkpt>
      <trkpt lat="45.07718" lon="3.53499">
        <ele>548.09</ele>
        <time>2019-10-27T14:53:26Z</time>
      </trkpt>
      <trkpt lat="45.07722" lon="3.53477">
        <ele>545.69</ele>
        <time>2019-10-27T14:53:35Z</time>
      </trkpt>
      <trkpt lat="45.07735" lon="3.5344">
        <ele>540.88</ele>
        <time>2019-10-27T14:53:46Z</time>
      </trkpt>
      <trkpt lat="45.07743" lon="3.53414">
        <ele>537.51</ele>
        <time>2019-10-27T14:53:58Z</time>
      </trkpt>
      <trkpt lat="45.07739" lon="3.53419">
        <ele>539.44</ele>
        <time>2019-10-27T14:54:06Z</time>
      </trkpt>
      <trkpt lat="45.07728" lon="3.53428">
        <ele>542.8</ele>
        <time>2019-10-27T14:54:20Z</time>
      </trkpt>
      <trkpt lat="45.07724" lon="3.5343">
        <ele>543.76</ele>
        <time>2019-10-27T14:54:24Z</time>
      </trkpt>
      <trkpt lat="45.07722" lon="3.53432">
        <ele>544.72</ele>
        <time>2019-10-27T14:54:26Z</time>
      </trkpt>
      <trkpt lat="45.0771" lon="3.53438">
        <ele>546.65</ele>
        <time>2019-10-27T14:54:38Z</time>
      </trkpt>
      <trkpt lat="45.07704" lon="3.53442">
        <ele>546.17</ele>
        <time>2019-10-27T14:54:43Z</time>
      </trkpt>
      <trkpt lat="45.07696" lon="3.53428">
        <ele>546.65</ele>
        <time>2019-10-27T14:54:55Z</time>
      </trkpt>
      <trkpt lat="45.0769" lon="3.534">
        <ele>547.61</ele>
        <time>2019-10-27T14:55:11Z</time>
      </trkpt>
      <trkpt lat="45.07687" lon="3.53385">
        <ele>548.57</ele>
        <time>2019-10-27T14:55:20Z</time>
      </trkpt>
      <trkpt lat="45.07684" lon="3.53361">
        <ele>550.01</ele>
        <time>2019-10-27T14:55:35Z</time>
      </trkpt>
      <trkpt lat="45.07685" lon="3.53353">
        <ele>550.49</ele>
        <time>2019-10-27T14:55:40Z</time>
      </trkpt>
      <trkpt lat="45.07684" lon="3.53335">
        <ele>551.45</ele>
        <time>2019-10-27T14:55:50Z</time>
      </trkpt>
      <trkpt lat="45.07683" lon="3.53329">
        <ele>551.93</ele>
        <time>2019-10-27T14:55:54Z</time>
      </trkpt>
      <trkpt lat="45.07675" lon="3.53303">
        <ele>552.41</ele>
        <time>2019-10-27T14:56:10Z</time>
      </trkpt>
      <trkpt lat="45.07669" lon="3.53289">
        <ele>552.9</ele>
        <time>2019-10-27T14:56:20Z</time>
      </trkpt>
      <trkpt lat="45.07663" lon="3.53283">
        <ele>552.9</ele>
        <time>2019-10-27T14:56:26Z</time>
      </trkpt>
      <trkpt lat="45.07658" lon="3.53283">
        <ele>553.38</ele>
        <time>2019-10-27T14:56:30Z</time>
      </trkpt>
      <trkpt lat="45.07635" lon="3.53283">
        <ele>555.78</ele>
        <time>2019-10-27T14:56:49Z</time>
      </trkpt>
      <trkpt lat="45.07616" lon="3.53277">
        <ele>557.22</ele>
        <time>2019-10-27T14:57:04Z</time>
      </trkpt>
      <trkpt lat="45.07598" lon="3.5327">
        <ele>560.11</ele>
        <time>2019-10-27T14:57:18Z</time>
      </trkpt>
      <trkpt lat="45.07587" lon="3.53272">
        <ele>561.07</ele>
        <time>2019-10-27T14:57:32Z</time>
      </trkpt>
      <trkpt lat="45.07576" lon="3.5327">
        <ele>562.99</ele>
        <time>2019-10-27T14:57:43Z</time>
      </trkpt>
      <trkpt lat="45.07562" lon="3.53254">
        <ele>557.22</ele>
        <time>2019-10-27T14:58:00Z</time>
      </trkpt>
      <trkpt lat="45.07554" lon="3.53244">
        <ele>560.11</ele>
        <time>2019-10-27T14:58:08Z</time>
      </trkpt>
      <trkpt lat="45.07547" lon="3.53236">
        <ele>562.51</ele>
        <time>2019-10-27T14:58:17Z</time>
      </trkpt>
      <trkpt lat="45.07535" lon="3.53234">
        <ele>563.95</ele>
        <time>2019-10-27T14:58:27Z</time>
      </trkpt>
      <trkpt lat="45.07519" lon="3.53232">
        <ele>559.62</ele>
        <time>2019-10-27T14:58:37Z</time>
      </trkpt>
      <trkpt lat="45.07502" lon="3.53231">
        <ele>555.78</ele>
        <time>2019-10-27T14:58:49Z</time>
      </trkpt>
      <trkpt lat="45.07493" lon="3.5323">
        <ele>554.34</ele>
        <time>2019-10-27T14:58:56Z</time>
      </trkpt>
      <trkpt lat="45.07478" lon="3.53227">
        <ele>551.93</ele>
        <time>2019-10-27T14:59:08Z</time>
      </trkpt>
      <trkpt lat="45.07455" lon="3.53224">
        <ele>552.9</ele>
        <time>2019-10-27T14:59:26Z</time>
      </trkpt>
      <trkpt lat="45.07433" lon="3.53224">
        <ele>555.78</ele>
        <time>2019-10-27T14:59:44Z</time>
      </trkpt>
      <trkpt lat="45.07417" lon="3.53225">
        <ele>556.74</ele>
        <time>2019-10-27T14:59:58Z</time>
      </trkpt>
      <trkpt lat="45.07398" lon="3.53235">
        <ele>559.62</ele>
        <time>2019-10-27T15:00:15Z</time>
      </trkpt>
      <trkpt lat="45.07382" lon="3.53247">
        <ele>562.99</ele>
        <time>2019-10-27T15:00:31Z</time>
      </trkpt>
      <trkpt lat="45.07366" lon="3.5326">
        <ele>564.43</ele>
        <time>2019-10-27T15:00:47Z</time>
      </trkpt>
      <trkpt lat="45.07364" lon="3.53263">
        <ele>563.95</ele>
        <time>2019-10-27T15:00:50Z</time>
      </trkpt>
      <trkpt lat="45.07362" lon="3.53264">
        <ele>564.43</ele>
        <time>2019-10-27T15:00:52Z</time>
      </trkpt>
      <trkpt lat="45.07352" lon="3.53279">
        <ele>567.32</ele>
        <time>2019-10-27T15:01:08Z</time>
      </trkpt>
      <trkpt lat="45.07342" lon="3.53299">
        <ele>567.8</ele>
        <time>2019-10-27T15:01:26Z</time>
      </trkpt>
      <trkpt lat="45.07333" lon="3.53313">
        <ele>567.8</ele>
        <time>2019-10-27T15:01:40Z</time>
      </trkpt>
      <trkpt lat="45.07323" lon="3.53316">
        <ele>566.83</ele>
        <time>2019-10-27T15:01:51Z</time>
      </trkpt>
      <trkpt lat="45.07335" lon="3.533">
        <ele>558.18</ele>
        <time>2019-10-27T15:03:38Z</time>
      </trkpt>
      <trkpt lat="45.07326" lon="3.53317">
        <ele>564.91</ele>
        <time>2019-10-27T15:03:51Z</time>
      </trkpt>
      <trkpt lat="45.07324" lon="3.53321">
        <ele>563.47</ele>
        <time>2019-10-27T15:04:08Z</time>
      </trkpt>
      <trkpt lat="45.07321" lon="3.5332">
        <ele>562.51</ele>
        <time>2019-10-27T15:04:22Z</time>
      </trkpt>
      <trkpt lat="45.07319" lon="3.5332">
        <ele>562.51</ele>
        <time>2019-10-27T15:04:40Z</time>
      </trkpt>
      <trkpt lat="45.07322" lon="3.53317">
        <ele>562.99</ele>
        <time>2019-10-27T15:04:55Z</time>
      </trkpt>
      <trkpt lat="45.07322" lon="3.53316">
        <ele>561.55</ele>
        <time>2019-10-27T15:05:07Z</time>
      </trkpt>
      <trkpt lat="45.07322" lon="3.53316">
        <ele>563.95</ele>
        <time>2019-10-27T15:05:23Z</time>
      </trkpt>
    </trkseg>
  </trk>
</gpx>